[[{"header":{"parameterUnit":"m.s-1","parameterCategory":1,"la1":31.0,"la2":29.5877,"lo1":-88.7671,"lo2":-86.6584,"dy":0.0162,"dx":0.0185,"nx":115,"ny":88,"refTime":"2023-05-26T18:00:00:Z","depth":0,"parameterNumber":2,"parameterNumberName":"U-component_of_WINDS"},"data":[0.0,0.0,0.0,0.0,0.0,0.0,0.0,0.0,0.0,0.0,0.0,0.0,0.0,0.0,0.0,0.0,0.0,0.0,0.0,0.0,0.0,0.0,0.0,0.0,0.0,0.0,0.0,0.0,0.0,0.0,0.0,0.0,0.0,0.0,0.0,0.0,0.0,0.0,0.0,0.0,0.0,0.0,0.0,0.0,0.0,0.0,0.0,0.0,0.0,0.0,0.0,0.0,0.0,0.0,0.0,0.0,0.0,0.0,0.0,0.0,0.0,0.0,0.0,0.0,0.0,0.0,0.0,0.0,0.0,0.0,0.0,0.0,0.0,0.0,0.0,0.0,0.0,0.0,0.0,0.0,0.0,0.0,0.0,0.0,0.0,0.0,0.0,0.0,0.0,0.0,0.0,0.0,0.0,0.0,0.0,0.0,0.0,0.0,0.0,0.0,0.0,0.0,0.0,0.0,0.0,0.0,0.0,0.0,0.0,0.0,0.0,0.0,0.0,0.0,0.0,0.0,0.0,0.0,0.0,0.0,0.0,0.0,0.0,0.0,0.0,0.0,0.0,0.0,0.0,0.0,0.0,0.0,0.0,0.0,0.0,0.0,0.0,0.0,0.0,0.0,0.0,0.0,0.0,0.0,0.0,0.0,0.0,0.0,0.0,0.0,0.0,0.0,0.0,0.0,0.0,0.0,0.0,0.0,0.0,0.0,0.0,0.0,0.0,0.0,0.0,0.0,0.0,0.0,0.0,0.0,0.0,0.0,0.0,0.0,0.0,0.0,0.0,0.0,0.0,0.0,0.0,0.0,0.0,0.0,0.0,0.0,0.0,0.0,0.0,0.0,0.0,0.0,0.0,0.0,0.0,0.0,0.0,0.0,0.0,0.0,0.0,0.0,0.0,0.0,0.0,0.0,0.0,0.0,0.0,0.0,0.0,0.0,0.0,0.0,0.0,0.0,0.0,0.0,0.0,0.0,0.0,0.0,0.0,0.0,0.0,0.0,0.0,0.0,0.0,0.0,0.0,0.0,0.0,0.0,0.0,0.0,0.0,0.0,0.0,0.0,0.0,0.0,0.0,0.0,0.0,0.0,0.0,0.0,0.0,0.0,0.0,0.0,0.0,0.0,0.0,0.0,0.0,0.0,0.0,0.0,0.0,0.0,0.0,0.0,0.0,0.0,0.0,0.0,0.0,0.0,0.0,0.0,0.0,0.0,0.0,0.0,0.0,0.0,0.0,0.0,0.0,0.0,0.0,0.0,0.0,0.0,0.0,0.0,0.0,0.0,0.0,0.0,0.0,0.0,0.0,0.0,0.0,0.0,0.0,0.0,0.0,0.0,0.0,0.0,0.0,0.0,0.0,0.0,0.0,0.0,0.0,0.0,0.0,0.0,0.0,0.0,0.0,0.0,0.0,0.0,0.0,0.0,0.0,0.0,0.0,0.0,0.0,0.0,0.0,0.0,0.0,0.0,0.0,0.0,0.0,0.0,0.0,0.0,0.0,0.0,0.0,0.0,0.0,0.0,0.0,0.0,0.0,0.0,0.0,0.0,0.0,0.0,0.0,0.0,0.0,0.0,0.0,0.0,0.0,0.0,0.0,0.0,0.0,0.0,0.0,0.0,0.0,0.0,0.0,0.0,0.0,0.0,0.0,0.0,0.0,0.0,0.0,0.0,0.0,0.0,0.0,0.0,0.0,0.0,0.0,0.0,0.0,0.0,0.0,0.0,0.0,0.0,0.0,0.0,0.0,0.0,0.0,0.0,0.0,0.0,0.0,0.0,0.0,0.0,0.0,0.0,0.0,0.0,0.0,0.0,0.0,0.0,0.0,0.0,0.0,0.0,0.0,0.0,0.0,0.0,0.0,0.0,0.0,0.0,0.0,0.0,0.0,0.0,0.0,0.0,0.0,0.0,0.0,0.0,0.0,0.0,0.0,0.0,0.0,0.0,0.0,0.0,0.0,0.0,0.0,0.0,0.0,0.0,0.0,0.0,0.0,0.0,0.0,0.0,0.0,0.0,0.0,0.0,0.0,0.0,0.0,0.0,0.0,0.0,0.0,0.0,0.0,0.0,0.0,0.0,0.0,0.0,0.0,0.0,0.0,0.0,0.0,0.0,0.0,0.0,0.0,0.0,0.0,0.0,0.0,0.0,0.0,0.0,0.0,0.0,0.0,0.0,0.0,0.0,0.0,0.0,0.0,0.0,0.0,0.0,0.0,0.0,0.0,0.0,0.0,0.0,0.0,0.0,0.0,0.0,0.0,0.0,0.0,0.0,0.0,0.0,0.0,0.0,0.0,0.0,0.0,0.0,0.0,0.0,0.0,0.0,0.0,0.0,0.0,0.0,0.0,0.0,0.0,0.0,0.0,0.0,0.0,0.0,0.0,0.0,0.0,0.0,0.0,0.0,0.0,0.0,0.0,0.0,0.0,0.0,0.0,0.0,0.0,0.0,0.0,0.0,0.0,0.0,0.0,0.0,0.0,0.0,0.0,0.0,0.0,0.0,0.0,0.0,0.0,0.0,0.0,0.0,0.0,0.0,0.0,0.0,0.0,0.0,0.0,0.0,0.0,0.0,0.0,0.0,0.0,0.0,0.0,0.0,0.0,0.0,0.0,0.0,0.0,0.0,0.0,0.0,0.0,0.0,0.0,0.0,0.0,0.0,0.0,0.0,0.0,0.0,0.0,0.0,0.0,0.0,0.0,0.0,0.0,0.0,0.0,0.0,0.0,0.0,0.0,0.0,0.0,0.0,0.0,0.0,0.0,0.0,0.0,0.0,0.0,0.0,0.0,0.0,0.0,0.0,0.0,0.0,0.0,0.0,0.0,0.0,0.0,0.0,0.0,0.0,0.0,0.0,0.0,0.0,0.0,0.0,0.0,0.0,0.0,0.0,0.0,0.0,0.0,0.0,0.0,0.0,0.0,0.0,0.0,0.0,0.0,0.0,0.0,0.0,0.0,0.0,0.0,0.0,0.0,0.0,0.0,0.0,0.0,0.0,0.0,0.0,0.0,0.0,0.0,0.0,0.0,0.0,0.0,0.0,0.0,0.0,0.0,0.0,0.0,0.0,0.0,0.0,0.0,0.0,0.0,0.0,0.0,0.0,0.0,0.0,0.0,0.0,0.0,0.0,0.0,0.0,0.0,0.0,0.0,0.0,0.0,0.0,0.0,0.0,0.0,0.0,0.0,0.0,0.0,0.0,0.0,0.0,0.0,0.0,0.0,0.0,0.0,0.0,0.0,0.0,0.0,0.0,0.0,0.0,0.0,0.0,0.0,0.0,0.0,0.0,0.0,0.0,0.0,0.0,0.0,0.0,0.0,0.0,0.0,0.0,0.0,0.0,0.0,0.0,0.0,0.0,0.0,0.0,0.0,0.0,0.0,0.0,0.0,0.0,0.0,0.0,0.0,0.0,0.0,0.0,0.0,0.0,0.0,0.0,0.0,0.0,0.0,0.0,0.0,0.0,0.0,0.0,0.0,0.0,0.0,0.0,0.0,0.0,0.0,0.0,0.0,0.0,0.0,0.0,0.0,0.0,0.0,0.0,0.0,0.0,0.0,0.0,0.0,0.0,0.0,0.0,0.0,0.0,0.0,0.0,0.0,0.0,0.0,0.0,0.0,0.0,0.0,0.0,0.0,0.0,0.0,0.0,0.0,0.0,0.0,0.0,0.0,0.0,0.0,0.0,0.0,0.0,0.0,0.0,0.0,0.0,0.0,0.0,0.0,0.0,0.0,0.0,0.0,0.0,0.0,0.0,0.0,0.0,0.0,0.0,0.0,0.0,0.0,0.0,0.0,0.0,0.0,0.0,0.0,0.0,0.0,0.0,0.0,0.0,0.0,0.0,0.0,0.0,0.0,0.0,0.0,0.0,0.0,0.0,0.0,0.0,0.0,0.0,0.0,0.0,0.0,0.0,0.0,0.0,0.0,0.0,0.0,0.0,0.0,0.0,0.0,0.0,0.0,0.0,0.0,0.0,0.0,0.0,0.0,0.0,0.0,0.0,0.0,0.0,0.0,0.0,0.0,0.0,0.0,0.0,0.0,0.0,0.0,0.0,0.0,0.0,0.0,0.0,0.0,0.0,0.0,0.0,0.0,0.0,0.0,0.0,0.0,0.0,0.0,0.0,0.0,0.0,0.0,0.0,0.0,0.0,0.0,0.0,0.0,0.0,0.0,0.0,0.0,0.0,0.0,0.0,0.0,0.0,0.0,0.0,0.0,0.0,0.0,0.0,0.0,0.0,0.0,0.0,0.0,0.0,0.0,0.0,1.0262,0.0,0.0,0.0,0.0,0.0,0.0,0.0,0.0,0.0,0.0,0.0,0.0,0.0,0.0,0.0,0.0,0.0,0.0,0.0,0.0,0.0,0.0,0.0,0.0,0.0,0.0,0.0,0.0,0.0,0.0,0.0,0.0,0.0,0.0,0.0,0.0,0.0,0.0,0.0,0.0,0.0,0.0,0.0,0.0,0.0,0.0,0.0,0.0,0.0,0.0,0.0,0.0,0.0,0.0,0.0,0.0,0.0,0.0,0.0,0.0,0.0,0.0,0.0,0.0,0.0,0.0,0.0,0.0,0.0,0.0,0.0,0.0,0.0,0.0,0.0,0.0,0.0,0.0,0.0,0.0,0.0,0.0,0.0,0.0,0.0,0.0,0.0,0.0,0.0,0.0,0.0,0.0,0.0,0.0,0.0,0.0,0.0,0.0,0.0,0.0,0.0,0.0,0.0,0.0,0.0,0.0,0.0,0.0,0.0,0.0,1.2285,1.1642,1.1368,1.1041,1.0583,0.0,0.0,0.0,0.0,0.0,0.0,0.0,0.0,0.0,0.0,0.0,0.0,0.0,0.0,0.0,0.0,0.0,0.0,0.0,0.0,0.0,0.0,0.0,0.0,0.0,0.0,0.0,0.0,0.0,0.0,0.0,0.0,0.0,0.0,0.0,0.0,0.0,0.0,0.0,0.0,0.0,0.0,0.0,0.0,0.0,0.0,0.0,0.0,0.0,0.0,0.0,0.0,0.0,0.0,0.0,0.0,0.0,0.0,0.0,0.0,0.0,0.0,0.0,0.0,0.0,0.0,0.0,0.0,0.0,0.0,0.0,0.0,0.0,0.0,0.0,0.0,0.0,0.0,0.0,0.0,0.0,0.0,0.0,0.0,0.0,0.0,0.0,0.0,0.0,0.0,0.0,0.0,0.0,0.0,0.0,0.0,0.0,0.0,0.0,0.0,0.0,0.0,0.0,0.0,0.0,0.0,0.0,0.0,0.0,0.0,0.0,0.0,1.2072,1.1683,1.0976,0.0,0.0,0.0,0.0,0.0,0.0,0.0,0.0,0.0,0.0,0.0,0.0,0.0,0.0,0.0,0.0,0.0,0.0,0.0,0.0,0.0,0.0,0.0,0.0,0.0,0.0,0.0,0.0,0.0,0.0,0.0,0.0,0.0,0.0,0.0,0.0,0.0,0.0,0.0,0.0,0.0,0.0,0.0,0.0,0.0,0.0,0.0,0.0,0.0,0.0,0.0,0.0,0.0,0.0,0.0,0.0,0.0,0.0,0.0,0.0,0.0,0.0,0.0,0.0,0.0,0.0,0.0,0.0,0.0,0.0,0.0,0.0,0.0,0.0,0.0,0.0,0.0,0.0,0.0,0.0,0.0,0.0,0.0,0.0,0.0,0.0,0.0,0.0,0.0,0.0,0.0,0.0,0.0,0.0,0.0,0.0,0.0,0.0,0.0,0.0,0.0,0.0,0.0,0.0,0.0,0.0,0.0,0.0,0.0,0.0,1.3006,1.2808,1.2268,0.0,1.1496,0.0,0.0,0.0,0.0,0.0,0.0,0.0,0.0,0.0,0.0,0.0,0.0,0.0,0.0,0.0,0.0,0.0,0.0,0.0,0.0,0.0,0.0,0.0,0.0,0.0,0.0,0.0,0.0,0.0,0.0,0.0,0.0,0.0,0.0,0.0,0.0,0.0,0.0,0.0,0.0,0.0,0.0,0.0,0.0,0.0,0.0,0.0,0.0,0.0,0.0,0.0,0.0,0.0,0.0,0.0,0.0,0.0,0.0,0.0,0.0,0.0,0.0,0.0,0.0,0.0,0.0,0.0,0.0,0.0,0.0,0.0,0.0,0.0,0.0,0.0,0.0,0.0,0.0,0.0,0.0,0.0,0.0,0.0,0.0,0.0,0.0,0.0,0.0,0.0,0.0,0.0,0.0,0.0,0.0,0.0,0.0,0.0,0.0,0.0,0.0,0.0,0.0,0.0,0.0,0.0,0.0,0.0,0.0,0.0,0.0,1.3454,1.3422,1.286,1.2299,0.0,0.0,0.0,0.0,0.0,0.0,0.0,0.0,0.0,0.0,0.0,0.0,0.0,0.0,0.0,0.0,0.0,0.0,0.0,0.0,0.0,0.0,0.0,0.0,0.0,0.0,0.0,0.0,0.0,0.0,0.0,0.0,0.0,0.0,0.0,0.0,0.0,0.0,0.0,0.0,0.0,0.0,0.0,0.0,0.0,0.0,0.0,0.0,0.0,0.0,0.0,0.0,0.0,0.0,0.0,0.0,0.0,0.0,0.0,0.0,0.0,0.0,0.0,0.0,0.0,0.0,0.0,0.0,0.0,0.0,0.0,0.0,0.0,0.0,0.0,0.0,0.0,0.0,0.0,0.0,0.0,0.0,0.0,0.0,0.0,0.0,0.0,0.0,0.0,0.0,0.0,0.0,0.0,0.0,0.0,0.0,0.0,0.0,0.0,0.0,0.0,0.0,0.0,0.0,0.0,0.0,0.0,0.0,0.0,0.0,1.3821,1.3821,1.3762,1.3356,1.2907,1.2442,0.0,0.0,0.0,0.0,0.0,0.0,0.0,0.0,0.0,0.0,0.0,0.0,0.0,0.0,0.0,0.0,0.0,0.0,0.0,0.0,0.0,0.0,0.0,0.0,0.0,0.0,0.0,0.0,0.0,0.0,0.0,0.0,0.0,0.0,0.0,0.0,0.0,0.0,0.0,0.0,0.0,0.0,0.0,0.0,0.0,0.0,0.0,0.0,0.0,0.0,0.0,0.0,0.0,0.0,0.0,0.0,0.0,0.0,0.0,0.0,0.0,0.0,0.0,0.0,0.0,0.0,0.0,0.0,0.0,0.0,0.0,0.0,0.0,0.0,0.0,0.0,0.0,0.0,0.0,0.0,0.0,0.0,0.0,0.0,0.0,0.0,0.0,0.0,0.0,0.0,0.0,0.0,0.0,0.0,0.0,0.0,0.0,0.0,0.0,0.0,0.0,0.0,0.0,0.0,0.0,0.0,0.0,0.0,1.3874,1.3874,1.3841,1.3775,1.3749,1.3735,0.0,0.0,0.0,0.0,0.0,0.0,0.0,0.0,0.0,0.0,0.0,0.0,0.0,0.0,0.0,0.0,0.0,0.0,0.0,0.0,0.0,0.0,0.0,0.0,0.0,0.0,0.0,0.0,0.0,0.0,0.0,0.0,0.0,0.0,0.0,0.0,0.0,0.0,0.0,0.0,0.0,0.0,0.0,0.0,0.0,0.0,0.0,0.0,0.0,0.0,0.0,0.0,0.0,0.0,0.0,0.0,0.0,0.0,0.0,0.0,0.0,0.0,0.0,0.0,0.0,0.0,0.0,0.0,0.0,0.0,0.0,0.0,0.0,0.0,0.0,0.0,0.0,0.0,0.0,0.0,0.0,0.0,0.0,0.0,0.0,0.0,0.0,0.0,0.0,0.0,0.0,0.0,0.0,0.0,0.0,0.0,0.0,0.0,0.0,0.0,0.0,0.0,0.0,0.0,0.0,0.0,0.0,0.0,0.0,1.3921,1.3841,1.3821,1.3775,1.3775,1.3775,0.0,0.0,0.0,0.0,0.0,0.0,0.0,0.0,0.0,0.0,0.0,0.0,0.0,0.0,0.0,0.0,0.0,0.0,0.0,0.0,0.0,0.0,0.0,0.0,0.0,0.0,0.0,0.0,0.0,0.0,0.0,0.0,0.0,0.0,0.0,0.0,0.0,0.0,0.0,0.0,0.0,0.0,0.0,0.0,0.0,0.0,0.0,0.0,0.0,0.0,0.0,0.0,0.0,0.0,0.0,0.0,0.0,0.0,0.0,0.0,0.0,0.0,0.0,0.0,0.0,0.0,0.0,0.0,0.0,0.0,0.0,0.0,0.0,0.0,0.0,0.0,0.0,0.0,0.0,0.0,0.0,0.0,0.0,0.0,0.0,0.0,0.0,0.0,0.0,0.0,0.0,0.0,0.0,0.0,0.0,0.0,0.0,0.0,0.0,0.0,0.0,0.0,0.0,0.0,0.0,0.0,0.0,0.0,0.0,1.3888,0.0,1.3775,1.3775,1.3775,1.3728,0.0,0.0,0.0,0.0,0.0,0.0,0.0,0.0,0.0,0.0,0.0,0.0,0.0,0.0,0.0,0.0,0.0,0.0,0.0,0.0,0.0,0.0,0.0,0.0,0.0,0.0,0.0,0.0,0.0,0.0,0.0,0.0,0.0,0.0,0.0,0.0,0.0,0.0,0.0,0.0,0.0,0.0,0.0,0.0,0.0,0.0,0.0,0.0,0.0,0.0,0.0,0.0,0.0,0.0,0.0,0.0,0.0,0.0,0.0,0.0,0.0,0.0,0.0,0.0,0.0,0.0,0.0,0.0,0.0,0.0,0.0,0.0,0.0,0.0,0.0,0.0,0.0,0.0,0.0,0.0,0.0,0.0,0.0,0.0,0.0,0.0,0.0,0.0,0.0,0.0,0.0,0.0,0.0,0.0,0.0,0.0,0.0,0.0,0.0,0.0,0.0,0.0,0.0,0.0,0.0,0.0,0.0,0.0,1.3801,1.3775,1.3775,1.3775,1.3775,1.3775,1.3728,0.0,0.0,0.0,0.0,0.0,0.0,0.0,0.0,0.0,0.0,0.0,0.0,0.0,0.0,0.0,0.0,0.0,0.0,0.0,0.0,0.0,0.0,0.0,0.0,0.0,0.0,0.0,0.0,0.0,0.0,0.0,0.0,0.0,0.0,0.0,0.0,0.0,0.0,0.0,0.0,0.0,0.0,0.0,0.0,0.0,0.0,0.0,0.0,0.0,0.0,0.0,0.0,0.0,0.0,0.0,0.0,0.0,0.0,0.0,0.0,0.0,0.0,0.0,0.0,0.0,0.0,0.0,0.0,0.0,0.0,0.0,0.0,0.0,0.0,0.0,0.0,0.0,0.0,0.0,0.0,0.0,0.0,0.0,0.0,0.0,0.0,0.0,0.0,0.0,0.0,0.0,0.0,0.0,0.0,0.0,0.0,0.0,0.0,0.0,0.0,0.0,0.0,0.0,0.0,0.0,0.0,0.0,0.0,0.0,1.3814,1.3775,1.3775,1.3775,1.3775,1.3741,0.0,0.0,0.0,0.0,0.0,0.0,0.0,0.0,0.0,0.0,0.0,0.0,0.0,0.0,0.0,0.0,0.0,0.0,0.0,0.0,0.0,0.0,0.0,0.0,0.0,0.0,0.0,0.0,0.0,0.0,0.0,0.0,0.0,0.0,0.0,0.0,0.0,0.0,0.0,0.0,0.0,0.0,0.0,0.0,0.0,0.0,0.0,0.0,0.0,0.0,0.0,0.0,0.0,0.0,0.0,0.0,0.0,0.0,0.0,0.0,0.0,0.0,0.0,0.0,0.0,0.0,0.0,0.0,0.0,0.0,0.0,0.0,0.0,0.0,0.0,0.0,0.0,0.0,0.0,0.0,0.0,0.0,0.0,0.0,0.0,0.0,0.0,0.0,0.0,0.0,0.0,0.0,0.0,0.0,0.0,0.0,0.0,0.0,0.0,0.0,0.0,0.0,0.0,0.0,0.0,0.0,0.0,0.0,0.0,1.4454,1.4206,1.3997,1.3788,1.3788,1.3721,1.3594,0.0,0.0,0.0,0.0,0.0,0.0,0.0,0.0,0.0,0.0,0.0,0.0,0.0,0.0,0.0,0.0,0.0,0.0,0.0,0.0,0.0,0.0,0.0,0.0,0.0,0.0,0.0,0.0,0.0,0.0,0.0,0.0,0.0,0.0,0.0,0.0,0.0,0.0,0.0,0.0,0.0,0.0,0.0,0.0,0.0,0.0,0.0,0.0,0.0,0.0,0.0,0.0,0.0,0.0,0.0,0.0,0.0,0.0,0.0,0.0,0.0,0.0,0.0,0.0,0.0,0.0,0.0,0.0,0.0,0.0,0.0,0.0,0.0,0.0,0.0,0.0,0.0,0.0,0.0,0.0,0.0,0.0,0.0,0.0,0.0,0.0,0.0,0.0,0.0,0.0,0.0,0.0,0.0,0.0,0.0,0.0,0.0,0.0,0.0,0.0,0.0,0.0,0.0,0.0,0.0,0.0,0.0,0.0,1.5539,1.4977,1.4454,1.3918,1.3812,1.3705,0.0,0.0,0.0,0.0,0.0,0.0,0.0,0.0,0.0,0.0,0.0,0.0,0.0,0.0,0.0,0.0,0.0,0.0,0.0,0.0,0.0,0.0,0.0,0.0,0.0,0.0,0.0,0.0,0.0,0.0,0.0,0.0,0.0,0.0,0.0,0.0,0.0,0.0,0.0,0.0,0.0,0.0,0.0,0.0,0.0,0.0,0.0,0.0,0.0,0.0,0.0,0.0,0.0,0.0,0.0,0.0,0.0,0.0,0.0,0.0,0.0,0.0,0.0,0.0,0.0,0.0,0.0,0.0,0.0,0.0,0.0,0.0,0.0,0.0,0.0,0.0,0.0,0.0,0.0,0.0,0.0,0.0,0.0,0.0,0.0,0.0,0.0,0.0,0.0,0.0,0.0,0.0,0.0,0.0,0.0,0.0,0.0,0.0,0.0,0.0,0.0,0.0,0.0,0.0,0.0,0.0,0.0,0.0,0.0,1.6179,1.5906,1.5516,1.4922,1.4113,1.3813,0.0,0.0,0.0,0.0,0.0,0.0,0.0,0.0,0.0,0.0,0.0,0.0,0.0,0.0,0.0,0.0,0.0,0.0,0.0,0.0,0.0,0.0,0.0,0.0,0.0,0.0,0.0,0.0,0.0,0.0,0.0,0.0,0.0,0.0,0.0,0.0,0.0,0.0,0.0,0.0,0.0,0.0,0.0,0.0,0.0,0.0,0.0,0.0,0.0,0.0,0.0,0.0,0.0,0.0,0.0,0.0,0.0,0.0,0.0,0.0,0.0,0.0,0.0,0.0,0.0,0.0,0.0,0.0,0.0,0.0,0.0,0.0,0.0,0.0,0.0,0.0,0.0,0.0,0.0,0.0,0.0,0.0,0.0,0.0,0.0,0.0,0.0,0.0,0.0,0.0,0.0,0.0,0.0,0.0,0.0,0.0,0.0,0.0,0.0,0.0,0.0,0.0,0.0,0.0,0.0,0.0,0.0,0.0,1.6959,1.666,1.6565,1.6316,1.5915,1.4942,1.446,0.0,0.0,0.0,0.0,0.0,0.0,0.0,0.0,0.0,0.0,0.0,0.0,0.0,0.0,0.0,0.0,0.0,0.0,0.0,0.0,0.0,0.0,0.0,0.0,0.0,0.0,0.0,0.0,0.0,0.0,0.0,0.0,0.0,0.0,0.0,0.0,0.0,0.0,0.0,0.0,0.0,0.0,0.0,0.0,0.0,0.0,0.0,0.0,0.0,0.0,0.0,0.0,0.0,0.0,0.0,0.0,0.0,0.0,0.0,0.0,0.0,0.0,0.0,0.0,0.0,0.0,0.0,0.0,0.0,0.0,0.0,0.0,0.0,0.0,0.0,0.0,0.0,0.0,0.0,0.0,0.0,0.0,0.0,0.0,0.0,0.0,0.0,0.0,0.0,0.0,0.0,0.0,0.0,0.0,0.0,0.0,0.0,0.0,0.0,0.0,0.0,0.0,0.0,0.0,0.0,0.0,0.0,0.0,1.7002,1.7002,1.6931,1.6833,1.6693,1.6019,1.5453,0.0,0.0,0.0,0.0,0.0,0.0,0.0,0.0,0.0,0.0,0.0,0.0,0.0,0.0,0.0,0.0,0.0,0.0,0.0,0.0,0.0,0.0,0.0,0.0,0.0,0.0,0.0,0.0,0.0,0.0,0.0,0.0,0.0,0.0,0.0,0.0,0.0,0.0,0.0,0.0,0.0,0.0,0.0,0.0,0.0,0.0,0.0,0.0,0.0,0.0,0.0,0.0,0.0,0.0,0.0,0.0,0.0,0.0,0.0,0.0,0.0,0.0,0.0,0.0,0.0,0.0,0.0,0.0,0.0,0.0,0.0,0.0,0.0,0.0,0.0,0.0,0.0,0.0,0.0,0.0,0.0,0.0,0.0,0.0,0.0,0.0,0.0,0.0,0.0,0.0,0.0,0.0,0.0,0.0,0.0,0.0,0.0,0.0,0.0,0.0,0.0,0.0,0.0,0.0,0.0,0.0,0.0,0.0,1.6947,1.6918,1.6791,1.6718,1.6675,1.6138,1.5729,0.0,0.0,0.0,0.0,0.0,0.0,0.0,0.0,0.0,0.0,0.0,0.0,0.0,0.0,0.0,0.0,0.0,0.0,0.0,0.0,0.0,0.0,0.0,0.0,0.0,0.0,0.0,0.0,0.0,0.0,0.0,0.0,0.0,0.0,0.0,0.0,0.0,0.0,0.0,0.0,0.0,0.0,0.0,0.0,0.0,0.0,0.0,0.0,2.2596,0.0,0.0,0.0,0.0,0.0,0.0,0.0,0.0,0.0,0.0,0.0,0.0,0.0,0.0,0.0,0.0,0.0,0.0,0.0,0.0,0.0,0.0,0.0,0.0,0.0,0.0,0.0,0.0,0.0,0.0,0.0,0.0,0.0,0.0,0.0,0.0,0.0,0.0,0.0,0.0,0.0,0.0,0.0,0.0,0.0,0.0,0.0,0.0,0.0,0.0,0.0,0.0,0.0,0.0,0.0,0.0,0.0,0.0,0.0,1.6846,1.6803,1.6663,1.662,1.662,1.633,1.6137,0.0,0.0,0.0,0.0,0.0,0.0,0.0,0.0,0.0,0.0,0.0,0.0,0.0,0.0,0.0,0.0,0.0,0.0,0.0,0.0,0.0,0.0,0.0,0.0,0.0,0.0,0.0,0.0,0.0,0.0,0.0,0.0,0.0,0.0,0.0,0.0,0.0,0.0,0.0,0.0,0.0,0.0,0.0,0.0,0.0,0.0,0.0,0.0,0.0,0.0,0.0,0.0,0.0,0.0,0.0,0.0,0.0,0.0,0.0,0.0,0.0,0.0,0.0,0.0,0.0,0.0,0.0,0.0,0.0,0.0,0.0,0.0,0.0,0.0,0.0,0.0,0.0,0.0,0.0,0.0,0.0,0.0,0.0,0.0,0.0,0.0,0.0,0.0,0.0,0.0,0.0,0.0,0.0,0.0,0.0,0.0,0.0,0.0,0.0,0.0,0.0,0.0,0.0,0.0,0.0,0.0,0.0,1.729,1.6941,1.6941,1.6829,1.6785,1.6773,1.6685,1.6647,1.6647,0.0,0.0,0.0,0.0,0.0,0.0,0.0,0.0,0.0,0.0,0.0,0.0,0.0,0.0,0.0,0.0,0.0,0.0,0.0,0.0,0.0,0.0,0.0,0.0,0.0,0.0,0.0,0.0,0.0,0.0,0.0,0.0,0.0,0.0,0.0,0.0,0.0,0.0,2.088,2.1512,0.0,0.0,0.0,0.0,0.0,0.0,0.0,0.0,2.5021,0.0,0.0,0.0,0.0,0.0,0.0,0.0,0.0,0.0,0.0,0.0,0.0,0.0,0.0,0.0,0.0,0.0,0.0,0.0,0.0,0.0,0.0,0.0,0.0,0.0,0.0,0.0,0.0,0.0,0.0,0.0,0.0,0.0,0.0,0.0,0.0,0.0,0.0,0.0,0.0,0.0,0.0,0.0,0.0,0.0,0.0,0.0,0.0,0.0,0.0,0.0,0.0,0.0,0.0,0.0,0.0,1.9012,1.8455,1.8055,1.7974,1.7928,1.7928,1.7915,1.7488,1.7237,1.7212,0.0,0.0,0.0,0.0,0.0,0.0,0.0,0.0,0.0,0.0,0.0,0.0,0.0,0.0,0.0,0.0,0.0,0.0,0.0,0.0,0.0,0.0,0.0,0.0,0.0,0.0,0.0,0.0,0.0,0.0,0.0,0.0,0.0,0.0,0.0,0.0,0.0,0.0,0.0,2.3198,2.3404,0.0,0.0,0.0,0.0,0.0,0.0,0.0,0.0,2.5464,0.0,0.0,0.0,0.0,0.0,0.0,0.0,0.0,0.0,0.0,0.0,0.0,0.0,0.0,0.0,0.0,0.0,0.0,0.0,0.0,0.0,0.0,0.0,0.0,0.0,0.0,0.0,0.0,0.0,0.0,0.0,0.0,0.0,0.0,0.0,0.0,0.0,0.0,0.0,0.0,0.0,0.0,0.0,0.0,0.0,0.0,0.0,0.0,0.0,0.0,0.0,0.0,0.0,0.0,0.0,1.9534,1.8727,1.8239,1.8204,1.8204,1.8204,1.8191,1.794,1.7815,0.0,0.0,0.0,0.0,0.0,0.0,0.0,0.0,0.0,0.0,0.0,0.0,0.0,0.0,0.0,0.0,0.0,0.0,0.0,0.0,0.0,0.0,0.0,0.0,0.0,0.0,0.0,0.0,0.0,0.0,0.0,0.0,0.0,0.0,0.0,0.0,0.0,0.0,0.0,0.0,2.4013,2.4222,2.543,0.0,0.0,0.0,0.0,0.0,0.0,2.5601,2.5601,0.0,0.0,0.0,0.0,0.0,0.0,0.0,0.0,0.0,0.0,0.0,0.0,0.0,0.0,0.0,0.0,0.0,0.0,0.0,0.0,0.0,0.0,0.0,0.0,0.0,0.0,0.0,0.0,0.0,0.0,0.0,0.0,0.0,0.0,0.0,0.0,0.0,0.0,0.0,0.0,0.0,0.0,0.0,0.0,0.0,0.0,0.0,0.0,0.0,0.0,0.0,0.0,0.0,0.0,0.0,2.0216,1.9097,1.8518,1.853,1.853,1.8518,1.853,1.8417,1.838,0.0,0.0,0.0,0.0,0.0,0.0,0.0,0.0,0.0,0.0,0.0,0.0,0.0,0.0,0.0,0.0,0.0,0.0,0.0,0.0,0.0,0.0,0.0,0.0,0.0,0.0,0.0,0.0,0.0,0.0,0.0,0.0,0.0,0.0,0.0,0.0,0.0,0.0,0.0,0.0,0.0,2.4905,2.5583,2.5626,0.0,0.0,0.0,0.0,2.6166,2.6172,0.0,0.0,0.0,0.0,0.0,0.0,0.0,0.0,0.0,0.0,0.0,0.0,0.0,0.0,0.0,0.0,0.0,0.0,0.0,0.0,0.0,0.0,0.0,0.0,0.0,0.0,0.0,0.0,0.0,0.0,0.0,0.0,0.0,0.0,0.0,0.0,0.0,0.0,0.0,0.0,0.0,0.0,0.0,0.0,0.0,0.0,0.0,0.0,0.0,0.0,0.0,0.0,0.0,0.0,0.0,0.0,2.1442,2.0276,1.9623,1.9623,1.9623,1.9623,1.961,1.9183,1.8932,0.0,0.0,0.0,0.0,0.0,0.0,0.0,0.0,0.0,0.0,0.0,0.0,0.0,0.0,0.0,0.0,0.0,0.0,0.0,0.0,0.0,0.0,0.0,0.0,0.0,0.0,0.0,0.0,0.0,0.0,0.0,0.0,0.0,0.0,0.0,0.0,0.0,0.0,0.0,0.0,0.0,2.5564,2.5613,2.5671,2.5921,0.0,0.0,2.7084,2.778,2.7953,0.0,0.0,0.0,0.0,0.0,0.0,0.0,0.0,0.0,0.0,0.0,0.0,0.0,0.0,0.0,0.0,0.0,0.0,0.0,0.0,0.0,0.0,0.0,0.0,0.0,0.0,0.0,0.0,0.0,0.0,0.0,0.0,0.0,0.0,0.0,0.0,0.0,0.0,0.0,0.0,0.0,0.0,0.0,0.0,0.0,0.0,0.0,0.0,0.0,0.0,0.0,0.0,0.0,0.0,0.0,2.1342,2.1245,2.0333,1.9798,1.9798,1.9798,1.9798,1.9798,1.9585,1.9472,0.0,0.0,0.0,0.0,0.0,0.0,0.0,0.0,0.0,0.0,0.0,0.0,0.0,0.0,0.0,0.0,0.0,0.0,0.0,0.0,0.0,0.0,0.0,0.0,0.0,0.0,0.0,0.0,0.0,0.0,0.0,0.0,0.0,0.0,0.0,0.0,0.0,0.0,0.0,0.0,0.0,0.0,2.6395,2.6819,0.0,0.0,0.0,2.781,2.8207,0.0,0.0,0.0,0.0,0.0,0.0,0.0,0.0,0.0,0.0,0.0,0.0,0.0,0.0,0.0,0.0,0.0,0.0,0.0,0.0,0.0,0.0,0.0,0.0,0.0,0.0,0.0,0.0,0.0,0.0,0.0,0.0,0.0,0.0,0.0,0.0,0.0,0.0,0.0,0.0,0.0,0.0,0.0,0.0,0.0,0.0,0.0,0.0,0.0,0.0,0.0,0.0,0.0,0.0,0.0,0.0,0.0,2.0993,2.0258,1.9811,1.9798,1.9798,1.9798,1.9798,1.9798,0.0,0.0,0.0,0.0,0.0,0.0,0.0,0.0,0.0,0.0,0.0,0.0,0.0,0.0,0.0,0.0,0.0,0.0,0.0,0.0,0.0,0.0,0.0,0.0,0.0,0.0,0.0,2.5327,0.0,0.0,0.0,0.0,0.0,0.0,0.0,0.0,0.0,0.0,0.0,0.0,0.0,0.0,2.7315,2.7315,2.7822,2.832,0.0,0.0,2.8633,2.891,2.8951,2.8971,0.0,0.0,0.0,0.0,0.0,0.0,0.0,0.0,0.0,0.0,0.0,0.0,0.0,0.0,0.0,0.0,0.0,0.0,0.0,0.0,0.0,0.0,0.0,0.0,0.0,0.0,0.0,0.0,0.0,0.0,0.0,0.0,0.0,0.0,0.0,0.0,0.0,0.0,0.0,0.0,0.0,0.0,0.0,0.0,0.0,0.0,0.0,0.0,0.0,0.0,0.0,0.0,0.0,0.0,0.0,2.0993,2.0321,1.9926,1.9798,1.9798,1.9798,1.9798,1.9798,1.9798,0.0,0.0,0.0,0.0,0.0,0.0,0.0,0.0,0.0,0.0,0.0,0.0,0.0,0.0,0.0,0.0,0.0,0.0,0.0,0.0,0.0,0.0,0.0,0.0,0.0,0.0,0.0,0.0,0.0,0.0,0.0,0.0,0.0,0.0,0.0,0.0,0.0,0.0,0.0,0.0,0.0,2.8222,2.8202,2.8252,2.8594,0.0,0.0,2.98,3.0581,3.0698,3.0715,3.0726,0.0,0.0,0.0,0.0,0.0,0.0,0.0,0.0,0.0,0.0,0.0,0.0,0.0,0.0,0.0,0.0,0.0,0.0,0.0,0.0,0.0,0.0,0.0,0.0,0.0,0.0,0.0,0.0,0.0,0.0,0.0,0.0,0.0,0.0,0.0,0.0,0.0,0.0,0.0,0.0,0.0,0.0,0.0,0.0,0.0,0.0,0.0,0.0,0.0,0.0,0.0,0.0,0.0,2.1431,2.0686,2.0334,2.008,2.0067,2.008,2.0029,1.9926,1.9592,1.9396,0.0,0.0,0.0,0.0,0.0,0.0,0.0,0.0,0.0,0.0,0.0,0.0,0.0,0.0,0.0,0.0,0.0,0.0,0.0,0.0,0.0,0.0,0.0,0.0,0.0,0.0,0.0,0.0,2.748,2.767,2.7636,0.0,0.0,0.0,0.0,0.0,0.0,0.0,0.0,0.0,0.0,2.9042,2.9043,2.9489,0.0,0.0,3.0405,3.0505,3.0839,3.0917,3.0917,3.0915,3.0915,0.0,0.0,0.0,0.0,0.0,0.0,0.0,0.0,0.0,0.0,0.0,0.0,0.0,0.0,0.0,0.0,0.0,0.0,0.0,0.0,0.0,0.0,0.0,0.0,0.0,0.0,0.0,0.0,0.0,0.0,0.0,0.0,0.0,0.0,0.0,0.0,0.0,0.0,0.0,0.0,0.0,0.0,0.0,0.0,0.0,0.0,0.0,0.0,0.0,0.0,0.0,0.0,2.1492,2.0524,2.036,2.0195,1.9978,1.9978,1.9823,1.9512,1.9356,1.9081,0.0,0.0,0.0,0.0,0.0,0.0,0.0,0.0,0.0,0.0,0.0,0.0,0.0,0.0,0.0,0.0,0.0,0.0,0.0,0.0,0.0,0.0,0.0,0.0,0.0,0.0,0.0,0.0,2.8264,2.8476,2.8648,0.0,0.0,0.0,0.0,0.0,0.0,0.0,0.0,0.0,0.0,2.9876,2.99,3.041,3.0818,3.0853,3.0856,3.0878,3.0879,3.0918,3.0918,3.0918,0.0,0.0,0.0,0.0,0.0,0.0,0.0,0.0,0.0,0.0,0.0,0.0,0.0,0.0,0.0,0.0,0.0,0.0,0.0,0.0,0.0,0.0,0.0,0.0,0.0,0.0,0.0,0.0,0.0,0.0,3.0191,0.0,0.0,0.0,0.0,0.0,0.0,0.0,0.0,0.0,0.0,0.0,0.0,0.0,0.0,0.0,0.0,0.0,0.0,0.0,0.0,0.0,0.0,2.1277,2.0524,2.0511,2.0144,1.9473,1.942,1.9093,1.8429,1.8987,1.8975,1.8159,0.0,0.0,0.0,0.0,0.0,0.0,0.0,0.0,0.0,0.0,0.0,0.0,0.0,0.0,0.0,0.0,0.0,0.0,0.0,0.0,0.0,0.0,0.0,0.0,0.0,0.0,2.8054,2.8549,2.9152,0.0,0.0,0.0,0.0,0.0,0.0,0.0,0.0,0.0,0.0,3.0755,3.0774,3.0755,3.0796,3.08,3.0786,3.0797,3.082,3.0879,3.0918,3.0918,0.0,0.0,0.0,0.0,0.0,0.0,0.0,0.0,0.0,0.0,0.0,0.0,0.0,0.0,0.0,0.0,0.0,0.0,0.0,0.0,0.0,0.0,0.0,0.0,0.0,0.0,0.0,3.0247,3.0263,0.0,0.0,0.0,0.0,0.0,0.0,0.0,0.0,0.0,0.0,0.0,3.0106,2.976,0.0,0.0,0.0,0.0,0.0,0.0,0.0,0.0,0.0,0.0,0.0,0.0,2.1589,2.0699,2.0612,2.0296,1.9708,1.9656,1.9344,1.8643,1.8483,1.8061,1.7245,0.0,0.0,0.0,0.0,0.0,0.0,0.0,0.0,0.0,0.0,0.0,0.0,0.0,0.0,0.0,0.0,0.0,0.0,0.0,0.0,0.0,0.0,0.0,0.0,0.0,2.9392,0.0,0.0,0.0,0.0,0.0,0.0,0.0,0.0,0.0,0.0,0.0,3.056,3.0659,3.0735,3.079,3.0791,3.0755,3.0747,0.0,0.0,0.0,0.0,0.0,0.0,0.0,0.0,0.0,0.0,0.0,0.0,0.0,0.0,3.0918,3.0918,3.0918,3.0918,3.0918,0.0,0.0,0.0,0.0,0.0,0.0,0.0,0.0,0.0,0.0,0.0,0.0,0.0,0.0,2.9902,0.0,2.9641,0.0,0.0,0.0,0.0,0.0,0.0,0.0,0.0,3.0351,3.0335,3.0283,3.0148,3.0072,0.0,2.9496,2.9015,0.0,0.0,0.0,0.0,0.0,0.0,0.0,0.0,2.186,2.0812,2.0762,2.0347,1.9552,1.9384,1.8951,1.8201,1.7733,1.7468,1.7312,1.6899,1.6955,0.0,0.0,0.0,0.0,0.0,0.0,0.0,0.0,0.0,0.0,0.0,0.0,0.0,0.0,0.0,0.0,0.0,0.0,0.0,0.0,0.0,0.0,0.0,2.9674,0.0,0.0,0.0,0.0,0.0,0.0,0.0,0.0,0.0,3.0119,3.0287,3.0404,3.0548,3.0678,3.0764,3.0754,0.0,0.0,0.0,0.0,0.0,0.0,0.0,3.0918,3.0918,3.0918,3.0918,3.0918,3.0918,3.0918,3.0918,0.0,0.0,3.0918,3.0918,3.0918,3.0916,3.0447,3.0233,3.08,3.0469,3.0215,0.0,0.0,0.0,0.0,0.0,0.0,0.0,0.0,2.9449,2.9288,0.0,2.8931,0.0,0.0,0.0,0.0,0.0,2.9708,0.0,0.0,3.0214,3.0275,3.0302,3.0367,3.0399,3.0369,3.0056,2.9837,2.9664,2.8518,0.0,0.0,0.0,0.0,0.0,0.0,2.2109,2.0987,2.0888,2.0271,1.9093,1.8566,1.7918,1.7067,1.6807,1.7123,1.805,1.6708,1.6358,1.728,1.7124,0.0,0.0,0.0,0.0,0.0,0.0,0.0,0.0,0.0,0.0,0.0,0.0,0.0,0.0,0.0,0.0,0.0,0.0,0.0,0.0,2.8987,0.0,0.0,0.0,0.0,0.0,0.0,0.0,0.0,0.0,0.0,2.9832,2.9994,3.0112,3.0443,0.0,0.0,0.0,0.0,3.071,3.0794,3.0793,3.0806,3.0878,3.0898,3.0898,3.0898,0.0,0.0,3.0898,3.0879,3.0898,3.0918,3.0918,3.0918,3.0918,3.0918,3.0917,3.0905,3.0882,3.0903,3.0912,3.0857,3.0859,3.0221,0.0,0.0,0.0,0.0,2.9585,2.9454,2.9364,2.8879,2.8571,2.8373,2.8118,0.0,0.0,0.0,0.0,0.0,0.0,2.9139,2.9592,2.9794,2.9902,2.9959,3.0211,3.0356,3.0383,3.0249,3.0192,3.0167,2.9472,2.8542,2.7414,0.0,0.0,0.0,0.0,2.2049,2.1423,2.0835,2.0182,1.9448,1.9016,1.8081,1.6553,1.5235,1.5129,1.6167,1.4573,1.4141,1.5177,1.4313,0.0,0.0,0.0,0.0,0.0,0.0,0.0,0.0,0.0,0.0,0.0,0.0,0.0,0.0,0.0,0.0,0.0,0.0,0.0,2.7912,2.8233,2.8222,0.0,0.0,0.0,0.0,0.0,0.0,0.0,0.0,0.0,2.8972,2.9547,2.9975,0.0,0.0,3.0587,3.069,3.0668,3.0645,3.0719,3.0704,0.0,3.0759,3.0755,3.076,3.0761,3.0813,3.0842,3.0877,3.0859,3.0839,3.0891,3.0907,3.0911,3.0915,3.0912,3.0909,3.0909,3.0925,3.0919,3.0923,3.0905,3.0911,3.0639,3.0763,3.03,3.0186,3.0261,2.9891,2.9719,2.9618,2.8834,2.844,2.8242,2.767,2.7386,2.7334,2.7453,0.0,0.0,0.0,2.8918,2.9563,2.9931,3.0147,3.0203,3.0653,3.0983,3.1161,3.1178,3.1283,3.1373,3.0918,3.0207,2.9279,0.0,0.0,2.4326,2.3301,2.2239,2.1251,2.0723,1.9876,1.865,1.7643,1.6444,1.4896,1.4013,1.3835,1.4341,1.3039,1.2316,1.2346,1.0977,0.9845,0.0,0.0,0.0,0.0,0.0,0.0,0.0,0.0,0.0,0.0,0.0,2.7872,2.6899,0.0,0.0,0.0,2.6098,2.6022,2.5613,2.6258,0.0,0.0,0.0,0.0,0.0,0.0,0.0,2.7517,2.789,2.8246,2.8402,2.9142,2.972,2.9913,3.0248,3.051,3.0637,0.0,3.0586,3.0653,3.0629,3.0607,3.0653,3.0661,3.0671,3.0704,3.073,3.0773,3.0818,3.0746,3.0762,3.0808,3.0804,3.0843,3.0889,3.0923,3.0919,3.0907,3.0923,3.0899,3.086,3.088,3.0921,3.1536,3.1654,3.0595,3.0527,3.113,3.055,3.029,3.0181,2.9076,2.8614,2.8434,2.7437,2.7025,2.7128,2.7316,0.0,2.8387,2.8513,2.8921,2.9647,3.0313,3.064,3.0668,3.1357,3.1882,3.2172,3.2423,3.2621,3.2789,3.246,3.2057,3.1532,2.8959,2.6595,2.4532,2.393,2.2709,2.074,2.0653,1.9433,1.7056,1.5323,1.3768,1.2549,1.2789,1.2715,1.2237,1.1485,1.0356,0.8801,0.7196,0.5632,0.4033,0.0,0.0,0.0,0.0,0.0,0.0,0.0,0.0,0.0,0.0,0.0,0.0,0.0,0.0,0.0,2.2353,0.0,2.2888,2.3509,0.0,0.0,0.0,2.5326,2.6152,2.6539,2.6923,2.7378,0.0,0.0,2.7974,2.8706,2.9379,2.9788,3.0151,3.0428,3.0579,3.052,3.0519,3.0588,3.0577,3.0577,3.0577,3.0593,3.0627,3.0684,3.0709,3.0688,3.0685,3.0657,3.0628,3.0679,3.0704,3.0732,3.0833,3.0869,3.0872,3.0869,3.0894,3.088,3.0821,3.0841,3.0899,3.1526,3.2166,3.1458,3.1094,3.0912,3.0057,2.9486,2.9042,2.8315,2.7688,2.7073,2.6792,2.6651,2.6536,2.6564,2.6862,2.7365,2.7405,2.7653,2.8068,2.8835,2.921,2.9244,3.0458,3.1109,3.1254,3.1707,3.2045,3.228,3.2198,3.2174,3.2205,3.1268,2.9357,2.6575,2.5773,2.4163,2.1693,2.11,1.9377,1.6486,1.4919,1.3,1.0789,0.9597,0.8507,0.7583,0.6293,0.5389,0.488,0.2755,0.1216,0.0639,-0.2398,0.0,0.0,0.0,0.0,0.0,0.0,0.0,0.0,0.0,1.7413,1.8493,0.0,1.9014,0.0,2.1004,2.1288,2.1794,2.2149,0.0,0.0,2.3784,2.3851,2.3233,2.4413,2.5277,2.5196,2.6009,2.6771,2.7072,2.7905,2.868,2.9285,2.9826,3.0228,3.0402,3.0444,3.0455,3.0488,3.0518,3.0499,3.0466,3.0491,3.0552,3.0626,3.0617,3.0626,3.0598,3.0614,3.0616,3.0625,3.062,3.0626,3.0684,3.0664,3.0664,3.067,3.0743,3.0821,3.0801,3.0821,3.0821,3.2311,3.2367,3.132,3.0855,3.0742,3.0122,2.953,2.8893,2.8067,2.7527,2.7195,2.6555,2.6071,2.5725,2.5725,2.6139,2.6794,2.6887,2.7285,2.7965,2.8641,2.893,2.8953,2.9917,3.0592,3.1076,3.1634,3.1982,3.22,3.2814,3.2964,3.2649,3.2824,3.1724,2.9372,2.7479,2.5288,2.2761,2.0115,1.7885,1.5936,1.3099,1.0738,0.9002,0.7131,0.572,0.4678,0.298,0.1487,0.0269,-0.2398,-0.4394,-0.5484,-0.9583,-1.2061,0.0,0.0,0.0,0.0,0.0,0.0,0.0,0.0,0.0,0.0,0.0,1.3431,1.551,1.6411,1.7069,1.7624,1.9409,2.0591,2.0796,2.1035,2.1407,2.1949,2.2965,2.3825,2.4356,2.5308,2.6097,2.6505,2.7385,2.8172,2.8704,2.9206,2.9708,3.0128,3.0202,3.0196,3.0235,3.0222,3.0254,3.026,3.033,3.0386,3.0486,3.0497,3.0513,3.0529,3.051,3.0516,3.0568,3.0548,3.0554,3.0579,3.0613,3.0613,3.0626,3.0656,3.072,3.0758,3.0791,3.0801,3.2945,3.2108,3.05,3.0012,3.0277,3.0079,2.9643,2.9053,2.8051,2.764,2.7625,2.6361,2.5481,2.5007,2.5007,2.5481,2.6357,2.6486,2.707,2.8079,2.8576,2.8837,2.8898,2.9415,3.012,3.1062,3.155,3.1878,3.2091,3.3301,3.3449,3.2623,3.3388,3.3043,3.1444,2.8935,2.6205,2.3272,1.8213,1.5359,1.4745,1.0517,0.7747,0.6785,0.4731,0.3149,0.2082,0.0142,-0.1977,-0.4331,-0.7391,-0.989,-1.1715,-1.7011,-2.0169,0.0,-1.6377,0.0,0.0,0.0,0.0,0.0,0.0,0.0,0.0,0.6711,0.7305,0.9023,1.0739,1.185,1.2012,1.5644,1.7991,1.7928,1.7762,1.86,2.0852,2.143,2.2233,2.377,2.4674,2.541,2.6253,2.7169,2.7906,2.8443,2.8923,2.944,2.9923,2.9983,2.9931,2.9896,2.9918,2.9977,3.0066,3.0155,3.0222,3.0321,3.0375,3.0386,3.0406,3.0402,3.0433,3.0472,3.0492,3.0501,3.0576,3.0556,3.0576,3.0568,3.0571,3.0626,3.0667,3.0724,3.0768,3.0989,3.0874,2.9075,2.8276,2.8167,2.815,2.8117,2.8084,2.767,2.7027,2.6283,2.5508,2.5133,2.5007,2.5007,2.5119,2.5329,2.5315,2.5481,2.5686,2.6285,2.6777,2.73,2.8201,2.8997,2.9744,3.0096,3.0403,3.0751,3.1078,3.1257,3.1274,3.1599,3.0584,2.8387,0.0,0.0,0.0,1.5347,1.1779,1.0569,0.7776,0.4986,0.2524,0.0578,0.0,-0.3231,-0.493,-0.6346,-0.7438,-1.0128,0.0,0.0,0.0,0.0,0.0,0.0,0.0,0.0,0.0,0.0,0.0,-1.1002,-0.5238,0.1041,0.411,0.6277,0.7756,0.7906,0.7711,0.729,1.0919,1.3779,1.4734,1.5629,1.6511,1.7257,1.8055,1.9267,2.1191,2.2583,2.4252,2.6093,2.7394,2.8334,2.9079,2.9733,3.0048,3.034,3.006,2.9878,2.9886,3.0002,2.994,2.9934,3.0098,3.0247,3.0163,3.0292,3.0398,3.0429,3.0429,3.0417,3.0483,3.0414,3.0463,3.0497,3.0439,3.0546,3.0439,3.0511,3.0535,3.06,3.0626,3.0633,3.0509,0.0,2.8593,2.7809,0.0,2.7288,2.6958,2.6791,2.6576,2.5877,2.4838,2.4624,2.4394,2.4047,2.4047,2.4279,2.458,2.458,2.4738,2.5007,2.5287,2.5604,2.5943,2.674,2.7305,2.7689,2.8311,2.8681,2.8756,2.9365,2.9596,2.9425,3.023,2.9397,2.6925,2.2257,1.9715,1.9408,1.0965,0.6439,0.6037,0.479,0.264,-0.0378,-0.1575,0.0,0.0,0.0,0.0,0.0,0.0,0.0,0.0,0.0,0.0,-2.1933,-2.4155,-2.4528,-2.2633,-2.3161,-2.1633,-1.7028,-1.344,-0.907,-0.356,-0.1419,0.0469,0.2297,0.3185,0.3777,0.3987,0.7381,1.0166,1.143,1.3008,1.4303,1.5302,1.6246,1.7427,1.9188,2.0787,2.2437,2.4221,2.5545,2.6809,2.8085,2.8779,2.9433,3.0178,3.0403,3.0504,3.0669,3.0789,3.0866,3.0941,3.0977,3.0873,3.0636,3.0696,3.0814,3.0841,3.0964,3.116,3.1525,3.1641,3.1641,3.1641,3.1641,3.1641,3.1641,3.1669,3.1706,3.169,3.1133,3.0613,3.0191,2.9794,2.8254,2.757,2.7379,2.6633,2.6003,2.5605,0.0,0.0,0.0,2.4123,2.3837,2.3304,2.3304,2.3596,2.4136,2.4033,2.4275,2.4713,2.4664,2.4681,2.4794,2.5258,2.5536,2.5711,2.6497,2.6784,2.6628,2.7507,2.7656,2.724,2.8045,2.7801,2.5681,1.3151,0.8928,1.3346,0.4794,0.0343,0.0927,0.0828,-0.0462,-0.3062,-0.371,-0.4807,-0.6339,-0.876,-1.0644,-1.1838,-1.4395,-1.6332,-1.7552,-1.9348,-2.1054,-2.26,-2.4569,-2.4834,-2.2999,-2.4718,-2.3506,-1.8053,-1.4612,-1.1204,-0.7818,-0.695,-0.5758,-0.3721,-0.1714,-0.0,0.122,0.4227,0.6561,0.772,0.9748,1.1681,1.2975,1.4191,1.5432,1.7358,1.8902,2.0523,2.2191,2.3631,2.5011,2.6539,2.7761,2.8712,2.9998,3.074,3.0998,3.1082,3.1231,3.1626,3.1793,3.1867,3.1723,3.1186,3.1292,3.1426,3.1489,3.1647,3.2037,3.2483,3.276,3.2675,3.2708,3.2584,3.2779,3.2779,3.276,3.276,3.2672,3.1799,3.1012,2.8767,2.7996,2.7124,2.6262,2.5431,2.5444,2.5217,2.4771,2.5038,2.5049,2.4924,2.4391,2.4159,2.403,2.403,2.4094,2.4122,2.3753,2.3604,2.3704,2.3242,2.3305,2.3813,2.3872,2.4253,2.484,2.4925,2.4925,2.4981,2.4496,2.4146,2.3949,2.3045,2.3522,2.3908,0.7326,-0.205,-0.2448,-0.4857,-0.601,-0.5755,-0.5905,-0.6073,-0.6481,-0.8182,-0.915,-0.9326,-1.139,-1.2498,-1.2799,-1.5511,-1.7163,-1.76,-2.0178,-2.2212,-2.339,-2.3832,-2.4477,-2.5541,-2.6627,-2.5913,-2.3012,-2.1667,-1.8158,-1.1356,-0.8875,-0.7579,-0.692,-0.5377,-0.3289,-0.065,0.1364,0.2787,0.3282,0.5627,0.7446,0.8005,0.9867,1.2333,1.5191,1.6821,1.8881,2.1484,2.328,2.4648,2.6376,2.7612,2.9368,3.0445,3.1013,3.0797,3.0614,3.0885,3.117,3.1437,3.1649,3.1831,3.179,3.184,3.1959,3.2014,3.2051,3.2218,3.2349,3.2482,3.2409,3.2353,3.2222,3.2445,3.2538,3.2574,3.2517,3.2626,3.2311,3.2176,2.8016,2.7243,2.6544,2.5993,2.5398,2.4619,2.3931,2.3385,2.3502,2.3887,2.4304,2.4054,2.3923,2.3857,2.3435,2.3501,2.3923,2.3048,2.3019,2.3559,2.3192,2.2995,2.2995,2.3352,2.3168,2.27,2.3231,2.3263,2.2987,2.2698,2.2359,2.1628,1.9308,1.9458,2.0906,0.4625,-0.6333,-1.0546,-1.2869,-1.4062,-1.4085,-1.331,-1.354,-1.4891,-1.5251,-1.5825,-1.6773,-1.7572,-1.8209,-1.8741,-2.0077,-2.0793,-2.0785,-2.1701,-2.2432,-2.2865,-2.3541,-2.4366,-2.5315,-2.5392,-2.5245,-2.487,-2.2036,-1.909,-1.5912,-1.3508,-1.1686,-1.0318,-0.8384,-0.646,-0.4694,-0.1858,0.0074,0.0599,0.3643,0.5715,0.6309,0.7847,0.9996,1.2607,1.4425,1.6291,1.8575,2.0637,2.2471,2.4144,2.6294,2.8264,2.9271,2.9782,3.0316,3.0938,3.1524,3.1805,3.1817,3.2144,3.2201,3.1855,3.1923,3.2112,3.2296,3.2425,3.2799,3.341,3.3505,3.3505,3.3466,3.3505,3.3543,3.3543,3.3582,3.362,3.3658,3.3696,3.3446,2.7275,2.6246,2.5378,2.5133,2.504,2.3734,2.2861,2.2424,2.2253,2.2593,2.3225,2.3372,2.3372,2.3304,2.2661,2.273,2.312,2.2159,2.2172,2.3026,2.2784,2.2389,2.2184,2.2603,2.2116,2.1094,2.174,2.1839,2.1365,2.129,2.0643,1.9162,1.6294,1.5951,1.794,0.3332,-0.8099,-1.5621,-1.8682,-2.0273,-2.0677,-1.9378,-1.9698,-2.1533,-2.1078,-2.1362,-2.262,-2.2713,-2.303,-2.3766,-2.4125,-2.4241,-2.4065,-2.3867,-2.3681,-2.356,-2.4416,-2.5171,-2.5425,-2.4881,-2.4979,-2.5994,-2.2381,-1.9951,-1.9641,-1.8145,-1.5705,-1.2963,-1.0745,-0.918,-0.7576,-0.5061,-0.2701,-0.1705,0.1232,0.322,0.4248,0.5848,0.766,0.9558,1.1633,1.3588,1.5225,1.7408,1.9779,2.2209,2.4559,2.636,2.716,2.8092,2.921,3.0379,3.1493,3.2087,3.2193,3.2474,3.2389,3.1845,3.2032,3.2299,3.2537,3.2753,3.3136,3.3878,3.4218,3.4143,3.43,3.4386,3.433,3.4274,3.4298,3.4496,3.448,3.4519,3.4395,2.6054,2.4435,2.2855,2.2589,2.3117,2.2285,2.2295,2.2681,2.2145,2.1866,2.1955,2.2275,2.2391,2.2413,2.2137,2.2041,2.2083,2.1345,2.1157,2.1405,2.0871,2.0691,2.0907,2.0945,2.0832,2.066,2.079,2.0726,2.054,1.9502,1.8091,1.6183,1.4227,1.3257,1.2472,0.2812,-0.8386,-1.9749,-2.0971,-2.194,-2.2893,-2.2564,-2.2335,-2.2397,-2.3393,-2.3561,-2.3661,-2.364,-2.4017,-2.4151,-2.5429,-2.5943,-2.5855,-2.6857,-2.7465,-2.7209,-2.7348,-2.7587,-2.7809,-2.7473,-2.7047,-2.6794,-2.5728,-2.3927,-2.1667,-2.1136,-1.8651,-1.4246,-1.2781,-1.115,-0.8232,-0.7255,-0.6266,-0.4894,-0.2945,-0.1553,-0.0155,0.2165,0.4469,0.5442,0.8646,1.1243,1.3006,1.4998,1.7733,2.1278,2.2812,2.4281,2.5582,2.6292,2.6745,2.7695,2.9507,3.113,3.1391,3.1952,3.209,3.2103,3.2456,3.2577,3.2629,3.2714,3.2906,3.3229,3.3364,3.3524,3.3552,3.3643,3.3884,3.3917,3.3993,3.4087,3.4203,3.4227,3.4143,2.3564,2.2328,2.1275,2.0893,2.1125,2.0827,2.0605,2.0391,2.0079,1.9932,2.0001,2.0148,2.075,2.1735,2.1038,2.1018,2.1359,2.008,2.0098,2.1008,2.0511,2.0227,2.0197,1.9961,1.9543,1.8948,1.8976,1.876,1.8101,1.6702,1.5964,1.5699,1.2599,0.7415,0.0839,-0.1722,-0.8096,-1.8556,-2.0761,-2.2983,-2.5623,-2.7509,-2.8754,-2.9418,-3.009,-3.0449,-3.0272,-3.0103,-3.0001,-3.0113,-3.0409,-3.0045,-2.9026,-2.9438,-2.9173,-2.814,-2.8253,-2.8522,-2.8764,-2.8318,-2.7894,-2.7633,-2.6025,-2.4527,-2.3541,-2.1774,-1.935,-1.6856,-1.4592,-1.2462,-1.0416,-0.9025,-0.7681,-0.6374,-0.5289,-0.3816,-0.1248,0.0156,0.1938,0.4481,0.6775,0.891,1.0917,1.3388,1.63,1.921,2.05,2.1655,2.3107,2.4006,2.4722,2.5446,2.7259,2.8955,2.9943,3.0767,3.1198,3.1405,3.1534,3.1681,3.2144,3.2213,3.2332,3.2713,3.2858,3.2952,3.3027,3.3075,3.3225,3.3266,3.3296,3.3364,3.3478,3.3478,3.3579,2.1409,2.071,1.9975,1.9693,1.9659,1.9432,1.9134,1.8674,1.8434,1.8362,1.8362,1.8282,1.8975,1.9953,1.9571,1.964,1.9915,1.8707,1.8707,1.9818,1.9247,1.9049,1.9018,1.8603,1.8073,1.7638,1.756,1.7208,1.6451,1.4977,1.4494,1.4513,1.1286,0.3313,-0.7138,-0.5588,-0.8743,-1.7382,-2.058,-2.3797,-2.7648,-3.0802,-3.29,-3.4027,-3.466,-3.4996,-3.5155,-3.4579,-3.4311,-3.4423,-3.4046,-3.3277,-3.2133,-3.1835,-3.107,-2.978,-2.9695,-2.9861,-3.0029,-2.9355,-2.8786,-2.845,-2.671,-2.5408,-2.4649,-2.278,-2.0635,-1.8624,-1.6249,-1.4166,-1.2517,-1.0777,-0.9054,-0.76,-0.7153,-0.5597,-0.2496,-0.1718,-0.0,0.3265,0.5029,0.6931,0.9456,1.2337,1.5039,1.7067,1.7967,1.8909,2.0381,2.1554,2.2416,2.3341,2.4929,2.6623,2.8372,2.9399,2.9929,3.026,3.0352,3.0704,3.1215,3.1346,3.1476,3.1737,3.2144,3.2433,3.2466,3.2533,3.2713,3.2809,3.2872,3.2916,3.31,3.3039,3.3021,2.0077,1.9747,1.9063,1.8807,1.9167,1.8407,1.8247,1.8292,1.7747,1.7432,1.735,1.7115,1.7115,1.735,1.7594,1.7844,1.7764,1.7188,1.7025,1.735,1.6675,1.6601,1.7033,1.6421,1.6413,1.6627,1.6522,1.6291,1.5754,1.5005,1.3902,1.2246,1.0201,0.3406,-0.6766,-0.7364,-1.0902,-1.7959,-2.0775,-2.4211,-2.8715,-3.126,-3.2873,-3.3924,-3.4794,-3.5219,-3.5098,-3.4944,-3.4851,-3.4851,-3.4651,-3.4438,-3.429,-3.4039,-3.358,-3.3112,-3.2498,-3.212,-3.1898,-3.094,-3.0106,-2.9655,-2.8724,-2.761,-2.5507,-2.459,-2.2611,-1.8923,-1.7726,-1.6173,-1.4283,-1.2565,-1.1093,-0.9513,-0.8974,-0.7291,-0.4678,-0.3354,-0.1558,0.1249,0.327,0.5647,0.9251,1.1636,1.3439,1.501,1.5738,1.6582,1.8322,1.9131,2.0017,2.1315,2.2815,2.4469,2.6497,2.7765,2.8498,2.8902,2.9233,2.9664,3.0058,3.0344,3.051,3.0754,3.1215,3.1591,3.1826,3.2074,3.2382,3.2565,3.2681,3.2759,3.2695,3.2916,3.2836,1.7017,1.6569,1.6265,1.6437,1.6911,1.669,1.6429,1.6316,1.5996,1.5584,1.5245,1.4816,1.5162,1.6116,1.5779,1.6116,1.6976,1.6648,1.6558,1.655,1.6214,1.5869,1.5433,1.4844,1.433,1.4072,1.3464,1.2566,1.173,1.1032,0.9991,0.815,0.5832,0.0417,-0.6075,-0.7683,-1.0998,-1.6848,-2.0014,-2.3953,-2.8579,-3.1112,-3.2976,-3.4285,-3.4963,-3.5277,-3.5232,-3.5126,-3.5094,-3.5089,-3.5019,-3.4963,-3.4908,-3.4502,-3.4099,-3.3815,-3.3243,-3.2648,-3.2022,-3.1353,-3.0501,-2.9422,-2.8701,-2.7689,-2.6062,-2.4673,-2.2937,-2.0911,-1.8777,-1.725,-1.6018,-1.3628,-1.1254,-1.0121,-0.8912,-0.7536,-0.5455,-0.4139,-0.2501,0.0156,0.2652,0.5286,0.7331,0.9606,1.1556,1.323,1.4132,1.5138,1.6253,1.7241,1.8235,1.8965,2.0359,2.1897,2.2573,2.5162,2.6748,2.737,2.7862,2.8262,2.8669,2.9355,2.9636,2.9821,3.027,3.0744,3.1004,3.1401,3.1737,3.188,3.2022,3.2213,3.2196,3.2196,3.2179,1.4928,1.4518,1.4343,1.4427,1.4678,1.4671,1.4427,1.4085,1.4001,1.3749,1.3315,1.3056,1.349,1.426,1.3931,1.4357,1.5553,1.5553,1.547,1.5379,1.4789,1.4183,1.3665,1.2996,1.248,1.2128,1.1353,1.0322,0.9191,0.8404,0.7208,0.5475,0.2687,-0.1711,-0.6885,-0.9567,-1.2741,-1.6711,-2.068,-2.4801,-2.8496,-3.1133,-3.3104,-3.4355,-3.4908,-3.5147,-3.5216,-3.5145,-3.5076,-3.5,-3.4982,-3.4889,-3.4735,-3.4357,-3.3968,-3.3643,-3.2929,-3.2279,-3.1578,-3.0954,-3.0152,-2.9196,-2.8209,-2.7136,-2.5983,-2.4262,-2.2807,-2.142,-1.9564,-1.7988,-1.7023,-1.4625,-1.2265,-1.1149,-0.989,-0.8295,-0.6454,-0.5303,-0.3357,-0.0625,0.1874,0.4044,0.5726,0.7639,0.9686,1.1717,1.2705,1.344,1.4593,1.5781,1.6807,1.7201,1.8798,1.9911,2.071,2.2394,2.4343,2.5149,2.6107,2.6645,2.7335,2.8054,2.8592,2.8869,2.9307,2.9811,3.0285,3.069,3.0908,3.0988,3.1261,3.1493,3.1452,3.1355,3.1414,1.3898,1.373,1.3464,1.2971,1.2729,1.2723,1.2395,1.2151,1.2066,1.1986,1.1901,1.1895,1.1895,1.2066,1.2072,1.2589,1.3353,1.3522,1.3607,1.3529,1.2083,1.1569,1.1729,1.088,1.0621,1.0945,1.0844,1.0134,0.874,0.7428,0.6011,0.3978,0.1503,-0.2798,-0.9338,-1.2688,-1.5758,-1.816,-2.2457,-2.6374,-2.8838,-3.122,-3.3068,-3.4195,-3.452,-3.4727,-3.5011,-3.4907,-3.4793,-3.4632,-3.4502,-3.4245,-3.3993,-3.3721,-3.346,-3.2934,-3.1881,-3.1202,-3.0892,-2.9897,-2.9316,-2.8779,-2.7735,-2.6596,-2.5466,-2.4032,-2.2457,-2.1003,-1.9541,-1.823,-1.7423,-1.6,-1.4363,-1.3077,-1.1755,-1.0323,-0.8433,-0.7061,-0.4974,-0.1406,0.0704,0.2181,0.411,0.596,0.7947,1.0082,1.1224,1.197,1.3448,1.4593,1.5587,1.654,1.7561,1.8449,1.9058,1.9781,2.1401,2.2827,2.3979,2.4815,2.5628,2.6361,2.688,2.719,2.7959,2.8482,2.9207,2.9653,3.0175,3.0344,3.0608,3.0868,3.0965,3.0965,3.0908,1.1643,1.1214,1.1133,1.1219,1.1483,1.1483,1.1219,1.0783,1.0611,1.0356,1.0111,0.9589,0.9923,1.0783,1.0697,1.0956,1.1552,1.1214,1.1558,1.2419,1.1391,1.0529,1.0188,0.9584,0.8886,0.8089,0.8002,0.7291,0.6051,0.5435,0.3829,0.1157,-0.08,-0.3888,-0.8166,-1.2276,-1.5474,-1.8038,-2.21,-2.5791,-2.8686,-3.0514,-3.2072,-3.3408,-3.3621,-3.3703,-3.3821,-3.4218,-3.4508,-3.4508,-3.4274,-3.3901,-3.3451,-3.3056,-3.2773,-3.2398,-3.1556,-3.0757,-3.027,-2.9636,-2.8857,-2.8128,-2.7449,-2.6477,-2.5107,-2.3942,-2.2651,-2.1342,-2.0031,-1.8854,-1.7794,-1.6471,-1.4925,-1.3353,-1.2311,-1.0908,-0.8898,-0.6912,-0.4753,-0.2659,-0.0548,0.0939,0.1871,0.3728,0.6506,0.8491,0.9943,1.1304,1.2204,1.3382,1.425,1.4996,1.5992,1.7129,1.7813,1.8546,1.9738,2.1214,2.236,2.3441,2.4187,2.4856,2.5273,2.5859,2.6599,2.7294,2.8033,2.867,2.9223,2.9669,2.987,3.0185,3.0608,3.0567,3.0302,0.9951,0.9607,0.9345,0.9428,0.9854,0.9941,0.9763,0.941,0.9318,0.9069,0.8732,0.8292,0.8632,0.9405,0.9323,0.9676,1.0371,0.9235,0.9662,1.0966,1.0188,0.9318,0.8798,0.8185,0.7485,0.652,0.6346,0.5544,0.4117,0.3758,0.2145,-0.0803,-0.2315,-0.4789,-0.8222,-1.1701,-1.4919,-1.7987,-2.1647,-2.5127,-2.7748,-2.9554,-3.1022,-3.2275,-3.2513,-3.2524,-3.261,-3.3045,-3.3451,-3.3736,-3.355,-3.3096,-3.2585,-3.2155,-3.1865,-3.1522,-3.0909,-3.0168,-2.9592,-2.9118,-2.848,-2.7399,-2.6672,-2.5739,-2.4416,-2.331,-2.1942,-2.0812,-1.9617,-1.8499,-1.7151,-1.6105,-1.4704,-1.3266,-1.2171,-1.0679,-0.8742,-0.6923,-0.4761,-0.2815,-0.0784,-0.0,0.0782,0.2418,0.5126,0.6812,0.8727,1.0335,1.1162,1.2498,1.3295,1.4091,1.5242,1.6097,1.6673,1.7482,1.8287,1.9629,2.098,2.2065,2.305,2.3735,2.4288,2.4912,2.5616,2.6222,2.6916,2.7705,2.8338,2.8685,2.9055,2.9207,2.9448,2.9508,2.9374,0.8823,0.8823,0.8204,0.8028,0.8116,0.8288,0.8288,0.8028,0.8113,0.8113,0.794,0.7852,0.7852,0.7852,0.8028,0.856,0.9192,0.8113,0.7841,0.8552,0.8201,0.7757,0.7489,0.6959,0.6517,0.608,0.5899,0.5006,0.3669,0.34,0.125,-0.1607,-0.2857,-0.525,-0.8913,-1.1697,-1.4474,-1.7779,-2.143,-2.4471,-2.6722,-2.8512,-3.0053,-3.1316,-3.1428,-3.1473,-3.1526,-3.1625,-3.1969,-3.261,-3.2409,-3.1952,-3.145,-3.1079,-3.0858,-3.0623,-2.9892,-2.9287,-2.8795,-2.8367,-2.763,-2.6544,-2.5466,-2.4249,-2.3462,-2.193,-2.0504,-1.9444,-1.8469,-1.7326,-1.5983,-1.5059,-1.3917,-1.2551,-1.1533,-1.0034,-0.7753,-0.7173,-0.5544,-0.2581,-0.0783,-0.0,-0.0,0.1799,0.3505,0.5508,0.7427,0.8964,1.0335,1.1607,1.2792,1.3738,1.4601,1.5392,1.6105,1.689,1.7755,1.8736,1.9966,2.0951,2.2063,2.2834,2.3408,2.404,2.4727,2.5287,2.5903,2.6753,2.7384,2.7883,2.8079,2.8094,2.8336,2.8607,2.8795,0.8204,0.8376,0.8028,0.7944,0.7944,0.7944,0.794,0.7856,0.7768,0.7672,0.758,0.7408,0.7231,0.7146,0.7231,0.7408,0.7499,0.7146,0.6786,0.6871,0.6871,0.6786,0.6694,0.652,0.6163,0.5811,0.5633,0.483,0.3492,0.3671,0.1966,-0.1252,-0.2858,-0.5338,-0.8661,-1.1299,-1.4181,-1.7347,-2.1092,-2.4067,-2.6112,-2.8169,-2.9717,-3.06,-3.0699,-3.0692,-3.0758,-3.0749,-3.0965,-3.1428,-3.1391,-3.1125,-3.0704,-3.0336,-2.9956,-2.9504,-2.9073,-2.8352,-2.76,-2.7312,-2.6611,-2.5398,-2.4587,-2.3696,-2.2213,-2.1106,-1.9846,-1.866,-1.759,-1.6341,-1.5076,-1.3996,-1.2604,-1.0777,-1.0357,-0.9679,-0.838,-0.7787,-0.6637,-0.4066,-0.1565,-0.0,-0.0,0.0783,0.203,0.4196,0.6353,0.8201,0.9427,1.0714,1.1903,1.2858,1.3795,1.4736,1.5604,1.6394,1.7226,1.8075,1.9058,1.9922,2.1175,2.2273,2.2798,2.3314,2.4111,2.4741,2.5217,2.5837,2.6428,2.7174,2.7276,2.7464,2.8046,2.8384,2.8384,0.7768,0.7852,0.7672,0.7584,0.7588,0.7584,0.7499,0.7415,0.7326,0.7143,0.7051,0.6871,0.67,0.6612,0.6789,0.6789,0.6707,0.6529,0.6257,0.5899,0.5808,0.5988,0.6077,0.5988,0.5722,0.5544,0.5097,0.4295,0.3405,0.3583,0.1878,-0.0626,-0.2321,-0.4712,-0.8063,-1.0706,-1.3594,-1.6647,-2.0052,-2.2844,-2.486,-2.6973,-2.8227,-2.8967,-2.9225,-2.9348,-2.9059,-2.8779,-2.9141,-3.0136,-3.0476,-3.0227,-2.9701,-2.9406,-2.898,-2.834,-2.7984,-2.7419,-2.6477,-2.6212,-2.5604,-2.4443,-2.3677,-2.2578,-2.1232,-2.0019,-1.8572,-1.7375,-1.6341,-1.5147,-1.3795,-1.2551,-1.1001,-0.9523,-0.916,-0.8856,-0.8084,-0.7322,-0.6325,-0.4535,-0.2662,-0.0549,0.0471,0.0862,0.2034,0.3822,0.5752,0.7141,0.83,0.9658,1.087,1.1749,1.2625,1.3491,1.4585,1.5534,1.6594,1.7522,1.8736,1.9475,2.0462,2.1726,2.2285,2.2798,2.3492,2.4137,2.4667,2.5258,2.6028,2.6563,2.6721,2.6997,2.7509,2.8149,2.8134,0.7415,0.7415,0.7139,0.7051,0.7054,0.7051,0.6966,0.6789,0.6792,0.6612,0.6432,0.6432,0.6343,0.6343,0.6343,0.6438,0.6539,0.6263,0.5813,0.5458,0.5277,0.5366,0.5813,0.5369,0.5188,0.5191,0.4387,0.376,0.3315,0.3045,0.17,-0.0268,-0.1428,-0.3999,-0.7435,-0.9943,-1.2568,-1.5554,-1.8423,-2.0941,-2.2971,-2.5039,-2.6376,-2.7011,-2.759,-2.7575,-2.7107,-2.6755,-2.722,-2.9329,-2.9435,-2.8903,-2.8273,-2.824,-2.7803,-2.7107,-2.6836,-2.6328,-2.5356,-2.5024,-2.4517,-2.3348,-2.225,-2.1244,-2.0182,-1.8716,-1.7307,-1.6219,-1.5005,-1.3787,-1.2345,-1.0807,-0.9599,-0.8546,-0.8169,-0.771,-0.7169,-0.624,-0.5312,-0.4618,-0.3446,-0.1254,0.0706,0.2356,0.3139,0.407,0.5693,0.6692,0.7617,0.8604,0.9669,1.0507,1.1304,1.2171,1.3418,1.4593,1.5799,1.6904,1.8469,1.9486,2.0204,2.1198,2.1788,2.2457,2.3327,2.3859,2.415,2.4838,2.5756,2.6218,2.6472,2.665,2.6948,2.7669,2.797,0.7061,0.7143,0.6697,0.6517,0.652,0.652,0.652,0.652,0.652,0.6346,0.6169,0.6171,0.6083,0.5908,0.5899,0.5902,0.5913,0.5816,0.5636,0.5371,0.5099,0.5099,0.5191,0.4926,0.4924,0.4835,0.4295,0.3582,0.3136,0.2957,0.2419,0.0448,-0.0894,-0.3383,-0.7727,-0.8713,-1.0661,-1.4065,-1.6819,-1.8961,-2.0905,-2.301,-2.4581,-2.5408,-2.6097,-2.6352,-2.6299,-2.6179,-2.6376,-2.674,-2.6828,-2.6645,-2.6718,-2.6718,-2.6352,-2.5941,-2.5793,-2.5301,-2.4315,-2.3605,-2.2952,-2.1978,-2.0974,-1.9868,-1.9023,-1.7784,-1.6498,-1.5392,-1.4091,-1.2638,-1.1099,-0.9906,-0.8917,-0.7999,-0.708,-0.6314,-0.5925,-0.5619,-0.5154,-0.4217,-0.2734,-0.0939,0.0628,0.2512,0.3532,0.455,0.5479,0.6398,0.7088,0.7698,0.8537,0.9453,1.0346,1.1286,1.2698,1.4019,1.5446,1.6706,1.821,1.9354,2.0063,2.0996,2.1726,2.2457,2.328,2.3682,2.4034,2.4951,2.5988,2.6165,2.6329,2.6662,2.7035,2.7592,2.8091,0.6792,0.6697,0.652,0.6428,0.6432,0.6343,0.6257,0.6254,0.608,0.5994,0.5908,0.5908,0.5819,0.5733,0.5638,0.5549,0.546,0.5282,0.5193,0.5015,0.4835,0.4743,0.4835,0.4659,0.4656,0.4656,0.3851,0.3224,0.2957,0.2599,0.1883,0.0717,-0.0268,-0.2942,-0.6832,-0.7811,-1.0043,-1.2909,-1.5397,-1.731,-1.8796,-2.1051,-2.2883,-2.3772,-2.4169,-2.4182,-2.4138,-2.3864,-2.3748,-2.3748,-2.3722,-2.441,-2.5588,-2.5711,-2.5273,-2.4433,-2.453,-2.3709,-2.2542,-2.2127,-2.1768,-2.0869,-1.9901,-1.9023,-1.793,-1.6757,-1.5587,-1.4458,-1.3084,-1.1694,-1.0056,-0.9458,-0.8537,-0.7464,-0.6465,-0.5848,-0.5538,-0.4919,-0.4137,-0.32,-0.164,-0.0156,0.1412,0.2669,0.353,0.4389,0.4623,0.5547,0.5938,0.6623,0.7617,0.8533,0.9432,1.0548,1.2044,1.3585,1.5171,1.6567,1.7949,1.8946,1.9661,2.073,2.1874,2.2519,2.3113,2.3682,2.4195,2.5175,2.5879,2.6056,2.6332,2.6794,2.7173,2.7584,2.8204,0.6612,0.6428,0.6343,0.6343,0.6254,0.608,0.5994,0.5994,0.5822,0.5733,0.5733,0.5733,0.5733,0.5644,0.5463,0.5371,0.5193,0.4926,0.475,0.4748,0.4478,0.4389,0.4391,0.4391,0.4389,0.4391,0.3494,0.2956,0.2688,0.1972,0.1435,0.0717,-0.0269,-0.2312,-0.5022,-0.6994,-0.9055,-1.1872,-1.3836,-1.5383,-1.6684,-1.8806,-2.0556,-2.159,-2.1786,-2.1773,-2.1796,-2.1534,-2.1152,-2.106,-2.0899,-2.2226,-2.3877,-2.459,-2.4204,-2.2651,-2.2977,-2.2237,-2.1129,-2.0846,-2.0666,-1.9901,-1.9034,-1.82,-1.7092,-1.5843,-1.4665,-1.3585,-1.2352,-1.0795,-0.9145,-0.8542,-0.7931,-0.693,-0.6079,-0.5538,-0.5071,-0.3828,-0.2735,-0.2108,-0.0625,0.1096,0.1803,0.2824,0.3448,0.407,0.4307,0.4696,0.524,0.5935,0.7238,0.8385,0.9367,1.092,1.2418,1.373,1.5313,1.6306,1.7765,1.8556,1.9212,2.0009,2.1071,2.2223,2.2944,2.3505,2.4137,2.4908,2.5495,2.5893,2.6278,2.6654,2.709,2.7541,2.8276,0.6609,0.634,0.5994,0.5819,0.5822,0.5822,0.5822,0.5733,0.5733,0.5733,0.5733,0.5733,0.5644,0.5555,0.5191,0.5013,0.4837,0.4659,0.4659,0.4659,0.4389,0.421,0.3942,0.4123,0.4121,0.3674,0.3136,0.2957,0.2868,0.2062,0.1256,0.0987,-0.0089,-0.1861,-0.3732,-0.5083,-0.7512,-1.0472,-1.211,-1.3448,-1.4688,-1.62,-1.7687,-1.8868,-1.9272,-1.9684,-2.0127,-2.0213,-2.044,-2.0985,-2.0899,-2.1043,-2.1424,-2.1498,-2.1409,-2.1557,-2.1244,-2.0673,-2.0052,-1.9748,-1.9486,-1.8824,-1.7794,-1.6913,-1.6009,-1.4942,-1.3875,-1.3004,-1.1675,-1.004,-0.868,-0.7927,-0.7011,-0.6005,-0.4999,-0.399,-0.313,-0.2271,-0.1803,-0.1642,0.0235,0.1959,0.2431,0.2981,0.3682,0.4229,0.4618,0.5162,0.586,0.6553,0.7544,0.8613,0.9604,1.1385,1.3084,1.4307,1.5604,1.6254,1.7364,1.8172,1.8824,1.9233,2.0139,2.1639,2.2702,2.3267,2.3962,2.4681,2.5216,2.5674,2.6115,2.65,2.709,2.7614,2.8152,0.6263,0.5994,0.5822,0.5733,0.5733,0.5733,0.5733,0.5733,0.5733,0.5644,0.5552,0.5552,0.5463,0.5282,0.5015,0.4748,0.4569,0.4478,0.4478,0.4478,0.43,0.4034,0.3587,0.3855,0.3765,0.3408,0.2959,0.278,0.2869,0.1703,0.0987,0.0536,-0.0267,-0.184,-0.3957,-0.517,-0.6921,-0.9393,-1.0912,-1.2037,-1.3004,-1.4291,-1.5475,-1.6365,-1.7055,-1.7523,-1.7871,-1.8305,-1.8449,-1.8649,-1.8562,-1.8629,-1.8685,-1.8552,-1.8619,-1.9488,-1.9412,-1.8895,-1.8516,-1.8055,-1.7775,-1.7453,-1.6489,-1.5587,-1.4887,-1.4099,-1.3077,-1.1896,-1.0783,-0.9216,-0.7927,-0.7242,-0.6553,-0.5544,-0.4222,-0.3209,-0.2349,-0.1097,-0.094,-0.1018,0.0627,0.2038,0.2746,0.3294,0.3919,0.4387,0.4851,0.5628,0.6479,0.7242,0.808,0.9367,1.0501,1.1977,1.3593,1.4673,1.5754,1.6324,1.7157,1.7969,1.8767,1.9365,2.0291,2.1612,2.2384,2.2895,2.3551,2.415,2.4794,2.5508,2.5895,2.6378,2.7092,2.7686,2.8094,0.6088,0.5822,0.5733,0.5733,0.5733,0.5733,0.5733,0.5733,0.5733,0.5644,0.546,0.5371,0.528,0.501,0.4835,0.4569,0.4297,0.4297,0.43,0.43,0.4297,0.4032,0.3585,0.3587,0.3499,0.305,0.2602,0.2423,0.2599,0.1613,0.0538,-0.0178,-0.0616,-0.1992,-0.427,-0.4953,-0.6784,-0.8394,-1.0236,-1.1186,-1.2137,-1.2924,-1.3852,-1.4561,-1.5147,-1.55,-1.5922,-1.6271,-1.648,-1.6549,-1.648,-1.648,-1.6444,-1.5852,-1.6062,-1.7064,-1.7309,-1.6936,-1.6549,-1.641,-1.6332,-1.6149,-1.5367,-1.445,-1.3513,-1.2778,-1.1883,-1.026,-0.921,-0.8156,-0.7088,-0.6707,-0.617,-0.5237,-0.391,-0.2582,-0.18,-0.0861,0.0235,0.0628,0.1568,0.2118,0.2746,0.3604,0.4229,0.4927,0.5392,0.6314,0.7165,0.7927,0.8836,1.0265,1.1459,1.2792,1.4034,1.4903,1.5762,1.6403,1.7226,1.8104,1.8967,1.9704,2.0688,2.1423,2.1788,2.231,2.2955,2.3787,2.461,2.5258,2.566,2.6129,2.674,2.7115,2.7447,0.6266,0.5994,0.5822,0.5733,0.5733,0.5733,0.5733,0.5644,0.5644,0.5555,0.5371,0.5371,0.5191,0.4921,0.4746,0.4569,0.4389,0.4297,0.4297,0.4297,0.4297,0.3851,0.3226,0.3406,0.305,0.2602,0.2333,0.2512,0.251,0.1704,0.0448,-0.0713,-0.1052,-0.1982,-0.3283,-0.4326,-0.5195,-0.6736,-0.8613,-1.0351,-1.1545,-1.1768,-1.2278,-1.2872,-1.3317,-1.3818,-1.4522,-1.4728,-1.4863,-1.5192,-1.5641,-1.5553,-1.4964,-1.4657,-1.4394,-1.4744,-1.5163,-1.5658,-1.5376,-1.5138,-1.4996,-1.4657,-1.4091,-1.3368,-1.2338,-1.1001,-0.9809,-0.8304,-0.777,-0.7238,-0.6325,-0.5709,-0.5323,-0.454,-0.3444,-0.2113,-0.1175,-0.0313,0.0706,0.1334,0.196,0.2352,0.2823,0.3759,0.4616,0.5234,0.6005,0.6927,0.7774,0.8537,0.9367,1.0645,1.205,1.3302,1.4178,1.5117,1.5903,1.6473,1.7354,1.824,1.8967,1.9704,2.0431,2.1083,2.14,2.2013,2.2907,2.3728,2.4483,2.5021,2.537,2.5839,2.6261,2.659,2.6934,0.5911,0.5911,0.573,0.5644,0.5552,0.5552,0.5463,0.5371,0.5282,0.5193,0.5015,0.5015,0.4837,0.4656,0.4478,0.4389,0.4297,0.4297,0.4297,0.4297,0.4208,0.376,0.3135,0.3047,0.278,0.2243,0.1974,0.2063,0.2062,0.161,0.0447,-0.0264,-0.095,-0.1519,-0.2397,-0.3531,-0.481,-0.6237,-0.7766,-0.9291,-1.0271,-1.0496,-1.0726,-1.1564,-1.1855,-1.2432,-1.2938,-1.2997,-1.3215,-1.3491,-1.3643,-1.3331,-1.3128,-1.3011,-1.3025,-1.3324,-1.3455,-1.3882,-1.4163,-1.3418,-1.3194,-1.283,-1.2104,-1.0926,-1.0409,-0.9437,-0.8461,-0.7931,-0.7088,-0.6402,-0.5792,-0.501,-0.4462,-0.368,-0.2582,-0.1644,-0.0549,0.0314,0.1178,0.1804,0.243,0.2899,0.3368,0.4148,0.5085,0.5777,0.6546,0.7468,0.8309,0.9074,0.99,1.0875,1.2271,1.3665,1.4386,1.5251,1.6105,1.6742,1.7423,1.824,1.8911,1.9639,2.0431,2.0892,2.1221,2.1951,2.2907,2.3314,2.3715,2.4425,2.5147,2.566,2.6111,2.6408,2.6707,0.5733,0.5733,0.5733,0.5555,0.5371,0.5371,0.528,0.501,0.501,0.4924,0.4748,0.4659,0.4478,0.4389,0.4297,0.4297,0.4297,0.4297,0.4297,0.4297,0.4208,0.3762,0.3135,0.2867,0.2599,0.1974,0.1615,0.1697,0.169,0.1332,0.0794,0.0348,-0.0593,-0.1327,-0.1947,-0.3016,-0.4368,-0.5999,-0.7003,-0.8232,-0.9216,-0.9216,-0.9674,-1.0207,-1.0657,-1.1037,-1.1484,-1.1545,-1.1768,-1.1694,-1.1755,-1.1594,-1.1385,-1.1768,-1.1768,-1.1916,-1.1909,-1.2124,-1.2191,-1.1736,-1.1292,-1.084,-1.0099,-0.921,-0.8917,-0.8012,-0.7407,-0.733,-0.6483,-0.587,-0.5246,-0.399,-0.3127,-0.2268,-0.133,-0.0548,0.0157,0.0941,0.1648,0.2272,0.2976,0.3832,0.438,0.4929,0.555,0.6244,0.7088,0.8008,0.8917,0.9755,1.0801,1.1768,1.3004,1.4314,1.4966,1.5683,1.6394,1.7079,1.7696,1.8432,1.9233,1.9901,2.07,2.1031,2.1169,2.16,2.2261,2.2555,2.2955,2.4066,2.5063,2.555,2.5948,2.6218,2.663,0.5733,0.5733,0.5644,0.5552,0.5371,0.5371,0.5191,0.4919,0.501,0.4835,0.4659,0.4478,0.4389,0.4297,0.4297,0.4297,0.4297,0.4297,0.43,0.43,0.4208,0.3762,0.3224,0.2777,0.2419,0.1615,0.1435,0.142,0.1488,0.1483,0.0784,0.0087,-0.0417,-0.1065,-0.1773,-0.261,-0.3984,-0.53,-0.6157,-0.7161,-0.8075,-0.8304,-0.8456,-0.9458,-0.9533,-0.9604,-1.0513,-1.0513,-1.0507,-1.0363,-1.0426,-1.034,-1.0121,-1.0651,-1.0726,-1.0571,-1.0645,-1.064,-1.034,-1.0335,-1.0484,-1.0034,-0.9135,-0.8008,-0.7863,-0.7022,-0.6493,-0.6342,-0.5479,-0.4621,-0.36,-0.2425,-0.1642,-0.0939,-0.0313,0.0313,0.094,0.1489,0.2195,0.2741,0.3599,0.4611,0.5389,0.5938,0.6325,0.7015,0.7927,0.8846,0.9895,1.0801,1.1835,1.2872,1.4034,1.5054,1.5692,1.6333,1.6881,1.7619,1.8365,1.9034,1.977,2.0431,2.0967,2.1042,2.1233,2.1434,2.1737,2.2322,2.3015,2.4168,2.4993,2.5425,2.6042,2.6539,2.6893,0.5531,0.5362,0.552,0.5371,0.5191,0.5015,0.4837,0.4565,0.4565,0.4567,0.4478,0.4389,0.4297,0.4297,0.4297,0.4297,0.43,0.4304,0.4302,0.4304,0.4214,0.3764,0.3226,0.2777,0.2419,0.1614,0.1433,0.1419,0.1393,0.1374,0.1013,0.0416,-0.0246,-0.0889,-0.1592,-0.2288,-0.3372,-0.399,-0.4766,-0.5616,-0.6615,-0.6923,-0.7306,-0.8765,-0.8694,-0.9074,-0.9836,-0.9311,-0.9382,-0.9453,-0.9296,-0.9145,-0.8993,-0.9523,-0.9593,-0.9367,-0.9588,-0.9367,-0.9069,-0.8917,-0.8613,-0.7851,-0.7165,-0.6788,-0.6953,-0.6261,-0.5957,-0.541,-0.4229,-0.3052,-0.2821,-0.1566,-0.0548,0.0235,0.0784,0.1254,0.1803,0.2272,0.3052,0.383,0.4608,0.5541,0.6318,0.7022,0.733,0.7787,0.8775,0.9679,1.0657,1.1471,1.2358,1.3091,1.4178,1.5037,1.5683,1.6446,1.7285,1.8094,1.8834,1.9562,2.0161,2.07,2.1094,2.1169,2.1296,2.1486,2.1839,2.231,2.3135,2.4182,2.4838,2.5328,2.5988,2.6736,2.6945,0.5323,0.516,0.515,0.5044,0.4919,0.4748,0.4569,0.43,0.4297,0.4297,0.4297,0.4297,0.4297,0.4297,0.4297,0.4208,0.4121,0.4036,0.3944,0.3944,0.3855,0.3497,0.3048,0.2689,0.2419,0.1612,0.1421,0.1405,0.1374,0.1348,0.099,0.0568,-0.008,-0.0636,-0.1422,-0.2199,-0.2824,-0.3059,-0.3526,-0.4224,-0.5458,-0.5461,-0.5922,-0.7226,-0.7149,-0.7383,-0.8071,-0.8003,-0.8089,-0.8237,-0.8232,-0.8008,-0.8003,-0.8152,-0.8223,-0.8219,-0.8295,-0.8232,-0.8089,-0.794,-0.7253,-0.6637,-0.6412,-0.6187,-0.5957,-0.5326,-0.4226,-0.4389,-0.274,-0.1565,-0.1646,-0.0235,0.0392,0.0942,0.1568,0.2116,0.2582,0.3129,0.4064,0.4919,0.5696,0.6318,0.7169,0.7868,0.8475,0.8775,0.9306,1.0207,1.1031,1.1774,1.2439,1.3164,1.3962,1.4744,1.5446,1.6437,1.7413,1.823,1.9034,1.989,2.0484,2.0955,2.1169,2.1233,2.136,2.1537,2.1951,2.2482,2.3255,2.4124,2.4838,2.5619,2.5948,2.6592,2.6712,0.5118,0.5032,0.4627,0.4572,0.4634,0.4746,0.4565,0.4297,0.4297,0.4297,0.4297,0.4297,0.4297,0.4297,0.4297,0.4121,0.3853,0.3676,0.3496,0.3315,0.3408,0.296,0.2688,0.2417,0.2225,0.1603,0.1406,0.1377,0.1348,0.1324,0.1051,0.0636,-0.0,-0.0631,-0.1335,-0.2119,-0.2589,-0.2824,-0.3136,-0.3834,-0.43,-0.4226,-0.4844,-0.5532,-0.5532,-0.5764,-0.6377,-0.6696,-0.6777,-0.6769,-0.7084,-0.6777,-0.6307,-0.6601,-0.6447,-0.5844,-0.6377,-0.6542,-0.649,-0.7099,-0.6872,-0.618,-0.6032,-0.5802,-0.5168,-0.3832,-0.219,-0.2429,-0.1488,-0.0392,0.0392,0.1178,0.1256,0.1648,0.2272,0.2974,0.3519,0.4062,0.4996,0.5928,0.6398,0.6945,0.7868,0.8713,0.9463,0.9841,1.0062,1.0663,1.1484,1.2291,1.2952,1.36,1.4322,1.5171,1.6018,1.6715,1.7619,1.8422,1.9299,2.0226,2.0764,2.1031,2.1233,2.1233,2.1348,2.1526,2.2063,2.2665,2.3715,2.4711,2.5356,2.6002,2.6272,2.6433,2.6592,0.4762,0.4524,0.4421,0.432,0.4218,0.4365,0.4335,0.4293,0.4297,0.4297,0.4297,0.4297,0.4297,0.4297,0.43,0.4121,0.3942,0.3045,0.2776,0.3317,0.3047,0.2603,0.2325,0.221,0.202,0.1572,0.1376,0.1347,0.1318,0.1303,0.1285,0.0869,-0.0079,-0.0943,-0.1335,-0.1728,-0.1963,-0.2199,-0.251,-0.2899,-0.3368,-0.345,-0.3837,-0.4838,-0.4533,-0.4686,-0.5297,-0.5461,-0.5461,-0.5455,-0.569,-0.5381,-0.4916,-0.514,-0.4836,-0.4533,-0.4996,-0.5631,-0.6041,-0.6592,-0.6585,-0.6116,-0.5643,-0.494,-0.3682,-0.2662,-0.141,-0.0392,-0.0078,0.0707,0.1178,0.1492,0.1804,0.235,0.3052,0.3984,0.4606,0.5148,0.5851,0.6703,0.7407,0.7863,0.8637,0.9316,0.9992,1.0669,1.0887,1.1111,1.1787,1.2959,1.3833,1.4338,1.4982,1.5824,1.6594,1.7207,1.8085,1.9034,1.9901,2.0764,2.1169,2.1233,2.1233,2.1233,2.1348,2.1514,2.2237,2.3075,2.4425,2.5425,2.5715,2.6056,2.6286,2.6433,2.6578,0.4414,0.4181,0.4157,0.4123,0.3999,0.4085,0.4161,0.4204,0.421,0.4136,0.3982,0.3986,0.4007,0.4022,0.4032,0.4034,0.3942,0.3135,0.2509,0.3047,0.258,0.2218,0.2025,0.2,0.1809,0.1453,0.1347,0.132,0.1305,0.1292,0.1196,0.0789,-0.0157,-0.055,-0.0943,-0.1178,-0.165,-0.1806,-0.2041,-0.2198,-0.2512,-0.2669,-0.2979,-0.3522,-0.36,-0.3756,-0.4142,-0.4295,-0.4142,-0.4217,-0.4217,-0.4062,-0.391,-0.3756,-0.3521,-0.3365,-0.3439,-0.3988,-0.4382,-0.4704,-0.4462,-0.4384,-0.4467,-0.3684,-0.2195,-0.1176,-0.0157,0.0785,0.1257,0.1492,0.1649,0.196,0.2507,0.3052,0.3986,0.4916,0.5458,0.6002,0.6626,0.7557,0.7944,0.8556,0.9316,0.9916,1.0513,1.1111,1.1713,1.1935,1.2231,1.3251,1.4201,1.4705,1.5196,1.5833,1.6664,1.7619,1.8566,1.9639,2.0431,2.1106,2.1233,2.1233,2.1233,2.1233,2.1285,2.1639,2.247,2.342,2.4368,2.5034,2.5453,2.5784,2.6233,2.6379,2.6525,0.4079,0.4079,0.3921,0.382,0.3903,0.3983,0.4028,0.3956,0.3958,0.3836,0.3554,0.3557,0.3584,0.3648,0.3659,0.365,0.3554,0.3021,0.2666,0.2304,0.2099,0.1828,0.1724,0.1785,0.1601,0.1419,0.1318,0.1299,0.1296,0.1278,0.1184,0.0865,0.0393,-0.0,-0.0393,-0.0943,-0.1415,-0.1572,-0.165,-0.1728,-0.1964,-0.2044,-0.2277,-0.251,-0.2511,-0.2511,-0.2743,-0.2899,-0.2976,-0.313,-0.3443,-0.329,-0.3136,-0.2824,-0.2117,-0.1722,-0.164,-0.1796,-0.1796,-0.2111,-0.1799,-0.1721,-0.1879,-0.1645,-0.1097,0.0157,0.102,0.1412,0.1805,0.1961,0.2117,0.2662,0.3207,0.4064,0.4996,0.5693,0.6157,0.6777,0.748,0.8025,0.8178,0.8713,0.962,1.0293,1.1037,1.1632,1.2231,1.2746,1.3039,1.3397,1.4201,1.4553,1.5125,1.5621,1.6594,1.7891,1.8834,1.9835,2.0377,2.0967,2.1106,2.1233,2.1233,2.1233,2.1233,2.1702,2.2786,2.3433,2.3859,2.4509,2.5397,2.5729,2.6233,2.6286,2.6379,0.3999,0.3843,0.3841,0.3777,0.3803,0.3832,0.3912,0.4026,0.395,0.38,0.3393,0.3393,0.3328,0.3427,0.3425,0.343,0.3259,0.2999,0.2569,0.2136,0.1794,0.1533,0.1434,0.1498,0.1401,0.1388,0.129,0.1274,0.135,0.1336,0.1258,0.11,0.0864,0.055,-0.0079,-0.0864,-0.1179,-0.1336,-0.1336,-0.1415,-0.1573,-0.173,-0.1886,-0.1886,-0.1886,-0.1886,-0.2042,-0.1962,-0.1961,-0.2118,-0.204,-0.1884,-0.1885,-0.1256,-0.0549,-0.0471,-0.0392,-0.0314,0.0235,0.0392,0.0549,0.1174,0.1175,0.0941,0.1099,0.1334,0.2119,0.2273,0.2585,0.282,0.3287,0.383,0.4375,0.5074,0.5928,0.6549,0.7011,0.7476,0.8102,0.8403,0.8632,0.9241,1.0067,1.0812,1.1484,1.2083,1.2673,1.3266,1.3702,1.4057,1.4346,1.4697,1.5471,1.6105,1.7198,1.8499,1.9233,1.9977,2.0506,2.0903,2.1106,2.1233,2.1233,2.1296,2.1474,2.2249,2.3327,2.3741,2.3975,2.4908,2.5729,2.5948,2.6125,2.6233,2.6394,0.3686,0.3372,0.3684,0.3841,0.3841,0.3841,0.3832,0.392,0.3683,0.3451,0.3066,0.2818,0.2831,0.2862,0.3034,0.3118,0.3118,0.2873,0.245,0.2024,0.1584,0.1414,0.132,0.1302,0.1288,0.1277,0.135,0.134,0.1336,0.1336,0.1258,0.1258,0.1336,0.0864,0.0236,-0.0314,-0.0786,-0.0943,-0.1022,-0.1179,-0.1336,-0.1493,-0.1573,-0.1572,-0.165,-0.165,-0.165,-0.1256,-0.0863,-0.0628,-0.0314,-0.0,0.0157,0.0862,0.1488,0.1722,0.2035,0.2349,0.2741,0.2584,0.2976,0.3288,0.3522,0.313,0.282,0.2898,0.3209,0.3363,0.3677,0.3988,0.453,0.5074,0.5541,0.6086,0.6784,0.7411,0.7791,0.8174,0.8556,0.8932,0.9387,0.9916,1.0588,1.126,1.1929,1.2452,1.3039,1.3768,1.4065,1.4281,1.4633,1.4982,1.5895,1.6802,1.7881,1.8767,1.9431,2.0042,2.0442,2.0839,2.1106,2.1233,2.1296,2.1526,2.1827,2.2604,2.3386,2.38,2.4208,2.5147,2.5729,2.5784,2.6002,2.6218,2.6379,0.3136,0.251,0.3292,0.3684,0.3841,0.3841,0.3769,0.3684,0.3233,0.2861,0.2587,0.2107,0.2046,0.2312,0.2485,0.2653,0.273,0.2649,0.2316,0.2005,0.1637,0.138,0.1292,0.1273,0.1347,0.134,0.1336,0.1336,0.1336,0.1336,0.1336,0.1336,0.1336,0.1022,0.0629,0.0157,-0.0157,-0.0393,-0.0471,-0.055,-0.0942,-0.11,-0.11,-0.1021,-0.1021,-0.0942,-0.0863,-0.0314,0.0627,0.1174,0.1565,0.1955,0.2503,0.2895,0.3521,0.3599,0.3756,0.4068,0.4222,0.4217,0.4368,0.4523,0.4603,0.4681,0.4606,0.4066,0.4066,0.445,0.4763,0.5231,0.5851,0.6237,0.6626,0.7088,0.7629,0.8097,0.8403,0.8708,0.9084,0.9387,0.9539,1.0143,1.0663,1.1335,1.207,1.2666,1.3404,1.4065,1.4497,1.4641,1.4919,1.5275,1.6245,1.7148,1.7891,1.8767,1.9562,2.0096,2.0571,2.0828,2.1106,2.1285,2.1348,2.1526,2.1702,2.2482,2.3195,2.3669,2.4266,2.509,2.5564,2.5564,2.5784,2.6111,2.6365,0.1803,0.1646,0.2431,0.3136,0.3763,0.3841,0.3608,0.3217,0.2824,0.2598,0.2451,0.2139,0.1906,0.1924,0.2087,0.2167,0.2165,0.2339,0.2079,0.1844,0.1591,0.1434,0.135,0.1343,0.1336,0.1336,0.1336,0.1336,0.1336,0.1336,0.1336,0.1336,0.1336,0.1179,0.1022,0.0629,0.0393,0.0236,0.0236,0.0079,-0.0236,0.0314,0.0627,0.0627,0.0627,0.0861,0.1017,0.133,0.2112,0.266,0.2815,0.3441,0.4226,0.4621,0.4462,0.4226,0.4688,0.5074,0.5375,0.56,0.5748,0.606,0.6217,0.6381,0.6079,0.5309,0.5079,0.5541,0.5928,0.6472,0.6938,0.7249,0.7557,0.794,0.8399,0.8632,0.8937,0.9236,0.9539,0.969,0.9841,1.0288,1.0812,1.1403,1.2137,1.2806,1.3542,1.4274,1.4776,1.5062,1.5213,1.5638,1.6603,1.7432,1.8094,1.889,1.977,2.0302,2.0764,2.1031,2.1158,2.1221,2.1285,2.1348,2.1588,2.2543,2.3255,2.3669,2.4266,2.516,2.5564,2.5674,2.5784,2.6056,2.6258,0.1096,0.0861,0.1645,0.243,0.3136,0.3215,0.3294,0.3295,0.2746,0.251,0.2431,0.1961,0.1649,0.1726,0.1803,0.1725,0.1804,0.2041,0.1814,0.1574,0.1492,0.1415,0.1335,0.1336,0.1336,0.1336,0.1336,0.1336,0.1336,0.1336,0.1336,0.1336,0.1336,0.1336,0.1258,0.1022,0.0864,0.0943,0.0864,0.0786,0.0471,0.0706,0.1804,0.204,0.251,0.2507,0.2426,0.2738,0.3828,0.4838,0.5604,0.6066,0.6692,0.693,0.6773,0.6612,0.6681,0.6601,0.6896,0.7198,0.7427,0.774,0.8049,0.8295,0.8295,0.7604,0.6923,0.7234,0.678,0.7173,0.7326,0.7638,0.7791,0.8097,0.8632,0.9089,0.9316,0.962,0.9765,0.9765,1.0067,1.0507,1.1099,1.1761,1.2572,1.368,1.4346,1.4561,1.4991,1.5355,1.5576,1.5929,1.6751,1.7432,1.8037,1.8967,2.0031,2.0571,2.0967,2.1106,2.1169,2.1221,2.1221,2.1463,2.1939,2.2847,2.3492,2.3787,2.4452,2.5355,2.5688,2.5893,2.5948,2.5948,2.6111,0.0549,0.0157,0.0783,0.1567,0.2273,0.2352,0.2744,0.3214,0.2665,0.2275,0.2196,0.157,0.1336,0.1414,0.1649,0.1492,0.157,0.1883,0.1649,0.1414,0.1414,0.1414,0.1335,0.1336,0.1336,0.1336,0.1336,0.1336,0.1336,0.1336,0.1336,0.1336,0.1336,0.1336,0.1336,0.1336,0.1258,0.1179,0.1179,0.1258,0.1021,0.0706,0.2121,0.3224,0.3775,0.2982,0.3057,0.3834,0.5392,0.6318,0.7464,0.8219,0.867,0.8903,0.9195,0.911,0.9251,0.9331,0.9643,0.9712,0.9798,0.9965,1.0045,1.0045,1.004,0.9583,0.8908,0.8495,0.8121,0.7923,0.8075,0.8156,0.8309,0.8475,0.9079,0.9468,0.9695,0.9916,0.9922,0.9922,1.0288,1.0807,1.1465,1.2131,1.3084,1.4266,1.4856,1.507,1.5284,1.5505,1.5655,1.6,1.6551,1.7226,1.7901,1.89,2.0031,2.0571,2.0903,2.1106,2.1233,2.1233,2.14,2.1877,2.247,2.2847,2.3492,2.4021,2.4751,2.5355,2.5743,2.5893,2.5893,2.5948,2.6002,-0.0471,-0.0,0.0157,0.0705,0.1488,0.1567,0.1645,0.1723,0.1646,0.1568,0.157,0.1492,0.1336,0.1336,0.1336,0.1335,0.1413,0.1648,0.1569,0.1335,0.1492,0.1492,0.1414,0.1336,0.1336,0.1336,0.1336,0.1336,0.1336,0.1336,0.1336,0.1335,0.1335,0.1335,0.1335,0.1335,0.1336,0.1336,0.1336,0.1336,0.1492,0.157,0.2198,0.3061,0.3763,0.3837,0.4304,0.5004,0.5628,0.6398,0.7548,0.8978,0.9873,1.0473,1.076,1.1125,1.1267,1.1273,1.1354,1.1575,1.1582,1.1019,1.1019,1.1081,1.092,1.0525,1.0096,0.9963,0.9617,0.9494,0.9515,0.9445,0.96,0.9557,0.9873,0.9895,0.9986,1.0062,1.0067,1.0212,1.0363,1.1105,1.1916,1.2579,1.3237,1.4266,1.5062,1.5275,1.5576,1.5726,1.5805,1.6149,1.6412,1.7157,1.7901,1.8767,1.9704,2.0366,2.0903,2.1106,2.1233,2.1233,2.1463,2.1877,2.1877,2.2002,2.2834,2.3975,2.4452,2.4991,2.5564,2.5893,2.5893,2.5893,2.5948]},{"header":{"parameterUnit":"m.s-1","parameterCategory":1,"la1":31.0,"la2":29.5877,"lo1":-88.7671,"lo2":-86.6584,"dy":0.0162,"dx":0.0185,"nx":115,"ny":88,"refTime":"2023-05-26T18:00:00:Z","depth":0,"parameterNumber":3,"parameterNumberName":"V-component_of_WINDS"},"data":[0.0,0.0,0.0,0.0,0.0,0.0,0.0,0.0,0.0,0.0,0.0,0.0,0.0,0.0,0.0,0.0,0.0,0.0,0.0,0.0,0.0,0.0,0.0,0.0,0.0,0.0,0.0,0.0,0.0,0.0,0.0,0.0,0.0,0.0,0.0,0.0,0.0,0.0,0.0,0.0,0.0,0.0,0.0,0.0,0.0,0.0,0.0,0.0,0.0,0.0,0.0,0.0,0.0,0.0,0.0,0.0,0.0,0.0,0.0,0.0,0.0,0.0,0.0,0.0,0.0,0.0,0.0,0.0,0.0,0.0,0.0,0.0,0.0,0.0,0.0,0.0,0.0,0.0,0.0,0.0,0.0,0.0,0.0,0.0,0.0,0.0,0.0,0.0,0.0,0.0,0.0,0.0,0.0,0.0,0.0,0.0,0.0,0.0,0.0,0.0,0.0,0.0,0.0,0.0,0.0,0.0,0.0,0.0,0.0,0.0,0.0,0.0,0.0,0.0,0.0,0.0,0.0,0.0,0.0,0.0,0.0,0.0,0.0,0.0,0.0,0.0,0.0,0.0,0.0,0.0,0.0,0.0,0.0,0.0,0.0,0.0,0.0,0.0,0.0,0.0,0.0,0.0,0.0,0.0,0.0,0.0,0.0,0.0,0.0,0.0,0.0,0.0,0.0,0.0,0.0,0.0,0.0,0.0,0.0,0.0,0.0,0.0,0.0,0.0,0.0,0.0,0.0,0.0,0.0,0.0,0.0,0.0,0.0,0.0,0.0,0.0,0.0,0.0,0.0,0.0,0.0,0.0,0.0,0.0,0.0,0.0,0.0,0.0,0.0,0.0,0.0,0.0,0.0,0.0,0.0,0.0,0.0,0.0,0.0,0.0,0.0,0.0,0.0,0.0,0.0,0.0,0.0,0.0,0.0,0.0,0.0,0.0,0.0,0.0,0.0,0.0,0.0,0.0,0.0,0.0,0.0,0.0,0.0,0.0,0.0,0.0,0.0,0.0,0.0,0.0,0.0,0.0,0.0,0.0,0.0,0.0,0.0,0.0,0.0,0.0,0.0,0.0,0.0,0.0,0.0,0.0,0.0,0.0,0.0,0.0,0.0,0.0,0.0,0.0,0.0,0.0,0.0,0.0,0.0,0.0,0.0,0.0,0.0,0.0,0.0,0.0,0.0,0.0,0.0,0.0,0.0,0.0,0.0,0.0,0.0,0.0,0.0,0.0,0.0,0.0,0.0,0.0,0.0,0.0,0.0,0.0,0.0,0.0,0.0,0.0,0.0,0.0,0.0,0.0,0.0,0.0,0.0,0.0,0.0,0.0,0.0,0.0,0.0,0.0,0.0,0.0,0.0,0.0,0.0,0.0,0.0,0.0,0.0,0.0,0.0,0.0,0.0,0.0,0.0,0.0,0.0,0.0,0.0,0.0,0.0,0.0,0.0,0.0,0.0,0.0,0.0,0.0,0.0,0.0,0.0,0.0,0.0,0.0,0.0,0.0,0.0,0.0,0.0,0.0,0.0,0.0,0.0,0.0,0.0,0.0,0.0,0.0,0.0,0.0,0.0,0.0,0.0,0.0,0.0,0.0,0.0,0.0,0.0,0.0,0.0,0.0,0.0,0.0,0.0,0.0,0.0,0.0,0.0,0.0,0.0,0.0,0.0,0.0,0.0,0.0,0.0,0.0,0.0,0.0,0.0,0.0,0.0,0.0,0.0,0.0,0.0,0.0,0.0,0.0,0.0,0.0,0.0,0.0,0.0,0.0,0.0,0.0,0.0,0.0,0.0,0.0,0.0,0.0,0.0,0.0,0.0,0.0,0.0,0.0,0.0,0.0,0.0,0.0,0.0,0.0,0.0,0.0,0.0,0.0,0.0,0.0,0.0,0.0,0.0,0.0,0.0,0.0,0.0,0.0,0.0,0.0,0.0,0.0,0.0,0.0,0.0,0.0,0.0,0.0,0.0,0.0,0.0,0.0,0.0,0.0,0.0,0.0,0.0,0.0,0.0,0.0,0.0,0.0,0.0,0.0,0.0,0.0,0.0,0.0,0.0,0.0,0.0,0.0,0.0,0.0,0.0,0.0,0.0,0.0,0.0,0.0,0.0,0.0,0.0,0.0,0.0,0.0,0.0,0.0,0.0,0.0,0.0,0.0,0.0,0.0,0.0,0.0,0.0,0.0,0.0,0.0,0.0,0.0,0.0,0.0,0.0,0.0,0.0,0.0,0.0,0.0,0.0,0.0,0.0,0.0,0.0,0.0,0.0,0.0,0.0,0.0,0.0,0.0,0.0,0.0,0.0,0.0,0.0,0.0,0.0,0.0,0.0,0.0,0.0,0.0,0.0,0.0,0.0,0.0,0.0,0.0,0.0,0.0,0.0,0.0,0.0,0.0,0.0,0.0,0.0,0.0,0.0,0.0,0.0,0.0,0.0,0.0,0.0,0.0,0.0,0.0,0.0,0.0,0.0,0.0,0.0,0.0,0.0,0.0,0.0,0.0,0.0,0.0,0.0,0.0,0.0,0.0,0.0,0.0,0.0,0.0,0.0,0.0,0.0,0.0,0.0,0.0,0.0,0.0,0.0,0.0,0.0,0.0,0.0,0.0,0.0,0.0,0.0,0.0,0.0,0.0,0.0,0.0,0.0,0.0,0.0,0.0,0.0,0.0,0.0,0.0,0.0,0.0,0.0,0.0,0.0,0.0,0.0,0.0,0.0,0.0,0.0,0.0,0.0,0.0,0.0,0.0,0.0,0.0,0.0,0.0,0.0,0.0,0.0,0.0,0.0,0.0,0.0,0.0,0.0,0.0,0.0,0.0,0.0,0.0,0.0,0.0,0.0,0.0,0.0,0.0,0.0,0.0,0.0,0.0,0.0,0.0,0.0,0.0,0.0,0.0,0.0,0.0,0.0,0.0,0.0,0.0,0.0,0.0,0.0,0.0,0.0,0.0,0.0,0.0,0.0,0.0,0.0,0.0,0.0,0.0,0.0,0.0,0.0,0.0,0.0,0.0,0.0,0.0,0.0,0.0,0.0,0.0,0.0,0.0,0.0,0.0,0.0,0.0,0.0,0.0,0.0,0.0,0.0,0.0,0.0,0.0,0.0,0.0,0.0,0.0,0.0,0.0,0.0,0.0,0.0,0.0,0.0,0.0,0.0,0.0,0.0,0.0,0.0,0.0,0.0,0.0,0.0,0.0,0.0,0.0,0.0,0.0,0.0,0.0,0.0,0.0,0.0,0.0,0.0,0.0,0.0,0.0,0.0,0.0,0.0,0.0,0.0,0.0,0.0,0.0,0.0,0.0,0.0,0.0,0.0,0.0,0.0,0.0,0.0,0.0,0.0,0.0,0.0,0.0,0.0,0.0,0.0,0.0,0.0,0.0,0.0,0.0,0.0,0.0,0.0,0.0,0.0,0.0,0.0,0.0,0.0,0.0,0.0,0.0,0.0,0.0,0.0,0.0,0.0,0.0,0.0,0.0,0.0,0.0,0.0,0.0,0.0,0.0,0.0,0.0,0.0,0.0,0.0,0.0,0.0,0.0,0.0,0.0,0.0,0.0,0.0,0.0,0.0,0.0,0.0,0.0,0.0,0.0,0.0,0.0,0.0,0.0,0.0,0.0,0.0,0.0,0.0,0.0,0.0,0.0,0.0,0.0,0.0,0.0,0.0,0.0,0.0,0.0,0.0,0.0,0.0,0.0,0.0,0.0,0.0,0.0,0.0,0.0,0.0,0.0,0.0,0.0,0.0,0.0,0.0,0.0,0.0,0.0,0.0,0.0,0.0,0.0,0.0,0.0,0.0,0.0,0.0,0.0,0.0,0.0,0.0,0.0,0.0,0.0,0.0,0.0,0.0,0.0,0.0,0.0,0.0,0.0,0.0,0.0,0.0,0.0,0.0,0.0,0.0,0.0,0.0,0.0,0.0,0.0,0.0,0.0,0.0,0.0,0.0,0.0,0.0,0.0,0.0,0.0,0.0,0.0,0.0,0.0,0.0,0.0,0.0,0.0,0.0,0.0,0.0,0.0,0.0,0.0,0.0,0.0,0.0,0.0,0.0,0.0,0.0,0.0,0.0,0.0,0.0,0.0,0.0,0.0,0.0,0.0,0.0,0.0,0.0,0.0,0.0,0.0,0.0,0.0,0.0,0.0,0.0,0.0,0.0,0.0,0.0,0.0,0.0,0.0,0.0,0.0,0.0,0.0,0.0,0.0,0.0,0.0,0.0,0.0,0.0,0.0,0.0,0.0,0.0,0.0,0.0,0.0,1.1548,0.0,0.0,0.0,0.0,0.0,0.0,0.0,0.0,0.0,0.0,0.0,0.0,0.0,0.0,0.0,0.0,0.0,0.0,0.0,0.0,0.0,0.0,0.0,0.0,0.0,0.0,0.0,0.0,0.0,0.0,0.0,0.0,0.0,0.0,0.0,0.0,0.0,0.0,0.0,0.0,0.0,0.0,0.0,0.0,0.0,0.0,0.0,0.0,0.0,0.0,0.0,0.0,0.0,0.0,0.0,0.0,0.0,0.0,0.0,0.0,0.0,0.0,0.0,0.0,0.0,0.0,0.0,0.0,0.0,0.0,0.0,0.0,0.0,0.0,0.0,0.0,0.0,0.0,0.0,0.0,0.0,0.0,0.0,0.0,0.0,0.0,0.0,0.0,0.0,0.0,0.0,0.0,0.0,0.0,0.0,0.0,0.0,0.0,0.0,0.0,0.0,0.0,0.0,0.0,0.0,0.0,0.0,0.0,0.0,0.0,1.3644,1.2987,1.2681,1.2424,1.2228,0.0,0.0,0.0,0.0,0.0,0.0,0.0,0.0,0.0,0.0,0.0,0.0,0.0,0.0,0.0,0.0,0.0,0.0,0.0,0.0,0.0,0.0,0.0,0.0,0.0,0.0,0.0,0.0,0.0,0.0,0.0,0.0,0.0,0.0,0.0,0.0,0.0,0.0,0.0,0.0,0.0,0.0,0.0,0.0,0.0,0.0,0.0,0.0,0.0,0.0,0.0,0.0,0.0,0.0,0.0,0.0,0.0,0.0,0.0,0.0,0.0,0.0,0.0,0.0,0.0,0.0,0.0,0.0,0.0,0.0,0.0,0.0,0.0,0.0,0.0,0.0,0.0,0.0,0.0,0.0,0.0,0.0,0.0,0.0,0.0,0.0,0.0,0.0,0.0,0.0,0.0,0.0,0.0,0.0,0.0,0.0,0.0,0.0,0.0,0.0,0.0,0.0,0.0,0.0,0.0,0.0,0.0,0.0,0.0,0.0,0.0,0.0,1.3467,1.3264,1.3023,0.0,0.0,0.0,0.0,0.0,0.0,0.0,0.0,0.0,0.0,0.0,0.0,0.0,0.0,0.0,0.0,0.0,0.0,0.0,0.0,0.0,0.0,0.0,0.0,0.0,0.0,0.0,0.0,0.0,0.0,0.0,0.0,0.0,0.0,0.0,0.0,0.0,0.0,0.0,0.0,0.0,0.0,0.0,0.0,0.0,0.0,0.0,0.0,0.0,0.0,0.0,0.0,0.0,0.0,0.0,0.0,0.0,0.0,0.0,0.0,0.0,0.0,0.0,0.0,0.0,0.0,0.0,0.0,0.0,0.0,0.0,0.0,0.0,0.0,0.0,0.0,0.0,0.0,0.0,0.0,0.0,0.0,0.0,0.0,0.0,0.0,0.0,0.0,0.0,0.0,0.0,0.0,0.0,0.0,0.0,0.0,0.0,0.0,0.0,0.0,0.0,0.0,0.0,0.0,0.0,0.0,0.0,0.0,0.0,0.0,1.4256,1.4224,1.3685,0.0,1.358,0.0,0.0,0.0,0.0,0.0,0.0,0.0,0.0,0.0,0.0,0.0,0.0,0.0,0.0,0.0,0.0,0.0,0.0,0.0,0.0,0.0,0.0,0.0,0.0,0.0,0.0,0.0,0.0,0.0,0.0,0.0,0.0,0.0,0.0,0.0,0.0,0.0,0.0,0.0,0.0,0.0,0.0,0.0,0.0,0.0,0.0,0.0,0.0,0.0,0.0,0.0,0.0,0.0,0.0,0.0,0.0,0.0,0.0,0.0,0.0,0.0,0.0,0.0,0.0,0.0,0.0,0.0,0.0,0.0,0.0,0.0,0.0,0.0,0.0,0.0,0.0,0.0,0.0,0.0,0.0,0.0,0.0,0.0,0.0,0.0,0.0,0.0,0.0,0.0,0.0,0.0,0.0,0.0,0.0,0.0,0.0,0.0,0.0,0.0,0.0,0.0,0.0,0.0,0.0,0.0,0.0,0.0,0.0,0.0,0.0,1.4877,1.4906,1.4282,1.3841,0.0,0.0,0.0,0.0,0.0,0.0,0.0,0.0,0.0,0.0,0.0,0.0,0.0,0.0,0.0,0.0,0.0,0.0,0.0,0.0,0.0,0.0,0.0,0.0,0.0,0.0,0.0,0.0,0.0,0.0,0.0,0.0,0.0,0.0,0.0,0.0,0.0,0.0,0.0,0.0,0.0,0.0,0.0,0.0,0.0,0.0,0.0,0.0,0.0,0.0,0.0,0.0,0.0,0.0,0.0,0.0,0.0,0.0,0.0,0.0,0.0,0.0,0.0,0.0,0.0,0.0,0.0,0.0,0.0,0.0,0.0,0.0,0.0,0.0,0.0,0.0,0.0,0.0,0.0,0.0,0.0,0.0,0.0,0.0,0.0,0.0,0.0,0.0,0.0,0.0,0.0,0.0,0.0,0.0,0.0,0.0,0.0,0.0,0.0,0.0,0.0,0.0,0.0,0.0,0.0,0.0,0.0,0.0,0.0,0.0,1.5283,1.5283,1.5284,1.4834,1.4398,1.4001,0.0,0.0,0.0,0.0,0.0,0.0,0.0,0.0,0.0,0.0,0.0,0.0,0.0,0.0,0.0,0.0,0.0,0.0,0.0,0.0,0.0,0.0,0.0,0.0,0.0,0.0,0.0,0.0,0.0,0.0,0.0,0.0,0.0,0.0,0.0,0.0,0.0,0.0,0.0,0.0,0.0,0.0,0.0,0.0,0.0,0.0,0.0,0.0,0.0,0.0,0.0,0.0,0.0,0.0,0.0,0.0,0.0,0.0,0.0,0.0,0.0,0.0,0.0,0.0,0.0,0.0,0.0,0.0,0.0,0.0,0.0,0.0,0.0,0.0,0.0,0.0,0.0,0.0,0.0,0.0,0.0,0.0,0.0,0.0,0.0,0.0,0.0,0.0,0.0,0.0,0.0,0.0,0.0,0.0,0.0,0.0,0.0,0.0,0.0,0.0,0.0,0.0,0.0,0.0,0.0,0.0,0.0,0.0,1.5208,1.5208,1.5238,1.5298,1.5269,1.5255,0.0,0.0,0.0,0.0,0.0,0.0,0.0,0.0,0.0,0.0,0.0,0.0,0.0,0.0,0.0,0.0,0.0,0.0,0.0,0.0,0.0,0.0,0.0,0.0,0.0,0.0,0.0,0.0,0.0,0.0,0.0,0.0,0.0,0.0,0.0,0.0,0.0,0.0,0.0,0.0,0.0,0.0,0.0,0.0,0.0,0.0,0.0,0.0,0.0,0.0,0.0,0.0,0.0,0.0,0.0,0.0,0.0,0.0,0.0,0.0,0.0,0.0,0.0,0.0,0.0,0.0,0.0,0.0,0.0,0.0,0.0,0.0,0.0,0.0,0.0,0.0,0.0,0.0,0.0,0.0,0.0,0.0,0.0,0.0,0.0,0.0,0.0,0.0,0.0,0.0,0.0,0.0,0.0,0.0,0.0,0.0,0.0,0.0,0.0,0.0,0.0,0.0,0.0,0.0,0.0,0.0,0.0,0.0,0.0,1.5192,1.5238,1.5283,1.5298,1.5298,1.5298,0.0,0.0,0.0,0.0,0.0,0.0,0.0,0.0,0.0,0.0,0.0,0.0,0.0,0.0,0.0,0.0,0.0,0.0,0.0,0.0,0.0,0.0,0.0,0.0,0.0,0.0,0.0,0.0,0.0,0.0,0.0,0.0,0.0,0.0,0.0,0.0,0.0,0.0,0.0,0.0,0.0,0.0,0.0,0.0,0.0,0.0,0.0,0.0,0.0,0.0,0.0,0.0,0.0,0.0,0.0,0.0,0.0,0.0,0.0,0.0,0.0,0.0,0.0,0.0,0.0,0.0,0.0,0.0,0.0,0.0,0.0,0.0,0.0,0.0,0.0,0.0,0.0,0.0,0.0,0.0,0.0,0.0,0.0,0.0,0.0,0.0,0.0,0.0,0.0,0.0,0.0,0.0,0.0,0.0,0.0,0.0,0.0,0.0,0.0,0.0,0.0,0.0,0.0,0.0,0.0,0.0,0.0,0.0,0.0,1.5222,0.0,1.5298,1.5298,1.5298,1.5314,0.0,0.0,0.0,0.0,0.0,0.0,0.0,0.0,0.0,0.0,0.0,0.0,0.0,0.0,0.0,0.0,0.0,0.0,0.0,0.0,0.0,0.0,0.0,0.0,0.0,0.0,0.0,0.0,0.0,0.0,0.0,0.0,0.0,0.0,0.0,0.0,0.0,0.0,0.0,0.0,0.0,0.0,0.0,0.0,0.0,0.0,0.0,0.0,0.0,0.0,0.0,0.0,0.0,0.0,0.0,0.0,0.0,0.0,0.0,0.0,0.0,0.0,0.0,0.0,0.0,0.0,0.0,0.0,0.0,0.0,0.0,0.0,0.0,0.0,0.0,0.0,0.0,0.0,0.0,0.0,0.0,0.0,0.0,0.0,0.0,0.0,0.0,0.0,0.0,0.0,0.0,0.0,0.0,0.0,0.0,0.0,0.0,0.0,0.0,0.0,0.0,0.0,0.0,0.0,0.0,0.0,0.0,0.0,1.5327,1.5298,1.5298,1.5298,1.5298,1.5298,1.5314,0.0,0.0,0.0,0.0,0.0,0.0,0.0,0.0,0.0,0.0,0.0,0.0,0.0,0.0,0.0,0.0,0.0,0.0,0.0,0.0,0.0,0.0,0.0,0.0,0.0,0.0,0.0,0.0,0.0,0.0,0.0,0.0,0.0,0.0,0.0,0.0,0.0,0.0,0.0,0.0,0.0,0.0,0.0,0.0,0.0,0.0,0.0,0.0,0.0,0.0,0.0,0.0,0.0,0.0,0.0,0.0,0.0,0.0,0.0,0.0,0.0,0.0,0.0,0.0,0.0,0.0,0.0,0.0,0.0,0.0,0.0,0.0,0.0,0.0,0.0,0.0,0.0,0.0,0.0,0.0,0.0,0.0,0.0,0.0,0.0,0.0,0.0,0.0,0.0,0.0,0.0,0.0,0.0,0.0,0.0,0.0,0.0,0.0,0.0,0.0,0.0,0.0,0.0,0.0,0.0,0.0,0.0,0.0,0.0,1.5342,1.5298,1.5298,1.5298,1.5298,1.5328,0.0,0.0,0.0,0.0,0.0,0.0,0.0,0.0,0.0,0.0,0.0,0.0,0.0,0.0,0.0,0.0,0.0,0.0,0.0,0.0,0.0,0.0,0.0,0.0,0.0,0.0,0.0,0.0,0.0,0.0,0.0,0.0,0.0,0.0,0.0,0.0,0.0,0.0,0.0,0.0,0.0,0.0,0.0,0.0,0.0,0.0,0.0,0.0,0.0,0.0,0.0,0.0,0.0,0.0,0.0,0.0,0.0,0.0,0.0,0.0,0.0,0.0,0.0,0.0,0.0,0.0,0.0,0.0,0.0,0.0,0.0,0.0,0.0,0.0,0.0,0.0,0.0,0.0,0.0,0.0,0.0,0.0,0.0,0.0,0.0,0.0,0.0,0.0,0.0,0.0,0.0,0.0,0.0,0.0,0.0,0.0,0.0,0.0,0.0,0.0,0.0,0.0,0.0,0.0,0.0,0.0,0.0,0.0,0.0,1.6053,1.5777,1.5545,1.5313,1.5313,1.5373,1.5433,0.0,0.0,0.0,0.0,0.0,0.0,0.0,0.0,0.0,0.0,0.0,0.0,0.0,0.0,0.0,0.0,0.0,0.0,0.0,0.0,0.0,0.0,0.0,0.0,0.0,0.0,0.0,0.0,0.0,0.0,0.0,0.0,0.0,0.0,0.0,0.0,0.0,0.0,0.0,0.0,0.0,0.0,0.0,0.0,0.0,0.0,0.0,0.0,0.0,0.0,0.0,0.0,0.0,0.0,0.0,0.0,0.0,0.0,0.0,0.0,0.0,0.0,0.0,0.0,0.0,0.0,0.0,0.0,0.0,0.0,0.0,0.0,0.0,0.0,0.0,0.0,0.0,0.0,0.0,0.0,0.0,0.0,0.0,0.0,0.0,0.0,0.0,0.0,0.0,0.0,0.0,0.0,0.0,0.0,0.0,0.0,0.0,0.0,0.0,0.0,0.0,0.0,0.0,0.0,0.0,0.0,0.0,0.0,1.7258,1.6634,1.6053,1.5458,1.5475,1.5491,0.0,0.0,0.0,0.0,0.0,0.0,0.0,0.0,0.0,0.0,0.0,0.0,0.0,0.0,0.0,0.0,0.0,0.0,0.0,0.0,0.0,0.0,0.0,0.0,0.0,0.0,0.0,0.0,0.0,0.0,0.0,0.0,0.0,0.0,0.0,0.0,0.0,0.0,0.0,0.0,0.0,0.0,0.0,0.0,0.0,0.0,0.0,0.0,0.0,0.0,0.0,0.0,0.0,0.0,0.0,0.0,0.0,0.0,0.0,0.0,0.0,0.0,0.0,0.0,0.0,0.0,0.0,0.0,0.0,0.0,0.0,0.0,0.0,0.0,0.0,0.0,0.0,0.0,0.0,0.0,0.0,0.0,0.0,0.0,0.0,0.0,0.0,0.0,0.0,0.0,0.0,0.0,0.0,0.0,0.0,0.0,0.0,0.0,0.0,0.0,0.0,0.0,0.0,0.0,0.0,0.0,0.0,0.0,0.0,1.7969,1.7821,1.7461,1.6866,1.6379,1.6173,0.0,0.0,0.0,0.0,0.0,0.0,0.0,0.0,0.0,0.0,0.0,0.0,0.0,0.0,0.0,0.0,0.0,0.0,0.0,0.0,0.0,0.0,0.0,0.0,0.0,0.0,0.0,0.0,0.0,0.0,0.0,0.0,0.0,0.0,0.0,0.0,0.0,0.0,0.0,0.0,0.0,0.0,0.0,0.0,0.0,0.0,0.0,0.0,0.0,0.0,0.0,0.0,0.0,0.0,0.0,0.0,0.0,0.0,0.0,0.0,0.0,0.0,0.0,0.0,0.0,0.0,0.0,0.0,0.0,0.0,0.0,0.0,0.0,0.0,0.0,0.0,0.0,0.0,0.0,0.0,0.0,0.0,0.0,0.0,0.0,0.0,0.0,0.0,0.0,0.0,0.0,0.0,0.0,0.0,0.0,0.0,0.0,0.0,0.0,0.0,0.0,0.0,0.0,0.0,0.0,0.0,0.0,0.0,1.9001,1.8666,1.8724,1.8605,1.8308,1.7418,1.6931,0.0,0.0,0.0,0.0,0.0,0.0,0.0,0.0,0.0,0.0,0.0,0.0,0.0,0.0,0.0,0.0,0.0,0.0,0.0,0.0,0.0,0.0,0.0,0.0,0.0,0.0,0.0,0.0,0.0,0.0,0.0,0.0,0.0,0.0,0.0,0.0,0.0,0.0,0.0,0.0,0.0,0.0,0.0,0.0,0.0,0.0,0.0,0.0,0.0,0.0,0.0,0.0,0.0,0.0,0.0,0.0,0.0,0.0,0.0,0.0,0.0,0.0,0.0,0.0,0.0,0.0,0.0,0.0,0.0,0.0,0.0,0.0,0.0,0.0,0.0,0.0,0.0,0.0,0.0,0.0,0.0,0.0,0.0,0.0,0.0,0.0,0.0,0.0,0.0,0.0,0.0,0.0,0.0,0.0,0.0,0.0,0.0,0.0,0.0,0.0,0.0,0.0,0.0,0.0,0.0,0.0,0.0,0.0,1.9302,1.9302,1.9391,1.945,1.9545,1.8346,1.7699,0.0,0.0,0.0,0.0,0.0,0.0,0.0,0.0,0.0,0.0,0.0,0.0,0.0,0.0,0.0,0.0,0.0,0.0,0.0,0.0,0.0,0.0,0.0,0.0,0.0,0.0,0.0,0.0,0.0,0.0,0.0,0.0,0.0,0.0,0.0,0.0,0.0,0.0,0.0,0.0,0.0,0.0,0.0,0.0,0.0,0.0,0.0,0.0,0.0,0.0,0.0,0.0,0.0,0.0,0.0,0.0,0.0,0.0,0.0,0.0,0.0,0.0,0.0,0.0,0.0,0.0,0.0,0.0,0.0,0.0,0.0,0.0,0.0,0.0,0.0,0.0,0.0,0.0,0.0,0.0,0.0,0.0,0.0,0.0,0.0,0.0,0.0,0.0,0.0,0.0,0.0,0.0,0.0,0.0,0.0,0.0,0.0,0.0,0.0,0.0,0.0,0.0,0.0,0.0,0.0,0.0,0.0,0.0,1.9325,1.9376,1.9487,1.9574,1.9611,1.8812,1.8416,0.0,0.0,0.0,0.0,0.0,0.0,0.0,0.0,0.0,0.0,0.0,0.0,0.0,0.0,0.0,0.0,0.0,0.0,0.0,0.0,0.0,0.0,0.0,0.0,0.0,0.0,0.0,0.0,0.0,0.0,0.0,0.0,0.0,0.0,0.0,0.0,0.0,0.0,0.0,0.0,0.0,0.0,0.0,0.0,0.0,0.0,0.0,0.0,0.3276,0.0,0.0,0.0,0.0,0.0,0.0,0.0,0.0,0.0,0.0,0.0,0.0,0.0,0.0,0.0,0.0,0.0,0.0,0.0,0.0,0.0,0.0,0.0,0.0,0.0,0.0,0.0,0.0,0.0,0.0,0.0,0.0,0.0,0.0,0.0,0.0,0.0,0.0,0.0,0.0,0.0,0.0,0.0,0.0,0.0,0.0,0.0,0.0,0.0,0.0,0.0,0.0,0.0,0.0,0.0,0.0,0.0,0.0,0.0,1.9465,1.9501,1.9596,1.9632,1.9632,1.9289,1.9146,0.0,0.0,0.0,0.0,0.0,0.0,0.0,0.0,0.0,0.0,0.0,0.0,0.0,0.0,0.0,0.0,0.0,0.0,0.0,0.0,0.0,0.0,0.0,0.0,0.0,0.0,0.0,0.0,0.0,0.0,0.0,0.0,0.0,0.0,0.0,0.0,0.0,0.0,0.0,0.0,0.0,0.0,0.0,0.0,0.0,0.0,0.0,0.0,0.0,0.0,0.0,0.0,0.0,0.0,0.0,0.0,0.0,0.0,0.0,0.0,0.0,0.0,0.0,0.0,0.0,0.0,0.0,0.0,0.0,0.0,0.0,0.0,0.0,0.0,0.0,0.0,0.0,0.0,0.0,0.0,0.0,0.0,0.0,0.0,0.0,0.0,0.0,0.0,0.0,0.0,0.0,0.0,0.0,0.0,0.0,0.0,0.0,0.0,0.0,0.0,0.0,0.0,0.0,0.0,0.0,0.0,0.0,1.9543,1.9923,1.9923,1.9967,2.0004,1.9989,1.9884,1.9839,1.9839,0.0,0.0,0.0,0.0,0.0,0.0,0.0,0.0,0.0,0.0,0.0,0.0,0.0,0.0,0.0,0.0,0.0,0.0,0.0,0.0,0.0,0.0,0.0,0.0,0.0,0.0,0.0,0.0,0.0,0.0,0.0,0.0,0.0,0.0,0.0,0.0,0.0,0.0,0.2703,0.2356,0.0,0.0,0.0,0.0,0.0,0.0,0.0,0.0,0.2961,0.0,0.0,0.0,0.0,0.0,0.0,0.0,0.0,0.0,0.0,0.0,0.0,0.0,0.0,0.0,0.0,0.0,0.0,0.0,0.0,0.0,0.0,0.0,0.0,0.0,0.0,0.0,0.0,0.0,0.0,0.0,0.0,0.0,0.0,0.0,0.0,0.0,0.0,0.0,0.0,0.0,0.0,0.0,0.0,0.0,0.0,0.0,0.0,0.0,0.0,0.0,0.0,0.0,0.0,0.0,0.0,2.0299,2.086,2.1233,2.1326,2.1365,2.1365,2.135,2.0842,2.0543,2.0513,0.0,0.0,0.0,0.0,0.0,0.0,0.0,0.0,0.0,0.0,0.0,0.0,0.0,0.0,0.0,0.0,0.0,0.0,0.0,0.0,0.0,0.0,0.0,0.0,0.0,0.0,0.0,0.0,0.0,0.0,0.0,0.0,0.0,0.0,0.0,0.0,0.0,0.0,0.0,0.1724,0.1842,0.0,0.0,0.0,0.0,0.0,0.0,0.0,0.0,0.206,0.0,0.0,0.0,0.0,0.0,0.0,0.0,0.0,0.0,0.0,0.0,0.0,0.0,0.0,0.0,0.0,0.0,0.0,0.0,0.0,0.0,0.0,0.0,0.0,0.0,0.0,0.0,0.0,0.0,0.0,0.0,0.0,0.0,0.0,0.0,0.0,0.0,0.0,0.0,0.0,0.0,0.0,0.0,0.0,0.0,0.0,0.0,0.0,0.0,0.0,0.0,0.0,0.0,0.0,0.0,2.0316,2.1167,2.164,2.1695,2.1695,2.1695,2.168,2.138,2.1231,0.0,0.0,0.0,0.0,0.0,0.0,0.0,0.0,0.0,0.0,0.0,0.0,0.0,0.0,0.0,0.0,0.0,0.0,0.0,0.0,0.0,0.0,0.0,0.0,0.0,0.0,0.0,0.0,0.0,0.0,0.0,0.0,0.0,0.0,0.0,0.0,0.0,0.0,0.0,0.0,0.1206,0.1322,0.1722,0.0,0.0,0.0,0.0,0.0,0.0,0.179,0.179,0.0,0.0,0.0,0.0,0.0,0.0,0.0,0.0,0.0,0.0,0.0,0.0,0.0,0.0,0.0,0.0,0.0,0.0,0.0,0.0,0.0,0.0,0.0,0.0,0.0,0.0,0.0,0.0,0.0,0.0,0.0,0.0,0.0,0.0,0.0,0.0,0.0,0.0,0.0,0.0,0.0,0.0,0.0,0.0,0.0,0.0,0.0,0.0,0.0,0.0,0.0,0.0,0.0,0.0,0.0,2.0304,2.1491,2.2069,2.2084,2.2084,2.2069,2.2084,2.1949,2.1904,0.0,0.0,0.0,0.0,0.0,0.0,0.0,0.0,0.0,0.0,0.0,0.0,0.0,0.0,0.0,0.0,0.0,0.0,0.0,0.0,0.0,0.0,0.0,0.0,0.0,0.0,0.0,0.0,0.0,0.0,0.0,0.0,0.0,0.0,0.0,0.0,0.0,0.0,0.0,0.0,0.0,0.0924,0.1061,0.1399,0.0,0.0,0.0,0.0,0.1142,0.1429,0.0,0.0,0.0,0.0,0.0,0.0,0.0,0.0,0.0,0.0,0.0,0.0,0.0,0.0,0.0,0.0,0.0,0.0,0.0,0.0,0.0,0.0,0.0,0.0,0.0,0.0,0.0,0.0,0.0,0.0,0.0,0.0,0.0,0.0,0.0,0.0,0.0,0.0,0.0,0.0,0.0,0.0,0.0,0.0,0.0,0.0,0.0,0.0,0.0,0.0,0.0,0.0,0.0,0.0,0.0,0.0,2.1536,2.2717,2.3385,2.3385,2.3385,2.3385,2.337,2.2862,2.2562,0.0,0.0,0.0,0.0,0.0,0.0,0.0,0.0,0.0,0.0,0.0,0.0,0.0,0.0,0.0,0.0,0.0,0.0,0.0,0.0,0.0,0.0,0.0,0.0,0.0,0.0,0.0,0.0,0.0,0.0,0.0,0.0,0.0,0.0,0.0,0.0,0.0,0.0,0.0,0.0,0.0,0.106,0.1623,0.1289,0.1358,0.0,0.0,0.1182,0.1699,0.1404,0.0,0.0,0.0,0.0,0.0,0.0,0.0,0.0,0.0,0.0,0.0,0.0,0.0,0.0,0.0,0.0,0.0,0.0,0.0,0.0,0.0,0.0,0.0,0.0,0.0,0.0,0.0,0.0,0.0,0.0,0.0,0.0,0.0,0.0,0.0,0.0,0.0,0.0,0.0,0.0,0.0,0.0,0.0,0.0,0.0,0.0,0.0,0.0,0.0,0.0,0.0,0.0,0.0,0.0,0.0,2.21,2.2193,2.3084,2.3595,2.3595,2.3595,2.3595,2.3595,2.334,2.3206,0.0,0.0,0.0,0.0,0.0,0.0,0.0,0.0,0.0,0.0,0.0,0.0,0.0,0.0,0.0,0.0,0.0,0.0,0.0,0.0,0.0,0.0,0.0,0.0,0.0,0.0,0.0,0.0,0.0,0.0,0.0,0.0,0.0,0.0,0.0,0.0,0.0,0.0,0.0,0.0,0.0,0.0,0.1268,0.1406,0.0,0.0,0.0,0.1518,0.1417,0.0,0.0,0.0,0.0,0.0,0.0,0.0,0.0,0.0,0.0,0.0,0.0,0.0,0.0,0.0,0.0,0.0,0.0,0.0,0.0,0.0,0.0,0.0,0.0,0.0,0.0,0.0,0.0,0.0,0.0,0.0,0.0,0.0,0.0,0.0,0.0,0.0,0.0,0.0,0.0,0.0,0.0,0.0,0.0,0.0,0.0,0.0,0.0,0.0,0.0,0.0,0.0,0.0,0.0,0.0,0.0,0.0,2.2512,2.3201,2.361,2.3595,2.3595,2.3595,2.3595,2.3595,0.0,0.0,0.0,0.0,0.0,0.0,0.0,0.0,0.0,0.0,0.0,0.0,0.0,0.0,0.0,0.0,0.0,0.0,0.0,0.0,0.0,0.0,0.0,0.0,0.0,0.0,0.0,0.3898,0.0,0.0,0.0,0.0,0.0,0.0,0.0,0.0,0.0,0.0,0.0,0.0,0.0,0.0,0.0715,0.0715,0.1276,0.1484,0.0,0.0,0.1501,0.0946,0.0885,0.0885,0.0,0.0,0.0,0.0,0.0,0.0,0.0,0.0,0.0,0.0,0.0,0.0,0.0,0.0,0.0,0.0,0.0,0.0,0.0,0.0,0.0,0.0,0.0,0.0,0.0,0.0,0.0,0.0,0.0,0.0,0.0,0.0,0.0,0.0,0.0,0.0,0.0,0.0,0.0,0.0,0.0,0.0,0.0,0.0,0.0,0.0,0.0,0.0,0.0,0.0,0.0,0.0,0.0,0.0,0.0,2.2512,2.3172,2.3538,2.3595,2.3595,2.3595,2.3595,2.3595,2.3595,0.0,0.0,0.0,0.0,0.0,0.0,0.0,0.0,0.0,0.0,0.0,0.0,0.0,0.0,0.0,0.0,0.0,0.0,0.0,0.0,0.0,0.0,0.0,0.0,0.0,0.0,0.0,0.0,0.0,0.0,0.0,0.0,0.0,0.0,0.0,0.0,0.0,0.0,0.0,0.0,0.0,0.0246,0.0246,0.074,0.1061,0.0,0.0,0.052,0.0534,0.0536,0.067,0.1006,0.0,0.0,0.0,0.0,0.0,0.0,0.0,0.0,0.0,0.0,0.0,0.0,0.0,0.0,0.0,0.0,0.0,0.0,0.0,0.0,0.0,0.0,0.0,0.0,0.0,0.0,0.0,0.0,0.0,0.0,0.0,0.0,0.0,0.0,0.0,0.0,0.0,0.0,0.0,0.0,0.0,0.0,0.0,0.0,0.0,0.0,0.0,0.0,0.0,0.0,0.0,0.0,0.0,2.2095,2.2873,2.3187,2.3407,2.3392,2.3407,2.3451,2.3538,2.3767,2.3952,0.0,0.0,0.0,0.0,0.0,0.0,0.0,0.0,0.0,0.0,0.0,0.0,0.0,0.0,0.0,0.0,0.0,0.0,0.0,0.0,0.0,0.0,0.0,0.0,0.0,0.0,0.0,0.0,-0.012,-0.0543,-0.1811,0.0,0.0,0.0,0.0,0.0,0.0,0.0,0.0,0.0,0.0,-0.019,0.0127,0.045,0.0,0.0,0.0531,0.0399,0.0202,0.0202,0.027,0.0405,0.0405,0.0,0.0,0.0,0.0,0.0,0.0,0.0,0.0,0.0,0.0,0.0,0.0,0.0,0.0,0.0,0.0,0.0,0.0,0.0,0.0,0.0,0.0,0.0,0.0,0.0,0.0,0.0,0.0,0.0,0.0,0.0,0.0,0.0,0.0,0.0,0.0,0.0,0.0,0.0,0.0,0.0,0.0,0.0,0.0,0.0,0.0,0.0,0.0,0.0,0.0,0.0,0.0,2.2063,2.3097,2.3216,2.3334,2.3494,2.3494,2.3625,2.3882,2.4009,2.4204,0.0,0.0,0.0,0.0,0.0,0.0,0.0,0.0,0.0,0.0,0.0,0.0,0.0,0.0,0.0,0.0,0.0,0.0,0.0,0.0,0.0,0.0,0.0,0.0,0.0,0.0,0.0,0.0,-0.1791,-0.2366,-0.3708,0.0,0.0,0.0,0.0,0.0,0.0,0.0,0.0,0.0,0.0,-0.0652,-0.0326,0.0,0.0336,0.0606,0.0471,0.0269,0.0,0.0,0.0,0.0,0.0,0.0,0.0,0.0,0.0,0.0,0.0,0.0,0.0,0.0,0.0,0.0,0.0,0.0,0.0,0.0,0.0,0.0,0.0,0.0,0.0,0.0,0.0,0.0,0.0,0.0,0.0,0.0,0.0,0.0,0.0527,0.0,0.0,0.0,0.0,0.0,0.0,0.0,0.0,0.0,0.0,0.0,0.0,0.0,0.0,0.0,0.0,0.0,0.0,0.0,0.0,0.0,0.0,2.2324,2.3097,2.3082,2.3378,2.394,2.3982,2.4219,2.4679,2.4302,2.4287,2.4879,0.0,0.0,0.0,0.0,0.0,0.0,0.0,0.0,0.0,0.0,0.0,0.0,0.0,0.0,0.0,0.0,0.0,0.0,0.0,0.0,0.0,0.0,0.0,0.0,0.0,0.0,-0.2701,-0.4139,-0.5403,0.0,0.0,0.0,0.0,0.0,0.0,0.0,0.0,0.0,0.0,-0.1679,-0.1276,-0.1276,-0.0538,0.0202,0.0941,0.047,0.0,0.0,0.0,0.0,0.0,0.0,0.0,0.0,0.0,0.0,0.0,0.0,0.0,0.0,0.0,0.0,0.0,0.0,0.0,0.0,0.0,0.0,0.0,0.0,0.0,0.0,0.0,0.0,0.0,0.0,0.0,-0.2513,-0.2781,0.0,0.0,0.0,0.0,0.0,0.0,0.0,0.0,0.0,0.0,0.0,0.6125,0.6802,0.0,0.0,0.0,0.0,0.0,0.0,0.0,0.0,0.0,0.0,0.0,0.0,2.1969,2.2888,2.2992,2.3246,2.3696,2.3739,2.3994,2.4517,2.4639,2.4974,2.5567,0.0,0.0,0.0,0.0,0.0,0.0,0.0,0.0,0.0,0.0,0.0,0.0,0.0,0.0,0.0,0.0,0.0,0.0,0.0,0.0,0.0,0.0,0.0,0.0,0.0,-0.3739,0.0,0.0,0.0,0.0,0.0,0.0,0.0,0.0,0.0,0.0,0.0,-0.3685,-0.2952,-0.2284,-0.1748,-0.1344,-0.1276,-0.0939,0.0,0.0,0.0,0.0,0.0,0.0,0.0,0.0,0.0,0.0,0.0,0.0,0.0,0.0,0.0,0.0,0.0,0.0,0.0,0.0,0.0,0.0,0.0,0.0,0.0,0.0,0.0,0.0,0.0,0.0,0.0,0.0,0.0,-0.5745,0.0,-0.6436,0.0,0.0,0.0,0.0,0.0,0.0,0.0,0.0,-0.0066,0.0993,0.2317,0.3835,0.4898,0.0,0.756,0.9427,0.0,0.0,0.0,0.0,0.0,0.0,0.0,0.0,2.167,2.2812,2.2857,2.3201,2.3824,2.3937,2.4256,2.4823,2.5208,2.5416,2.5546,2.5775,2.5738,0.0,0.0,0.0,0.0,0.0,0.0,0.0,0.0,0.0,0.0,0.0,0.0,0.0,0.0,0.0,0.0,0.0,0.0,0.0,0.0,0.0,0.0,0.0,-0.6375,0.0,0.0,0.0,0.0,0.0,0.0,0.0,0.0,0.0,-0.6059,-0.5272,-0.4544,-0.3616,-0.2954,-0.2421,-0.2016,0.0,0.0,0.0,0.0,0.0,0.0,0.0,0.0,0.0,0.0,0.0,0.0,0.0,0.0,0.0,0.0,0.0,0.0,0.0,-0.0067,-0.0337,-0.0399,-0.033,-0.0202,-0.0066,0.0,0.0,0.0,0.0,0.0,0.0,0.0,0.0,0.0,-0.7891,-0.8398,0.0,-0.968,0.0,0.0,0.0,0.0,0.0,-0.6586,0.0,0.0,-0.3777,-0.3249,-0.3185,0.0464,0.2326,0.2457,0.4626,0.6546,0.8436,1.1162,0.0,0.0,0.0,0.0,0.0,0.0,2.1444,2.2704,2.2795,2.3319,2.4219,2.4527,2.5005,2.5663,2.5881,2.5626,2.4958,2.5852,2.6052,2.5379,2.5508,0.0,0.0,0.0,0.0,0.0,0.0,0.0,0.0,0.0,0.0,0.0,0.0,0.0,0.0,0.0,0.0,0.0,0.0,0.0,0.0,-0.8931,0.0,0.0,0.0,0.0,0.0,0.0,0.0,0.0,0.0,0.0,-0.7093,-0.6375,-0.5581,-0.4278,0.0,0.0,0.0,0.0,-0.3228,-0.3169,-0.2018,-0.0941,-0.0202,0.0,0.0,0.0,0.0,0.0,0.0,0.0,0.0,0.0,0.0,0.0,0.0,0.0,-0.027,-0.0877,-0.1011,-0.0944,-0.0607,-0.0337,0.0,-0.4584,0.0,0.0,0.0,0.0,-0.7445,-0.8099,-0.8698,-1.0014,-1.0753,-1.1105,-1.1936,0.0,0.0,0.0,0.0,0.0,0.0,-0.8701,-0.7173,-0.6742,-0.5948,-0.4745,-0.271,-0.1458,-0.0663,0.2248,0.4243,0.5387,0.8104,1.0885,1.3519,0.0,0.0,0.0,0.0,2.1479,2.2184,2.2737,2.3319,2.3909,2.423,2.4887,2.5859,2.6656,2.674,2.6125,2.698,2.7165,2.6555,2.6919,0.0,0.0,0.0,0.0,0.0,0.0,0.0,0.0,0.0,0.0,0.0,0.0,0.0,0.0,0.0,0.0,0.0,0.0,0.0,-1.0995,-1.1193,-1.169,0.0,0.0,0.0,0.0,0.0,0.0,0.0,0.0,0.0,-1.0046,-0.8055,-0.6371,0.0,0.0,-0.362,-0.3226,-0.3426,-0.3627,-0.35,-0.2889,0.0,-0.1949,-0.1679,-0.1141,-0.0134,-0.1682,-0.2427,-0.0337,0.0,-0.0202,-0.0674,-0.0809,-0.0674,-0.0405,-0.0607,-0.0742,-0.0742,-0.0877,-0.108,-0.0945,-0.0877,-0.0674,-0.7497,-0.7315,-0.7485,-0.8159,-0.9107,-1.0074,-1.0744,-1.1295,-1.2838,-1.3642,-1.4004,-1.5102,-1.5652,-1.5702,-1.5453,0.0,0.0,0.0,-1.2201,-1.0542,-1.0015,-0.9145,-0.8022,-0.6655,-0.5254,-0.3757,-0.1429,0.0614,0.24,0.5174,0.8306,1.1681,0.0,0.0,1.8248,1.9813,2.1197,2.2296,2.2814,2.3478,2.4415,2.508,2.5812,2.6736,2.7209,2.73,2.6971,2.7646,2.7826,2.7406,2.7689,2.78,0.0,0.0,0.0,0.0,0.0,0.0,0.0,0.0,0.0,0.0,0.0,-0.2071,-0.5718,0.0,0.0,0.0,-1.2518,-1.3331,-1.5087,-1.463,0.0,0.0,0.0,0.0,0.0,0.0,0.0,-1.3795,-1.2931,-1.2135,-1.1764,-0.9539,-0.7548,-0.6563,-0.5266,-0.422,-0.3694,0.0,-0.4095,-0.4036,-0.3761,-0.3623,-0.356,-0.3493,-0.2818,-0.1072,-0.2351,-0.337,-0.2223,-0.1477,-0.1074,-0.0874,-0.1008,-0.101,-0.0741,-0.0945,-0.108,-0.0809,-0.0945,-0.1079,-0.1078,-0.1078,-0.1012,-0.9943,-1.0591,-1.1136,-1.1489,-1.1716,-1.3204,-1.3884,-1.4073,-1.5869,-1.6687,-1.6917,-1.8594,-1.9188,-1.8907,-1.8599,0.0,-1.6805,-1.6628,-1.5949,-1.4862,-1.3259,-1.2535,-1.2468,-1.0797,-0.8917,-0.6838,-0.5863,-0.3717,-0.0501,0.227,0.558,0.949,1.1848,1.4666,1.7905,1.9206,2.0809,2.3035,2.3139,2.3997,2.5647,2.6674,2.7465,2.8021,2.7741,2.7581,2.7647,2.8073,2.826,2.8128,2.8077,2.7994,2.7815,0.0,0.0,0.0,0.0,0.0,0.0,0.0,0.0,0.0,0.0,0.0,0.0,0.0,0.0,0.0,-1.8756,0.0,-1.8784,-1.87,0.0,0.0,0.0,-1.6763,-1.5328,-1.5322,-1.5001,-1.4025,0.0,0.0,-1.2749,-1.0947,-0.9052,-0.7358,-0.5997,-0.5024,-0.4434,-0.4561,-0.4697,-0.464,-0.4706,-0.4706,-0.4706,-0.4982,-0.4509,-0.2684,-0.2619,-0.3429,-0.4381,-0.3696,-0.241,-0.1205,-0.1072,-0.1342,-0.1279,-0.1348,-0.128,-0.1348,-0.1214,-0.1078,-0.1076,-0.1077,-0.1079,-1.1319,-1.1787,-1.3515,-1.352,-1.2489,-1.4336,-1.5349,-1.5933,-1.7266,-1.8326,-1.9222,-1.9645,-1.9901,-2.0087,-2.0017,-1.9516,-1.8632,-1.8572,-1.813,-1.7369,-1.5984,-1.5287,-1.5223,-1.2772,-1.1093,-0.9929,-0.7979,-0.6084,-0.425,-0.1758,0.0913,0.3741,0.6291,1.1269,1.8264,1.9509,2.1471,2.4305,2.4924,2.6067,2.7849,2.8058,2.8525,2.9245,2.9103,2.8952,2.8804,2.9292,2.9433,2.9165,2.9285,2.933,2.929,2.7415,0.0,0.0,0.0,0.0,0.0,0.0,0.0,0.0,0.0,-1.4676,-1.6147,0.0,-1.9433,0.0,-2.0283,-2.0468,-2.0502,-2.0118,0.0,0.0,-1.8919,-1.8803,-1.9409,-1.823,-1.7291,-1.7236,-1.6095,-1.4993,-1.4319,-1.257,-1.0795,-0.9093,-0.7367,-0.6013,-0.5292,-0.5163,-0.5096,-0.4897,-0.4834,-0.4831,-0.503,-0.5239,-0.5113,-0.4236,-0.4303,-0.4645,-0.5189,-0.4849,-0.4167,-0.3286,-0.3151,-0.3084,-0.2684,-0.2683,-0.2683,-0.2616,-0.188,-0.1076,-0.1076,-0.1076,-0.1076,-1.3301,-1.3573,-1.5446,-1.5721,-1.516,-1.644,-1.7481,-1.8407,-1.9744,-2.0556,-2.1057,-2.189,-2.2464,-2.286,-2.286,-2.2325,-2.1409,-2.1292,-2.0748,-1.9855,-1.8689,-1.8165,-1.8092,-1.6244,-1.4756,-1.3512,-1.1592,-1.0469,-0.9845,-0.6527,-0.3975,-0.2068,0.0716,0.6095,1.3774,1.7171,2.0477,2.3985,2.6096,2.7673,2.875,2.9594,3.0323,3.0883,3.0887,3.0861,3.0839,3.0951,3.096,3.078,3.0472,3.0308,3.0328,2.783,2.6313,0.0,0.0,0.0,0.0,0.0,0.0,0.0,0.0,0.0,0.0,0.0,-2.4355,-2.4346,-2.4103,-2.393,-2.3817,-2.3233,-2.2669,-2.2107,-2.1499,-2.1129,-2.1104,-1.9875,-1.8867,-1.8437,-1.7071,-1.5914,-1.5303,-1.3579,-1.1958,-1.0732,-0.9279,-0.7752,-0.6404,-0.6145,-0.6075,-0.5877,-0.5943,-0.5881,-0.5745,-0.569,-0.5495,-0.5033,-0.4967,-0.5106,-0.5246,-0.5243,-0.497,-0.4228,-0.409,-0.3887,-0.3349,-0.3218,-0.3218,-0.3084,-0.2547,-0.1946,-0.1612,-0.1344,-0.1076,-1.5538,-1.5747,-1.7168,-1.8122,-1.8736,-1.9162,-1.99,-2.0819,-2.2213,-2.2784,-2.2772,-2.4368,-2.537,-2.5783,-2.5783,-2.5259,-2.4257,-2.4058,-2.3428,-2.2335,-2.1436,-2.0951,-2.09,-2.0028,-1.873,-1.7041,-1.5816,-1.5462,-1.5738,-1.1629,-0.8963,-0.7682,-0.5064,-0.0505,0.5899,1.2059,1.801,2.3682,2.7387,2.9349,2.9575,3.1205,3.2267,3.2622,3.2627,3.27,3.2864,3.2519,3.2322,3.2348,3.1388,3.0897,3.0921,2.7624,2.5584,0.0,2.0589,0.0,0.0,0.0,0.0,0.0,0.0,0.0,0.0,-2.936,-2.9298,-2.9286,-2.8346,-2.7582,-2.7298,-2.6691,-2.5814,-2.4563,-2.4225,-2.3488,-2.1974,-2.1244,-2.0373,-1.9248,-1.8009,-1.7059,-1.6405,-1.4675,-1.331,-1.2515,-1.1466,-1.0065,-0.8158,-0.7545,-0.7186,-0.7246,-0.7321,-0.699,-0.6597,-0.6272,-0.5943,-0.5415,-0.5219,-0.5153,-0.5156,-0.5292,-0.5229,-0.4622,-0.4489,-0.4287,-0.3551,-0.3549,-0.3551,-0.3618,-0.3416,-0.3084,-0.2414,-0.1879,-0.1411,-1.7533,-1.7735,-1.9519,-2.0923,-2.1908,-2.1993,-2.2066,-2.214,-2.2809,-2.3598,-2.4509,-2.5287,-2.5687,-2.5783,-2.5783,-2.5673,-2.5439,-2.5425,-2.5259,-2.5022,-2.4191,-2.3586,-2.3009,-2.164,-2.0493,-1.9501,-1.8806,-1.8268,-1.7754,-1.6351,-1.4492,-1.2319,-1.1112,-0.877,-0.5133,0.0,0.0,0.0,3.0781,3.2585,3.3018,3.3023,3.336,3.3969,3.3139,0.0,3.281,3.2499,3.2272,3.2219,3.1169,0.0,0.0,0.0,0.0,0.0,0.0,0.0,0.0,0.0,0.0,0.0,-1.7607,-2.3385,-2.9806,-2.9717,-2.9216,-2.9202,-2.9,-2.8527,-2.7689,-2.7543,-2.7043,-2.6043,-2.563,-2.5304,-2.4992,-2.4178,-2.3477,-2.3126,-2.1713,-2.026,-1.9045,-1.7705,-1.6276,-1.4817,-1.3786,-1.2987,-1.2028,-0.9622,-0.7797,-0.7451,-0.755,-0.7396,-0.7256,-0.6811,-0.6498,-0.6137,-0.5683,-0.5428,-0.5365,-0.5365,-0.5432,-0.5169,-0.5226,-0.5166,-0.4967,-0.4957,-0.4906,-0.4957,-0.4492,-0.3885,-0.3149,-0.2882,-0.2815,-2.0676,0.0,-2.244,-2.3647,0.0,-2.5005,-2.536,-2.5423,-2.4567,-2.4881,-2.5946,-2.6176,-2.639,-2.6707,-2.6707,-2.6496,-2.6244,-2.6244,-2.6068,-2.5783,-2.5398,-2.5051,-2.4727,-2.3658,-2.2912,-2.2322,-2.1431,-2.0934,-2.0797,-1.9436,-1.8315,-1.7506,-1.6158,-1.4577,-1.2413,-0.1118,1.1555,2.5408,2.9722,3.2374,3.3384,3.4079,3.4508,3.4685,3.4358,0.0,0.0,0.0,0.0,0.0,0.0,0.0,0.0,0.0,0.0,2.6138,2.4155,1.9078,1.0434,0.747,0.1418,-0.9487,-2.0499,-2.8124,-3.1243,-3.0944,-3.0699,-3.0911,-3.095,-3.0765,-3.0285,-3.0165,-2.9736,-2.8833,-2.8543,-2.8223,-2.7605,-2.7038,-2.6455,-2.5696,-2.4447,-2.3133,-2.1904,-2.0594,-1.9122,-1.7379,-1.6283,-1.524,-1.3753,-1.1595,-0.9838,-0.9376,-0.8974,-0.8778,-0.8508,-0.8228,-0.7769,-0.7426,-0.6735,-0.6269,-0.6135,-0.5809,-0.5494,-0.5559,-0.5579,-0.5579,-0.5579,-0.5579,-0.5579,-0.5579,-0.53,-0.4951,-0.4524,-0.3823,-0.3218,-2.3694,-2.3912,-2.5218,-2.6049,-2.6671,-2.7579,-2.8254,-2.8562,0.0,0.0,0.0,-2.7267,-2.7543,-2.8021,-2.8021,-2.775,-2.7281,-2.7164,-2.6842,-2.6386,-2.6218,-2.6122,-2.6014,-2.5591,-2.5204,-2.4829,-2.3754,-2.3489,-2.3871,-2.2175,-2.1705,-2.2256,-2.1038,-1.9648,-1.7322,-0.421,0.7591,1.7159,2.6186,3.1404,3.2663,3.4482,3.5309,3.5003,3.5294,3.5319,3.5056,3.4491,3.4018,3.3663,3.2715,3.1881,3.1181,2.9936,2.8714,2.7538,2.5554,2.1116,1.3751,1.0748,0.4357,-0.6705,-2.3158,-3.2539,-3.1948,-3.2008,-3.2244,-3.266,-3.2709,-3.2754,-3.2868,-3.2657,-3.2249,-3.155,-3.1392,-3.083,-2.984,-2.9585,-2.9023,-2.7914,-2.6869,-2.5802,-2.4646,-2.3324,-2.1838,-2.018,-1.8813,-1.7252,-1.512,-1.3207,-1.1899,-1.1621,-1.0983,-1.0429,-1.0101,-0.9667,-0.9397,-0.8722,-0.7947,-0.74,-0.7125,-0.6583,-0.6227,-0.6388,-0.6294,-0.6425,-0.6358,-0.6481,-0.6297,-0.6297,-0.6294,-0.6294,-0.6129,-0.5108,-0.4152,-2.5228,-2.5879,-2.7124,-2.804,-2.8744,-2.8759,-2.9009,-2.9391,-2.8803,-2.8689,-2.8798,-2.9327,-2.9569,-2.9674,-2.9674,-2.9622,-2.9524,-2.8943,-2.8634,-2.8501,-2.7946,-2.7408,-2.6916,-2.6864,-2.6467,-2.5835,-2.5699,-2.5699,-2.5644,-2.5813,-2.6007,-2.6136,-2.6627,-2.5334,-2.2101,-1.7259,-1.0545,-0.1714,2.0427,3.2039,3.2225,3.3923,3.4885,3.4971,3.4412,3.445,3.4504,3.3796,3.3652,3.356,3.2158,3.1285,3.0951,2.9359,2.8176,2.7026,2.6585,2.5236,2.2596,2.0991,1.2499,-0.4839,-2.1199,-3.0673,-3.1201,-3.1732,-3.2186,-3.2554,-3.2567,-3.2667,-3.3119,-3.2882,-3.2674,-3.2589,-3.2326,-3.1936,-3.1519,-3.1294,-3.0912,-3.0138,-2.9282,-2.8257,-2.7009,-2.5742,-2.4434,-2.2828,-2.1092,-1.9254,-1.7225,-1.4461,-1.3073,-1.3153,-1.2557,-1.1887,-1.1676,-1.0667,-1.0113,-0.9719,-0.9205,-0.8638,-0.8429,-0.8289,-0.8108,-0.8066,-0.8099,-0.8231,-0.8292,-0.8408,-0.8165,-0.8037,-0.7971,-0.7957,-0.7757,-0.7385,-0.6913,-2.8385,-2.8834,-2.974,-3.03,-3.0674,-3.1229,-3.1758,-3.2187,-3.2053,-3.113,-2.9879,-3.0105,-3.021,-3.0262,-3.0541,-3.049,-3.021,-3.0173,-2.9999,-2.9751,-2.9419,-2.93,-2.93,-2.8966,-2.8738,-2.8538,-2.8056,-2.7724,-2.7395,-2.7534,-2.7735,-2.8186,-2.959,-2.9678,-2.7997,-2.176,-1.6607,-1.2568,0.6664,1.7288,1.8439,2.1301,2.2534,2.1973,2.2294,2.2705,2.3085,2.1507,2.0764,2.0997,1.9388,2.008,2.3596,2.3374,2.448,2.737,2.6843,2.6016,2.5315,1.7946,0.8325,-0.4273,-2.0729,-3.0402,-3.0404,-3.144,-3.2327,-3.2974,-3.3317,-3.3623,-3.3935,-3.4031,-3.4121,-3.4311,-3.3946,-3.3698,-3.3632,-3.3327,-3.2951,-3.242,-3.1653,-3.0801,-2.9871,-2.8534,-2.7139,-2.5554,-2.3366,-2.1299,-2.0306,-1.8161,-1.6204,-1.5425,-1.4283,-1.3747,-1.367,-1.2987,-1.2361,-1.2228,-1.154,-1.0822,-1.026,-0.9913,-0.9405,-0.903,-0.9056,-0.9056,-0.9124,-0.9056,-0.8988,-0.8988,-0.8841,-0.8773,-0.8626,-0.8558,-0.8107,-3.1101,-3.1417,-3.2048,-3.2314,-3.2485,-3.3427,-3.4053,-3.4366,-3.4431,-3.3339,-3.153,-3.1299,-3.1299,-3.135,-3.177,-3.172,-3.1388,-3.1646,-3.1518,-3.1118,-3.0932,-3.11,-3.139,-3.0968,-3.0863,-3.0981,-3.0339,-2.9785,-2.9406,-2.917,-2.9345,-3.0079,-3.1636,-3.2704,-3.3041,-2.5742,-2.1806,-2.073,-0.9366,-0.0133,0.5978,0.998,1.1661,1.0913,1.2047,1.2836,1.3126,1.1262,1.0314,1.0581,0.9201,1.0666,1.5479,1.6099,1.8418,2.2951,2.2472,2.1593,2.068,0.9738,0.0272,-0.5466,-2.024,-2.9302,-2.9534,-3.0499,-3.1846,-3.312,-3.3822,-3.426,-3.453,-3.4908,-3.5307,-3.5506,-3.5271,-3.5048,-3.5233,-3.4944,-3.4552,-3.4177,-3.3548,-3.2805,-3.21,-3.0925,-2.9324,-2.7303,-2.5101,-2.3527,-2.2993,-2.1653,-1.9982,-1.8344,-1.6569,-1.5477,-1.5528,-1.4885,-1.4505,-1.4429,-1.3762,-1.2968,-1.2246,-1.1598,-1.1087,-1.0763,-1.0461,-1.0439,-1.0323,-1.0104,-1.0088,-1.0071,-0.9916,-0.9648,-0.9562,-0.9492,-0.8975,-3.2031,-3.2723,-3.3255,-3.3648,-3.3951,-3.448,-3.4496,-3.4267,-3.4593,-3.4655,-3.4297,-3.4137,-3.3991,-3.4023,-3.4087,-3.4103,-3.4005,-3.3667,-3.337,-3.3118,-3.2603,-3.2323,-3.2348,-3.2253,-3.2233,-3.2274,-3.2167,-3.2069,-3.1933,-3.1824,-3.1975,-3.2459,-3.2916,-3.3655,-3.4266,-3.2966,-3.1298,-2.9556,-2.5667,-1.4729,0.2659,0.7659,1.0003,1.0385,1.1473,1.2265,1.1413,1.1722,1.1391,1.152,1.021,1.0024,1.025,0.9642,0.9323,0.9702,0.9483,0.8632,0.7062,-0.2404,-0.8463,-1.069,-1.9212,-2.5997,-2.7983,-2.8434,-2.9847,-3.2375,-3.3295,-3.3814,-3.4621,-3.4878,-3.5089,-3.5386,-3.5444,-3.5571,-3.5586,-3.5403,-3.5127,-3.4851,-3.4358,-3.3846,-3.3019,-3.2163,-3.056,-2.8109,-2.6827,-2.5586,-2.4596,-2.3778,-2.3147,-2.2128,-1.9716,-1.7523,-1.7133,-1.6105,-1.5651,-1.5399,-1.4877,-1.4419,-1.4103,-1.4055,-1.4053,-1.3006,-1.3142,-1.2785,-1.2712,-1.2579,-1.1916,-1.1761,-1.1539,-1.1323,-1.1031,-1.0956,-1.0439,-3.3809,-3.4219,-3.4379,-3.4772,-3.5157,-3.5357,-3.5509,-3.5677,-3.5854,-3.5958,-3.5898,-3.5793,-3.5402,-3.4783,-3.5186,-3.5153,-3.4855,-3.4955,-3.481,-3.4451,-3.4136,-3.4169,-3.4459,-3.4573,-3.4542,-3.436,-3.4233,-3.4018,-3.3864,-3.4055,-3.4234,-3.4249,-3.4614,-3.4885,-3.497,-3.4293,-3.3086,-3.1345,-2.8056,-2.1432,-1.229,-0.6478,-0.3149,-0.1799,-0.0657,0.0066,0.0264,-0.092,-0.1507,-0.1183,-0.2193,-0.0918,0.3179,0.2576,0.3906,0.7343,0.7373,0.6519,0.5137,-0.3665,-0.9333,-1.0194,-1.9434,-2.5621,-2.6608,-2.8122,-2.9796,-3.1207,-3.2392,-3.3332,-3.4068,-3.4584,-3.5007,-3.5249,-3.5388,-3.5557,-3.574,-3.5664,-3.5494,-3.5224,-3.4855,-3.4452,-3.3849,-3.2929,-3.1479,-2.9723,-2.8873,-2.7967,-2.6935,-2.6084,-2.5378,-2.4681,-2.2571,-2.0653,-1.9445,-1.8305,-1.7561,-1.7229,-1.7033,-1.6757,-1.5852,-1.5711,-1.5508,-1.4736,-1.4458,-1.4243,-1.4019,-1.3954,-1.3593,-1.344,-1.3368,-1.3142,-1.2851,-1.2851,-1.2471,-3.5282,-3.5335,-3.5487,-3.5711,-3.602,-3.6165,-3.6367,-3.665,-3.6771,-3.6829,-3.6829,-3.6869,-3.6451,-3.5812,-3.6045,-3.5985,-3.5744,-3.6128,-3.6128,-3.5753,-3.5821,-3.6015,-3.634,-3.651,-3.6449,-3.6162,-3.6004,-3.5676,-3.5279,-3.5717,-3.5874,-3.5698,-3.6068,-3.6059,-3.548,-3.4788,-3.3507,-3.1521,-2.8068,-2.4535,-2.0459,-1.561,-1.2056,-1.0484,-0.8964,-0.7999,-0.7553,-0.9346,-1.0082,-0.9546,-1.0816,-0.915,-0.4017,-0.4191,-0.2514,0.1626,0.1361,0.0326,-0.0786,-0.7319,-1.1703,-1.3116,-2.031,-2.486,-2.5748,-2.739,-2.9064,-3.0392,-3.155,-3.2581,-3.3479,-3.4181,-3.4697,-3.5005,-3.5159,-3.5341,-3.5694,-3.5759,-3.5684,-3.5534,-3.5229,-3.4845,-3.4388,-3.3441,-3.2252,-3.1271,-3.0808,-3.0261,-2.9243,-2.8217,-2.7436,-2.6732,-2.5258,-2.3554,-2.1673,-2.0395,-1.9716,-1.9278,-1.9058,-1.8449,-1.7571,-1.7375,-1.7179,-1.6609,-1.5852,-1.5296,-1.5226,-1.5084,-1.4736,-1.4522,-1.4378,-1.4227,-1.3795,-1.3939,-1.3932,-3.6034,-3.5994,-3.6426,-3.6516,-3.6239,-3.6719,-3.6799,-3.6689,-3.6999,-3.717,-3.7208,-3.7339,-3.7339,-3.7208,-3.7094,-3.6995,-3.7034,-3.7283,-3.7358,-3.7208,-3.7452,-3.7506,-3.7376,-3.7542,-3.7524,-3.7345,-3.7327,-3.7024,-3.6448,-3.6678,-3.6693,-3.6599,-3.7099,-3.707,-3.6507,-3.5793,-3.4059,-3.1263,-2.7948,-2.3793,-1.8826,-1.4577,-1.2128,-1.0941,-0.8514,-0.7246,-0.754,-0.8309,-0.877,-0.877,-0.9528,-0.9712,-0.959,-1.0244,-1.0668,-1.1401,-1.3048,-1.405,-1.4119,-1.6278,-1.8268,-1.935,-2.0774,-2.276,-2.5066,-2.5912,-2.7429,-3.0137,-3.0857,-3.1742,-3.2849,-3.3607,-3.4141,-3.4595,-3.4698,-3.5051,-3.5533,-3.5643,-3.5689,-3.5759,-3.5592,-3.5155,-3.4524,-3.3795,-3.3056,-3.2373,-3.2091,-3.1685,-3.0644,-3.0029,-2.9399,-2.8545,-2.731,-2.5785,-2.3754,-2.2384,-2.1572,-2.1095,-2.0565,-2.0009,-1.952,-1.9145,-1.888,-1.8479,-1.7571,-1.6886,-1.648,-1.5992,-1.5359,-1.5013,-1.4807,-1.4585,-1.4728,-1.4227,-1.4363,-3.734,-3.7434,-3.7631,-3.7578,-3.7324,-3.7487,-3.756,-3.7524,-3.7683,-3.7855,-3.7972,-3.8099,-3.8005,-3.7738,-3.7859,-3.7738,-3.7466,-3.7613,-3.7631,-3.7613,-3.7739,-3.7843,-3.7959,-3.8172,-3.8327,-3.8401,-3.8556,-3.8674,-3.867,-3.8794,-3.8631,-3.8343,-3.8447,-3.8181,-3.7301,-3.6146,-3.4357,-3.1854,-2.8451,-2.4163,-1.9277,-1.5427,-1.2411,-1.0237,-0.8313,-0.7257,-0.7088,-0.7868,-0.8183,-0.794,-0.8246,-0.8394,-0.8623,-1.0056,-1.1409,-1.2224,-1.36,-1.4879,-1.5965,-1.7201,-1.8783,-2.0602,-2.153,-2.2724,-2.4517,-2.5887,-2.7335,-2.8914,-3.0344,-3.1281,-3.1952,-3.3105,-3.413,-3.4442,-3.4774,-3.5078,-3.5442,-3.5639,-3.5772,-3.5839,-3.5683,-3.5369,-3.4863,-3.4346,-3.3802,-3.3161,-3.2893,-3.2464,-3.1899,-3.1264,-3.065,-3.0203,-2.9211,-2.8027,-2.7384,-2.5053,-2.356,-2.2865,-2.2262,-2.1784,-2.1311,-2.0459,-2.0084,-1.9738,-1.9007,-1.8382,-1.79,-1.7316,-1.6609,-1.6419,-1.614,-1.5799,-1.5877,-1.579,-1.5869,-3.814,-3.8319,-3.8363,-3.8332,-3.8237,-3.8218,-3.8332,-3.8438,-3.8469,-3.8559,-3.867,-3.8738,-3.863,-3.8394,-3.8536,-3.84,-3.8016,-3.8016,-3.805,-3.8065,-3.8277,-3.8444,-3.8589,-3.884,-3.8989,-3.9059,-3.9271,-3.9554,-3.9812,-3.9966,-3.9861,-3.9584,-3.9675,-3.9181,-3.8074,-3.6663,-3.477,-3.2102,-2.8334,-2.4055,-1.9676,-1.5777,-1.2459,-0.9932,-0.8784,-0.7953,-0.7165,-0.7872,-0.8259,-0.8241,-0.8318,-0.8618,-0.9064,-1.034,-1.1613,-1.2579,-1.4148,-1.5483,-1.6702,-1.7871,-1.9302,-2.0921,-2.2139,-2.3382,-2.4657,-2.6246,-2.7545,-2.8685,-2.9982,-3.0999,-3.1517,-3.2656,-3.3697,-3.4061,-3.4489,-3.4887,-3.5254,-3.5485,-3.5682,-3.5834,-3.5752,-3.5493,-3.5162,-3.4816,-3.4344,-3.3788,-3.3533,-3.3266,-3.2777,-3.2178,-3.161,-3.1353,-3.0377,-2.9659,-2.9035,-2.7531,-2.5877,-2.5039,-2.4239,-2.3677,-2.2937,-2.2116,-2.1448,-2.0974,-2.0426,-1.9825,-1.9201,-1.8623,-1.8297,-1.8162,-1.7687,-1.7189,-1.7345,-1.756,-1.7413,-3.8444,-3.8504,-3.8556,-3.8766,-3.8888,-3.8869,-3.9016,-3.9133,-3.916,-3.9205,-3.9231,-3.9212,-3.9212,-3.916,-3.9178,-3.9036,-3.8781,-3.8722,-3.8693,-3.8741,-3.9216,-3.9371,-3.9282,-3.9566,-3.9637,-3.9467,-3.9435,-3.9542,-3.9834,-4.0079,-4.0217,-4.039,-4.0519,-4.0019,-3.8895,-3.7378,-3.5187,-3.1936,-2.7856,-2.354,-1.9452,-1.5822,-1.2611,-1.0129,-1.0062,-0.9549,-0.7842,-0.8461,-0.8998,-0.9523,-1.0056,-1.0962,-1.1539,-1.2024,-1.2677,-1.4235,-1.6244,-1.7474,-1.8016,-1.9695,-2.0719,-2.1491,-2.2761,-2.4053,-2.5135,-2.6457,-2.7856,-2.9041,-3.0091,-3.0948,-3.1432,-3.2092,-3.2836,-3.3411,-3.3899,-3.43,-3.4793,-3.5097,-3.5394,-3.5773,-3.5833,-3.5656,-3.5387,-3.5143,-3.4767,-3.4311,-3.4037,-3.3802,-3.3284,-3.2777,-3.2316,-3.1773,-3.1198,-3.0704,-3.0352,-2.9886,-2.8529,-2.7325,-2.6399,-2.5697,-2.4857,-2.405,-2.3469,-2.3018,-2.214,-2.1561,-2.0737,-2.0095,-1.941,-1.9145,-1.8757,-1.8365,-1.824,-1.824,-1.8297,-3.9308,-3.9432,-3.9476,-3.9451,-3.9396,-3.9396,-3.9451,-3.9552,-3.9599,-3.9687,-3.981,-3.9939,-3.9797,-3.9552,-3.9576,-3.9505,-3.9314,-3.9432,-3.9333,-3.909,-3.9402,-3.9641,-3.975,-3.992,-4.0081,-4.021,-4.0227,-4.0323,-4.0488,-4.0595,-4.0699,-4.0784,-4.0715,-4.038,-3.9696,-3.7782,-3.5377,-3.2542,-2.8931,-2.4689,-2.0086,-1.7617,-1.487,-1.1913,-1.2071,-1.2018,-1.1316,-1.0461,-0.9895,-0.9895,-1.0479,-1.1508,-1.2757,-1.3439,-1.4165,-1.528,-1.6867,-1.8208,-1.9007,-2.0084,-2.1353,-2.2274,-2.3135,-2.4155,-2.5549,-2.6591,-2.7724,-2.8841,-2.9837,-3.0617,-3.1133,-3.1809,-3.2563,-3.3259,-3.3597,-3.4078,-3.4718,-3.5147,-3.5503,-3.578,-3.5894,-3.5867,-3.5693,-3.5469,-3.5105,-3.4699,-3.4392,-3.4031,-3.376,-3.3332,-3.297,-3.253,-3.2074,-3.1548,-3.1167,-3.0714,-2.9821,-2.8669,-2.7859,-2.7085,-2.6395,-2.5739,-2.5273,-2.4646,-2.3845,-2.3106,-2.2299,-2.1506,-2.0749,-2.0106,-1.9771,-1.9323,-1.8757,-1.8824,-1.9212,-3.9911,-4.0015,-4.0077,-4.0038,-3.9895,-3.9873,-3.9897,-3.9962,-3.9963,-4.008,-4.0215,-4.0308,-4.0177,-3.9943,-3.9982,-3.9918,-3.9743,-4.0002,-3.9861,-3.9543,-3.975,-3.9963,-4.0101,-4.023,-4.0386,-4.0593,-4.064,-4.0738,-4.0887,-4.0902,-4.092,-4.091,-4.0774,-4.046,-3.9964,-3.8271,-3.6017,-3.3127,-3.0069,-2.602,-2.1777,-1.9469,-1.7196,-1.4709,-1.4561,-1.4822,-1.4775,-1.3519,-1.2424,-1.1864,-1.2211,-1.3288,-1.4593,-1.5337,-1.5974,-1.6849,-1.8026,-1.9312,-2.0149,-2.0962,-2.1854,-2.3195,-2.391,-2.4856,-2.6183,-2.7172,-2.8338,-2.9178,-3.0064,-3.0788,-3.1425,-3.1952,-3.2642,-3.3252,-3.3668,-3.413,-3.4737,-3.5205,-3.5562,-3.5768,-3.5929,-3.5937,-3.5851,-3.5699,-3.5353,-3.5047,-3.468,-3.4338,-3.4099,-3.3652,-3.3325,-3.2996,-3.2502,-3.2109,-3.1858,-3.1376,-3.0891,-2.994,-2.9009,-2.8242,-2.747,-2.6828,-2.6275,-2.5685,-2.4954,-2.4346,-2.3605,-2.2737,-2.1942,-2.142,-2.0917,-2.0737,-2.0429,-2.0375,-2.0568,-4.0215,-4.0215,-4.0326,-4.0362,-4.0344,-4.0289,-4.0289,-4.0362,-4.0325,-4.0325,-4.0379,-4.0396,-4.0396,-4.0396,-4.0362,-4.0272,-4.0213,-4.0325,-4.0339,-4.0234,-4.0307,-4.0375,-4.0406,-4.05,-4.0574,-4.0681,-4.0688,-4.0768,-4.091,-4.0914,-4.0899,-4.0906,-4.0857,-4.056,-3.9795,-3.8864,-3.6744,-3.3615,-3.0892,-2.7297,-2.3025,-2.1098,-1.9238,-1.7269,-1.7064,-1.7267,-1.7655,-1.6904,-1.5852,-1.4775,-1.5026,-1.5844,-1.6899,-1.7494,-1.7996,-1.8583,-1.9879,-2.0794,-2.1502,-2.2063,-2.298,-2.4111,-2.5135,-2.6232,-2.699,-2.8323,-2.9419,-3.0084,-3.0737,-3.1418,-3.2057,-3.2479,-3.2985,-3.357,-3.3975,-3.4427,-3.4971,-3.5254,-3.5507,-3.5786,-3.589,-3.5898,-3.5898,-3.5814,-3.5589,-3.5276,-3.4942,-3.466,-3.4338,-3.3949,-3.3542,-3.3166,-3.2795,-3.2453,-3.2127,-3.1765,-3.1223,-3.0575,-2.974,-2.9102,-2.8367,-2.77,-2.7166,-2.6582,-2.5943,-2.5398,-2.4797,-2.3878,-2.3182,-2.2579,-2.2335,-2.2347,-2.2039,-2.1655,-2.1404,-4.0326,-4.0271,-4.0362,-4.0398,-4.0398,-4.0398,-4.0379,-4.0415,-4.0432,-4.0411,-4.0408,-4.046,-4.0492,-4.0527,-4.0492,-4.046,-4.0463,-4.0527,-4.0549,-4.0515,-4.0515,-4.0549,-4.0545,-4.0593,-4.0629,-4.07,-4.0725,-4.0809,-4.0945,-4.0929,-4.0929,-4.0977,-4.0877,-4.0548,-3.9891,-3.9083,-3.6942,-3.3862,-3.1124,-2.7809,-2.4033,-2.1713,-2.0139,-1.9214,-1.8721,-1.8808,-1.922,-1.8751,-1.7968,-1.7064,-1.7133,-1.761,-1.8449,-1.9048,-1.964,-2.0278,-2.1026,-2.2051,-2.2955,-2.3327,-2.4066,-2.5287,-2.6023,-2.6784,-2.8051,-2.8917,-2.9843,-3.0599,-3.1249,-3.1898,-3.2515,-3.2973,-3.3488,-3.4181,-3.4413,-3.4609,-3.4906,-3.5124,-3.5379,-3.5687,-3.5845,-3.5898,-3.5937,-3.589,-3.5743,-3.5456,-3.5133,-3.4829,-3.4578,-3.4242,-3.3847,-3.3496,-3.31,-3.2713,-3.2351,-3.2002,-3.1562,-3.0993,-3.0352,-2.9816,-2.9012,-2.8253,-2.778,-2.7297,-2.6544,-2.5957,-2.555,-2.4951,-2.4323,-2.3518,-2.3399,-2.3148,-2.2408,-2.1978,-2.1978,-4.0432,-4.0396,-4.0411,-4.0427,-4.0447,-4.0427,-4.0463,-4.0499,-4.0515,-4.0508,-4.0504,-4.0515,-4.0583,-4.0598,-4.0569,-4.0569,-4.0622,-4.0651,-4.0654,-4.0688,-4.0681,-4.0675,-4.0662,-4.0675,-4.0713,-4.0738,-4.0776,-4.0869,-4.0972,-4.0957,-4.0953,-4.0972,-4.0872,-4.0567,-4.0076,-3.927,-3.7349,-3.432,-3.1781,-2.8847,-2.5298,-2.3242,-2.2053,-2.1336,-2.0846,-2.0741,-2.121,-2.1295,-2.0595,-1.9291,-1.8859,-1.9257,-2.0128,-2.059,-2.1152,-2.1844,-2.236,-2.311,-2.4155,-2.4443,-2.5051,-2.6212,-2.6879,-2.7758,-2.8825,-2.968,-3.0606,-3.1346,-3.1898,-3.2482,-3.31,-3.357,-3.411,-3.4632,-3.4791,-3.487,-3.5016,-3.5203,-3.5416,-3.565,-3.5819,-3.5933,-3.5973,-3.5927,-3.5821,-3.5616,-3.5316,-3.5101,-3.4906,-3.4534,-3.4213,-3.388,-3.3543,-3.3183,-3.2759,-3.2385,-3.1877,-3.1287,-3.0575,-3.0133,-2.9496,-2.87,-2.8268,-2.778,-2.7144,-2.6573,-2.6108,-2.5591,-2.4808,-2.4234,-2.406,-2.378,-2.3185,-2.2592,-2.258,-4.0499,-4.0499,-4.0489,-4.0504,-4.0523,-4.0504,-4.0539,-4.0569,-4.0588,-4.0598,-4.0607,-4.0607,-4.0621,-4.0621,-4.0621,-4.0646,-4.0709,-4.0693,-4.072,-4.0769,-4.0773,-4.0761,-4.072,-4.0781,-4.0784,-4.0804,-4.0878,-4.0921,-4.0979,-4.0981,-4.1,-4.0995,-4.0893,-4.0604,-4.0117,-3.951,-3.7562,-3.4936,-3.273,-3.0186,-2.7255,-2.5259,-2.4063,-2.3377,-2.2845,-2.2832,-2.3357,-2.367,-2.3043,-2.0632,-2.0515,-2.1192,-2.2089,-2.2163,-2.2615,-2.3357,-2.3638,-2.4231,-2.5246,-2.5576,-2.6062,-2.7217,-2.8097,-2.8841,-2.9641,-3.0542,-3.1384,-3.2004,-3.2548,-3.3082,-3.3688,-3.4274,-3.4612,-3.4926,-3.5037,-3.5141,-3.5235,-3.5391,-3.5543,-3.5679,-3.5791,-3.5916,-3.595,-3.5938,-3.5878,-3.5726,-3.5444,-3.5249,-3.5081,-3.4832,-3.4572,-3.4367,-3.4031,-3.3668,-3.3212,-3.2777,-3.2213,-3.1625,-3.0737,-3.0149,-2.9673,-2.9044,-2.8653,-2.8107,-2.7312,-2.6849,-2.6587,-2.5946,-2.509,-2.4664,-2.4363,-2.4313,-2.4158,-2.3631,-2.3366,-4.0562,-4.0508,-4.0564,-4.0574,-4.0593,-4.0593,-4.0593,-4.0593,-4.0593,-4.064,-4.0668,-4.0687,-4.07,-4.0746,-4.0688,-4.0707,-4.0784,-4.0739,-4.0745,-4.08,-4.0796,-4.0796,-4.0804,-4.0856,-4.0837,-4.0848,-4.0869,-4.0937,-4.0993,-4.1007,-4.1022,-4.1072,-4.0967,-4.0719,-4.0221,-3.93,-3.7803,-3.5478,-3.3188,-3.0941,-2.8774,-2.6941,-2.5678,-2.486,-2.4336,-2.4147,-2.4204,-2.4306,-2.4063,-2.3658,-2.3528,-2.3677,-2.3742,-2.3742,-2.4147,-2.4617,-2.4799,-2.5301,-2.6304,-2.6916,-2.7475,-2.8384,-2.9134,-2.9876,-3.0444,-3.1116,-3.1861,-3.2453,-3.2996,-3.3579,-3.416,-3.4545,-3.4793,-3.4996,-3.5193,-3.5359,-3.5406,-3.5476,-3.5546,-3.563,-3.5735,-3.5867,-3.5971,-3.5928,-3.5862,-3.5766,-3.5596,-3.5383,-3.5232,-3.5083,-3.4889,-3.4672,-3.4375,-3.3975,-3.3515,-3.3027,-3.2384,-3.1752,-3.0914,-3.0234,-2.9745,-2.9166,-2.87,-2.8107,-2.7378,-2.7004,-2.6692,-2.5837,-2.4878,-2.4721,-2.466,-2.4646,-2.4557,-2.4197,-2.4098,-4.0588,-4.0564,-4.0593,-4.0588,-4.0607,-4.0621,-4.0654,-4.0635,-4.0681,-4.0713,-4.0746,-4.0746,-4.0759,-4.079,-4.0764,-4.0776,-4.0788,-4.0812,-4.0823,-4.0846,-4.0848,-4.0839,-4.0848,-4.0888,-4.0868,-4.0868,-4.0932,-4.0967,-4.1007,-4.1031,-4.107,-4.1087,-4.1015,-4.0792,-4.0284,-3.927,-3.781,-3.5956,-3.3786,-3.1716,-3.0079,-2.8449,-2.7151,-2.6402,-2.6146,-2.616,-2.6227,-2.6504,-2.6607,-2.6607,-2.6578,-2.5948,-2.4927,-2.4829,-2.5273,-2.6087,-2.6076,-2.6799,-2.7838,-2.8194,-2.8497,-2.9257,-2.9924,-3.0444,-3.1055,-3.1681,-3.2316,-3.2858,-3.3429,-3.3961,-3.4502,-3.4691,-3.4889,-3.5114,-3.5311,-3.5419,-3.5469,-3.556,-3.562,-3.5677,-3.5763,-3.5859,-3.5929,-3.5917,-3.5842,-3.5747,-3.5718,-3.5526,-3.5483,-3.5302,-3.5081,-3.487,-3.4597,-3.4232,-3.3776,-3.3207,-3.2535,-3.1825,-3.1089,-3.0468,-2.9989,-2.9332,-2.8636,-2.8057,-2.7545,-2.7004,-2.652,-2.5618,-2.4991,-2.4835,-2.4771,-2.4877,-2.4899,-2.4619,-2.4625,-4.0598,-4.0588,-4.0621,-4.0621,-4.0635,-4.0681,-4.0713,-4.0713,-4.0778,-4.079,-4.079,-4.079,-4.079,-4.0803,-4.0808,-4.08,-4.0823,-4.0856,-4.0897,-4.0877,-4.0888,-4.0898,-4.0917,-4.0917,-4.0898,-4.0917,-4.0964,-4.0987,-4.1006,-4.1046,-4.1088,-4.1087,-4.1054,-4.0716,-4.0176,-3.9165,-3.7717,-3.6003,-3.4244,-3.2802,-3.1543,-3.0096,-2.8952,-2.8264,-2.8137,-2.8247,-2.8278,-2.8576,-2.898,-2.912,-2.9164,-2.7941,-2.6518,-2.5912,-2.6299,-2.7724,-2.7505,-2.8082,-2.8949,-2.9225,-2.9377,-2.9924,-3.046,-3.0897,-3.1479,-3.2126,-3.2745,-3.3207,-3.3707,-3.4237,-3.4734,-3.4908,-3.5051,-3.5243,-3.538,-3.5469,-3.5519,-3.5674,-3.5755,-3.5739,-3.5795,-3.5882,-3.5912,-3.5885,-3.5811,-3.5726,-3.5718,-3.5669,-3.5593,-3.5464,-3.5181,-3.4925,-3.4655,-3.4115,-3.3661,-3.3148,-3.2468,-3.2003,-3.124,-3.073,-3.0302,-2.9805,-2.9136,-2.8317,-2.771,-2.7159,-2.6573,-2.5906,-2.5384,-2.5005,-2.4828,-2.4856,-2.4932,-2.5017,-2.5016,-4.0579,-4.0602,-4.0713,-4.0759,-4.0778,-4.0778,-4.0778,-4.079,-4.079,-4.079,-4.079,-4.079,-4.0803,-4.0815,-4.0804,-4.0826,-4.0867,-4.0888,-4.0888,-4.0888,-4.0898,-4.0917,-4.0943,-4.0945,-4.0926,-4.0968,-4.0993,-4.1007,-4.1013,-4.1061,-4.1114,-4.1101,-4.1015,-4.0602,-3.9668,-3.8612,-3.7338,-3.5927,-3.4437,-3.3284,-3.2606,-3.1794,-3.0946,-3.0195,-2.9962,-2.974,-2.956,-2.9548,-2.9464,-2.915,-2.9164,-2.8963,-2.8561,-2.8529,-2.867,-2.8607,-2.8841,-2.9252,-2.9729,-2.9978,-3.0149,-3.0567,-3.1133,-3.1642,-3.2109,-3.2598,-3.3087,-3.3439,-3.3906,-3.4445,-3.4813,-3.5032,-3.5247,-3.5412,-3.5568,-3.5715,-3.5781,-3.5846,-3.5892,-3.5822,-3.5859,-3.5884,-3.5894,-3.5872,-3.5788,-3.5727,-3.5679,-3.5604,-3.5496,-3.5355,-3.5117,-3.487,-3.463,-3.4025,-3.3429,-3.2903,-3.2351,-3.2073,-3.1487,-3.1004,-3.0567,-3.0335,-2.9717,-2.8716,-2.791,-2.7363,-2.673,-2.6122,-2.566,-2.523,-2.5,-2.482,-2.4932,-2.5082,-2.5127,-4.0693,-4.0713,-4.0778,-4.079,-4.079,-4.079,-4.079,-4.079,-4.079,-4.0803,-4.0796,-4.0796,-4.0808,-4.0812,-4.0846,-4.0877,-4.0898,-4.0888,-4.0888,-4.0888,-4.0907,-4.0954,-4.0996,-4.0971,-4.098,-4.1011,-4.1026,-4.1039,-4.1033,-4.1058,-4.1101,-4.0973,-4.0722,-4.0134,-3.9293,-3.799,-3.6895,-3.5679,-3.4609,-3.3758,-3.3439,-3.2867,-3.2262,-3.1775,-3.1411,-3.113,-3.0954,-3.0767,-3.0704,-3.0583,-3.059,-3.0549,-3.0492,-3.0573,-3.0533,-3.0009,-3.0035,-3.0385,-3.0664,-3.096,-3.1099,-3.1325,-3.1844,-3.2316,-3.2666,-3.3014,-3.3411,-3.3828,-3.42,-3.4695,-3.5032,-3.52,-3.5355,-3.5507,-3.5669,-3.5774,-3.5841,-3.5901,-3.5906,-3.5884,-3.5893,-3.5899,-3.5891,-3.5845,-3.5782,-3.5728,-3.5648,-3.5534,-3.5388,-3.52,-3.4997,-3.4655,-3.4348,-3.3821,-3.3225,-3.2763,-3.23,-3.2038,-3.16,-3.1123,-3.0625,-3.0251,-2.9661,-2.8811,-2.814,-2.765,-2.7093,-2.6587,-2.6014,-2.5397,-2.5116,-2.4922,-2.5044,-2.5148,-2.5075,-4.0739,-4.0778,-4.079,-4.079,-4.079,-4.079,-4.079,-4.079,-4.079,-4.0803,-4.0788,-4.08,-4.0792,-4.0807,-4.0848,-4.0898,-4.0888,-4.0888,-4.0907,-4.0907,-4.0888,-4.0935,-4.0976,-4.0996,-4.1023,-4.1039,-4.107,-4.1081,-4.1031,-4.1062,-4.111,-4.0898,-4.0308,-3.9657,-3.8986,-3.7624,-3.6603,-3.5646,-3.4836,-3.4173,-3.3805,-3.3449,-3.3033,-3.2706,-3.2482,-3.2315,-3.2109,-3.1933,-3.1826,-3.179,-3.1826,-3.1826,-3.1757,-3.2144,-3.2039,-3.1428,-3.1227,-3.1519,-3.179,-3.1862,-3.1881,-3.2039,-3.24,-3.284,-3.3237,-3.3505,-3.3792,-3.436,-3.4676,-3.498,-3.5232,-3.5326,-3.5443,-3.5574,-3.5704,-3.5805,-3.5834,-3.5888,-3.5956,-3.5951,-3.5923,-3.5914,-3.5891,-3.5795,-3.5727,-3.5618,-3.555,-3.5359,-3.5216,-3.5032,-3.4794,-3.4379,-3.4,-3.3542,-3.3063,-3.2702,-3.2318,-3.202,-3.1562,-3.1044,-3.0502,-3.0054,-2.9409,-2.8951,-2.8653,-2.8174,-2.76,-2.6886,-2.6162,-2.5591,-2.5216,-2.5013,-2.4936,-2.4846,-2.4713,-4.0712,-4.0713,-4.0778,-4.079,-4.079,-4.079,-4.079,-4.0803,-4.0803,-4.0815,-4.08,-4.08,-4.0804,-4.0818,-4.0858,-4.0898,-4.0898,-4.0888,-4.0888,-4.0888,-4.0888,-4.0932,-4.0986,-4.0991,-4.1039,-4.107,-4.1086,-4.1075,-4.1037,-4.1078,-4.1052,-4.0853,-4.0162,-3.9462,-3.8493,-3.725,-3.6389,-3.5479,-3.487,-3.4394,-3.4012,-3.3935,-3.3733,-3.3532,-3.3379,-3.3154,-3.2809,-3.2695,-3.2613,-3.2396,-3.2247,-3.2246,-3.2459,-3.2727,-3.2908,-3.2731,-3.2517,-3.2282,-3.2417,-3.2464,-3.253,-3.2727,-3.2996,-3.3296,-3.367,-3.411,-3.4492,-3.4925,-3.5047,-3.5181,-3.5416,-3.554,-3.562,-3.5689,-3.5772,-3.5836,-3.5879,-3.5897,-3.597,-3.5952,-3.5903,-3.588,-3.5866,-3.576,-3.5659,-3.5554,-3.5412,-3.5224,-3.5066,-3.4889,-3.4655,-3.4284,-3.3795,-3.3343,-3.3001,-3.2603,-3.2249,-3.1984,-3.147,-3.0965,-3.0502,-3.0054,-2.9589,-2.9152,-2.892,-2.8431,-2.7665,-2.6938,-2.6254,-2.5797,-2.5481,-2.5061,-2.4704,-2.458,-2.4465,-4.0765,-4.0765,-4.0771,-4.0803,-4.0796,-4.0796,-4.0808,-4.08,-4.0812,-4.0823,-4.0846,-4.0846,-4.0867,-4.0868,-4.0888,-4.0898,-4.0888,-4.0888,-4.0888,-4.0888,-4.0897,-4.0921,-4.0974,-4.1,-4.1039,-4.1091,-4.1105,-4.1081,-4.1061,-4.0984,-4.0935,-4.0351,-3.9578,-3.8661,-3.7834,-3.6666,-3.5929,-3.5372,-3.5028,-3.4675,-3.4398,-3.433,-3.4279,-3.4067,-3.3947,-3.3698,-3.3486,-3.3421,-3.3335,-3.3183,-3.3141,-3.3205,-3.3328,-3.3458,-3.3494,-3.3397,-3.3302,-3.3105,-3.2965,-3.3212,-3.3281,-3.3423,-3.3713,-3.4134,-3.4315,-3.4615,-3.4907,-3.5051,-3.5232,-3.5402,-3.5566,-3.5646,-3.5699,-3.5768,-3.5805,-3.5861,-3.5914,-3.5956,-3.5977,-3.5931,-3.5875,-3.584,-3.5799,-3.5717,-3.5615,-3.547,-3.5316,-3.5133,-3.4944,-3.4773,-3.4526,-3.4232,-3.3715,-3.3196,-3.289,-3.2519,-3.2127,-3.1821,-3.1432,-3.0965,-3.0559,-3.0097,-2.9589,-2.9289,-2.9075,-2.8479,-2.7665,-2.7297,-2.6923,-2.6308,-2.5701,-2.5216,-2.4778,-2.4518,-2.4366,-4.079,-4.079,-4.079,-4.0815,-4.08,-4.08,-4.0792,-4.0807,-4.0807,-4.0837,-4.0877,-4.0888,-4.0888,-4.0898,-4.0888,-4.0888,-4.0888,-4.0888,-4.0888,-4.0888,-4.0897,-4.0941,-4.0974,-4.0994,-4.1031,-4.1105,-4.1101,-4.0922,-4.0746,-4.0681,-4.0422,-3.9842,-3.8804,-3.8004,-3.7156,-3.6301,-3.5573,-3.5374,-3.5209,-3.4962,-3.4695,-3.4695,-3.4591,-3.4458,-3.4321,-3.4221,-3.4074,-3.4012,-3.3935,-3.3961,-3.3899,-3.3913,-3.4025,-3.3935,-3.3935,-3.3884,-3.3865,-3.3768,-3.3723,-3.3843,-3.3994,-3.412,-3.4367,-3.4676,-3.4793,-3.5053,-3.5226,-3.5242,-3.5407,-3.5554,-3.5631,-3.5715,-3.5742,-3.5807,-3.5854,-3.5894,-3.5918,-3.5945,-3.5939,-3.5866,-3.5814,-3.5713,-3.567,-3.5637,-3.5546,-3.5411,-3.5232,-3.5034,-3.4793,-3.4588,-3.4255,-3.3935,-3.3439,-3.2921,-3.2651,-3.2335,-3.2002,-3.162,-3.1278,-3.0828,-3.0335,-2.9924,-2.9425,-2.9213,-2.9137,-2.8795,-2.8238,-2.7978,-2.76,-2.6611,-2.5728,-2.5328,-2.4948,-2.4664,-2.4189,-4.079,-4.079,-4.0803,-4.0796,-4.08,-4.08,-4.0804,-4.0798,-4.0807,-4.0848,-4.0888,-4.0888,-4.0898,-4.0888,-4.0888,-4.0888,-4.0888,-4.0888,-4.0907,-4.0907,-4.0897,-4.0941,-4.0967,-4.1,-4.1022,-4.1101,-4.1088,-4.0659,-4.009,-3.9972,-3.9934,-3.9707,-3.8259,-3.7543,-3.691,-3.6195,-3.5657,-3.5465,-3.5366,-3.5197,-3.4978,-3.4925,-3.4888,-3.4691,-3.467,-3.463,-3.4386,-3.4386,-3.4367,-3.4431,-3.4371,-3.4357,-3.4442,-3.4302,-3.4279,-3.4307,-3.4284,-3.4265,-3.4357,-3.4338,-3.4292,-3.4427,-3.4696,-3.5034,-3.5107,-3.5304,-3.5465,-3.5512,-3.5596,-3.5698,-3.5757,-3.5797,-3.5822,-3.5867,-3.5897,-3.5897,-3.5906,-3.5907,-3.589,-3.5833,-3.5737,-3.5621,-3.5531,-3.5483,-3.5416,-3.5266,-3.5032,-3.4832,-3.4508,-3.4255,-3.3891,-3.3532,-3.3063,-3.2654,-3.2352,-3.2055,-3.1748,-3.13,-3.0868,-3.046,-3.0011,-2.9589,-2.9259,-2.9229,-2.9091,-2.8967,-2.8716,-2.8189,-2.755,-2.6491,-2.5769,-2.5425,-2.4821,-2.4319,-2.3897,-3.999,-4.0053,-4.0563,-4.08,-4.0804,-4.0846,-4.0867,-4.0859,-4.0859,-4.0878,-4.0888,-4.0898,-4.0888,-4.0888,-4.0888,-4.0888,-4.0907,-4.0946,-4.0927,-4.0946,-4.0956,-4.096,-4.0986,-4.1,-4.1022,-4.1081,-4.1049,-4.0639,-3.9897,-3.9351,-3.8698,-3.8162,-3.7538,-3.7021,-3.6469,-3.6119,-3.5838,-3.5715,-3.56,-3.5456,-3.5264,-3.5205,-3.5127,-3.4832,-3.487,-3.4773,-3.4586,-3.4751,-3.4711,-3.4672,-3.4694,-3.4734,-3.4774,-3.4632,-3.4593,-3.4655,-3.4574,-3.4655,-3.4754,-3.4793,-3.487,-3.5049,-3.5216,-3.533,-3.5358,-3.5507,-3.5599,-3.5666,-3.5727,-3.5788,-3.5846,-3.5864,-3.5875,-3.5937,-3.5948,-3.5916,-3.5892,-3.5866,-3.5788,-3.5693,-3.5601,-3.5488,-3.5378,-3.5304,-3.5242,-3.5124,-3.487,-3.4609,-3.4321,-3.4037,-3.3725,-3.3447,-3.3001,-3.2619,-3.2335,-3.1932,-3.1507,-3.1027,-3.0584,-3.0123,-2.975,-2.9425,-2.9167,-2.9137,-2.9045,-2.8905,-2.859,-2.8174,-2.7449,-2.6505,-2.5946,-2.555,-2.4878,-2.4073,-2.3839,-3.9112,-3.9193,-3.9785,-4.035,-4.0798,-4.0877,-4.0898,-4.0907,-4.0888,-4.0888,-4.0888,-4.0888,-4.0888,-4.0888,-4.0888,-4.0897,-4.0926,-4.0974,-4.0963,-4.0963,-4.0971,-4.1003,-4.102,-4.1025,-4.1022,-4.1023,-4.0698,-4.0229,-3.9351,-3.859,-3.7819,-3.7222,-3.6875,-3.6459,-3.6202,-3.5948,-3.5885,-3.5866,-3.5803,-3.5688,-3.5461,-3.5481,-3.5387,-3.5124,-3.5139,-3.5111,-3.4959,-3.5015,-3.5035,-3.4981,-3.4962,-3.5034,-3.5015,-3.4961,-3.4924,-3.4905,-3.4887,-3.4962,-3.5035,-3.5089,-3.5258,-3.5379,-3.546,-3.554,-3.5599,-3.5639,-3.5708,-3.5747,-3.5813,-3.5845,-3.59,-3.5917,-3.5935,-3.5964,-3.5903,-3.5875,-3.5805,-3.5762,-3.5668,-3.556,-3.5463,-3.5378,-3.5235,-3.5126,-3.4964,-3.487,-3.4732,-3.4458,-3.4203,-3.3954,-3.3716,-3.3419,-3.3093,-3.2731,-3.2384,-3.1914,-3.1414,-3.0948,-3.046,-2.9908,-2.9528,-2.9243,-2.9137,-2.9091,-2.8998,-2.8842,-2.8479,-2.8012,-2.7348,-2.6558,-2.5946,-2.5286,-2.4948,-2.4261,-2.4157,-3.8233,-3.8225,-3.8374,-3.9364,-4.0674,-4.0858,-4.0859,-4.0888,-4.0888,-4.0888,-4.0888,-4.0888,-4.0888,-4.0888,-4.0888,-4.0926,-4.0952,-4.0988,-4.0984,-4.0979,-4.1011,-4.1046,-4.1006,-4.0983,-4.076,-4.0808,-4.0249,-3.9429,-3.8609,-3.7926,-3.7036,-3.642,-3.6269,-3.6147,-3.5991,-3.5934,-3.5903,-3.5885,-3.584,-3.5732,-3.566,-3.5708,-3.559,-3.543,-3.543,-3.5393,-3.5268,-3.5268,-3.5273,-3.5234,-3.5212,-3.5273,-3.532,-3.5187,-3.5215,-3.54,-3.5268,-3.5297,-3.5446,-3.5289,-3.5354,-3.5501,-3.5566,-3.5624,-3.5643,-3.5713,-3.5812,-3.5855,-3.5887,-3.5935,-3.5955,-3.5977,-3.5974,-3.5939,-3.5866,-3.5795,-3.5725,-3.5648,-3.5549,-3.5425,-3.5383,-3.532,-3.5126,-3.4946,-3.471,-3.4604,-3.452,-3.434,-3.4074,-3.377,-3.3522,-3.3243,-3.2939,-3.2535,-3.2127,-3.177,-3.13,-3.0811,-3.0293,-2.9705,-2.938,-2.9213,-2.9091,-2.9091,-2.8982,-2.8826,-2.8367,-2.7864,-2.6923,-2.604,-2.5467,-2.4892,-2.4607,-2.4434,-2.4261,-3.7433,-3.7521,-3.8064,-3.8666,-3.9305,-3.9859,-4.0393,-4.0849,-4.0888,-4.0888,-4.0888,-4.0888,-4.0888,-4.0888,-4.0907,-4.0926,-4.0943,-4.0981,-4.098,-4.0999,-4.1,-4.1089,-4.095,-4.0486,-4.0223,-4.0008,-3.939,-3.857,-3.7731,-3.7301,-3.6794,-3.622,-3.6015,-3.6023,-3.5991,-3.5974,-3.5962,-3.5948,-3.5889,-3.584,-3.5799,-3.583,-3.5752,-3.5551,-3.5631,-3.5591,-3.5446,-3.5481,-3.5481,-3.5442,-3.5425,-3.5473,-3.554,-3.545,-3.5532,-3.5631,-3.5549,-3.5553,-3.5624,-3.5566,-3.5528,-3.5592,-3.563,-3.5715,-3.5788,-3.5819,-3.589,-3.5935,-3.5957,-3.5989,-3.5996,-3.5965,-3.5931,-3.586,-3.5788,-3.5657,-3.5582,-3.5508,-3.5438,-3.5307,-3.5226,-3.5107,-3.4965,-3.4769,-3.4561,-3.4358,-3.4269,-3.4197,-3.3991,-3.3541,-3.319,-3.2975,-3.2687,-3.2266,-3.1877,-3.1528,-3.101,-3.046,-2.9924,-2.938,-2.9137,-2.9091,-2.9091,-2.9091,-2.8982,-2.8811,-2.8207,-2.75,-2.6308,-2.5425,-2.516,-2.4835,-2.462,-2.4434,-2.4247,-3.661,-3.6696,-3.721,-3.7646,-3.8052,-3.8868,-3.9587,-3.9994,-4.0053,-4.0198,-4.0429,-4.0468,-4.0682,-4.0837,-4.0935,-4.0954,-4.0943,-4.0974,-4.1017,-4.1,-4.0719,-4.0623,-4.032,-3.9833,-3.9451,-3.9153,-3.857,-3.7809,-3.7379,-3.7009,-3.6543,-3.6144,-3.6015,-3.6011,-3.6003,-3.5996,-3.5997,-3.597,-3.5938,-3.5929,-3.5928,-3.5917,-3.5853,-3.5764,-3.5757,-3.5741,-3.5659,-3.5621,-3.5659,-3.563,-3.563,-3.5648,-3.5704,-3.5741,-3.5745,-3.576,-3.5714,-3.5696,-3.5689,-3.5727,-3.5699,-3.5708,-3.5737,-3.5807,-3.589,-3.5918,-3.5937,-3.5987,-3.5994,-3.5985,-3.5958,-3.5903,-3.585,-3.5788,-3.5676,-3.554,-3.5461,-3.5393,-3.5321,-3.5174,-3.5108,-3.4964,-3.4769,-3.4583,-3.4386,-3.4197,-3.4016,-3.3939,-3.3834,-3.3426,-3.3055,-3.2834,-3.2588,-3.2283,-3.1841,-3.13,-3.0747,-3.0097,-2.9589,-2.9183,-2.9091,-2.9091,-2.9091,-2.9091,-2.9029,-2.8716,-2.7997,-2.7181,-2.6361,-2.5811,-2.5453,-2.5118,-2.4677,-2.4492,-2.4305,-3.5803,-3.5803,-3.5801,-3.6343,-3.7139,-3.7897,-3.8324,-3.8449,-3.8469,-3.8952,-3.9626,-3.9665,-3.9957,-4.0676,-4.0793,-4.0696,-4.0626,-4.065,-4.0674,-4.0579,-4.0043,-3.988,-3.9494,-3.8943,-3.86,-3.8255,-3.775,-3.7204,-3.7106,-3.6599,-3.6152,-3.6025,-3.6013,-3.6016,-3.6013,-3.6003,-3.6007,-3.6001,-3.5997,-3.5974,-3.5981,-3.5997,-3.5943,-3.5889,-3.5908,-3.5908,-3.5852,-3.584,-3.5814,-3.5781,-3.5753,-3.5806,-3.584,-3.5885,-3.5895,-3.5857,-3.5763,-3.5756,-3.5756,-3.5797,-3.5814,-3.5838,-3.5849,-3.588,-3.5921,-3.5957,-3.5962,-3.5949,-3.5951,-3.5923,-3.5895,-3.5819,-3.5755,-3.5668,-3.5549,-3.5444,-3.5366,-3.5273,-3.519,-3.511,-3.5075,-3.4946,-3.4687,-3.4473,-3.4221,-3.4023,-3.3834,-3.3643,-3.353,-3.3368,-3.3055,-3.288,-3.2621,-3.2386,-3.1877,-3.1145,-3.0584,-2.9968,-2.9649,-2.9259,-2.9183,-2.9091,-2.9091,-2.9091,-2.9091,-2.8669,-2.7765,-2.7195,-2.6849,-2.6283,-2.5508,-2.5174,-2.4677,-2.462,-2.4492,-3.5793,-3.581,-3.5791,-3.5935,-3.6187,-3.6459,-3.7217,-3.8305,-3.8391,-3.8583,-3.8778,-3.8778,-3.9018,-3.9167,-3.9147,-3.9206,-3.922,-3.9202,-3.9193,-3.9121,-3.9138,-3.9013,-3.8645,-3.8115,-3.7767,-3.7396,-3.6931,-3.6482,-3.6381,-3.601,-3.6013,-3.6018,-3.6005,-3.6011,-3.6015,-3.6005,-3.6016,-3.601,-3.601,-3.6007,-3.602,-3.6013,-3.5986,-3.5986,-3.5986,-3.5986,-3.5958,-3.5942,-3.5923,-3.5914,-3.5919,-3.5947,-3.5966,-3.5974,-3.5972,-3.5973,-3.5935,-3.5936,-3.5917,-3.5935,-3.5914,-3.586,-3.5879,-3.5925,-3.596,-3.5952,-3.5934,-3.5885,-3.5844,-3.5827,-3.5767,-3.5693,-3.5631,-3.5538,-3.5425,-3.5336,-3.5247,-3.5171,-3.5092,-3.5001,-3.4946,-3.479,-3.4539,-3.4293,-3.4074,-3.3887,-3.3671,-3.3462,-3.3286,-3.3117,-3.2993,-3.2816,-3.2437,-3.2127,-3.1511,-3.0788,-3.0335,-2.9897,-2.956,-2.9305,-2.9183,-2.9091,-2.9091,-2.9045,-2.8889,-2.8222,-2.7312,-2.6953,-2.6745,-2.5906,-2.5174,-2.4948,-2.4791,-2.4677,-2.4505,-3.5826,-3.5838,-3.5807,-3.5791,-3.5791,-3.5791,-3.6459,-3.7294,-3.7397,-3.7557,-3.7903,-3.7923,-3.8098,-3.8507,-3.8553,-3.8546,-3.8546,-3.8663,-3.8672,-3.8619,-3.819,-3.8118,-3.7789,-3.7282,-3.6872,-3.656,-3.6381,-3.6108,-3.601,-3.601,-3.6013,-3.6013,-3.601,-3.6005,-3.6015,-3.6014,-3.6007,-3.6003,-3.6021,-3.6016,-3.601,-3.6004,-3.602,-3.6001,-3.5997,-3.5997,-3.5997,-3.5974,-3.5947,-3.5951,-3.5956,-3.5937,-3.5918,-3.5908,-3.5887,-3.5857,-3.5841,-3.5841,-3.5833,-3.5825,-3.5814,-3.5787,-3.5764,-3.5781,-3.5827,-3.582,-3.5774,-3.5741,-3.5729,-3.5696,-3.5611,-3.5538,-3.5488,-3.5418,-3.5311,-3.5245,-3.5143,-3.5056,-3.4964,-3.485,-3.473,-3.4583,-3.4363,-3.4148,-3.3921,-3.3753,-3.353,-3.3238,-3.3135,-3.3042,-3.2866,-3.2687,-3.2231,-3.1768,-3.1128,-3.0625,-3.0208,-2.9853,-2.9605,-2.935,-2.9183,-2.9091,-2.9045,-2.8826,-2.8574,-2.7913,-2.7261,-2.6901,-2.6534,-2.5701,-2.5174,-2.5118,-2.4892,-2.4664,-2.4492,-3.584,-3.5889,-3.5826,-3.5807,-3.5791,-3.5791,-3.5857,-3.5807,-3.6047,-3.6352,-3.6999,-3.7108,-3.7483,-3.78,-3.7907,-3.7935,-3.7851,-3.7876,-3.7859,-3.8248,-3.7484,-3.7201,-3.6989,-3.6462,-3.6303,-3.6108,-3.601,-3.601,-3.601,-3.601,-3.601,-3.601,-3.601,-3.6021,-3.601,-3.6015,-3.6015,-3.6013,-3.6012,-3.6011,-3.5984,-3.5999,-3.5999,-3.5982,-3.5982,-3.5984,-3.5966,-3.5936,-3.5893,-3.586,-3.5845,-3.5806,-3.5791,-3.5781,-3.5745,-3.5737,-3.5741,-3.5706,-3.5669,-3.563,-3.5573,-3.5553,-3.5563,-3.5553,-3.5582,-3.5687,-3.5687,-3.5602,-3.5581,-3.5535,-3.5438,-3.5372,-3.5321,-3.5232,-3.5138,-3.5073,-3.5001,-3.4927,-3.4811,-3.473,-3.4689,-3.4517,-3.434,-3.4124,-3.385,-3.3652,-3.3386,-3.3135,-3.2948,-3.2884,-3.2737,-3.2573,-3.2056,-3.1582,-3.1145,-3.0625,-3.0123,-2.9793,-2.9515,-2.9335,-2.9183,-2.9029,-2.8982,-2.8826,-2.8669,-2.8012,-2.7399,-2.699,-2.6481,-2.5756,-2.5342,-2.5342,-2.5118,-2.4778,-2.4478,-3.5892,-3.59,-3.5894,-3.584,-3.5799,-3.5791,-3.5834,-3.5872,-3.5885,-3.602,-3.6187,-3.6265,-3.6376,-3.6707,-3.6757,-3.6752,-3.6713,-3.6918,-3.6621,-3.6711,-3.643,-3.6495,-3.6381,-3.6186,-3.601,-3.601,-3.601,-3.601,-3.601,-3.601,-3.601,-3.601,-3.601,-3.6016,-3.6021,-3.601,-3.6013,-3.6015,-3.6015,-3.6015,-3.5995,-3.5936,-3.5912,-3.5912,-3.5893,-3.5888,-3.5864,-3.5835,-3.5817,-3.58,-3.5768,-3.5733,-3.5708,-3.5698,-3.5699,-3.5708,-3.5611,-3.5538,-3.5434,-3.536,-3.5297,-3.5264,-3.5257,-3.5287,-3.538,-3.5523,-3.5577,-3.5488,-3.5425,-3.535,-3.5281,-3.5239,-3.5174,-3.5089,-3.4982,-3.4946,-3.4869,-3.4771,-3.4689,-3.4647,-3.4604,-3.4454,-3.4293,-3.408,-3.3805,-3.3578,-3.3309,-3.3024,-3.2802,-3.2672,-3.2623,-3.2422,-3.1894,-3.1449,-3.1027,-3.0526,-3.0011,-2.9677,-2.938,-2.9213,-2.9121,-2.9075,-2.9029,-2.8982,-2.8779,-2.7963,-2.7348,-2.699,-2.6481,-2.5715,-2.5342,-2.523,-2.5118,-2.4835,-2.4593,-3.5882,-3.5888,-3.588,-3.5875,-3.584,-3.5852,-3.5845,-3.5864,-3.5891,-3.5889,-3.5894,-3.5923,-3.5958,-3.5935,-3.5912,-3.5916,-3.5931,-3.5938,-3.6126,-3.604,-3.5965,-3.6027,-3.5991,-3.601,-3.601,-3.601,-3.601,-3.601,-3.601,-3.601,-3.601,-3.601,-3.601,-3.601,-3.6013,-3.6021,-3.6005,-3.6003,-3.6005,-3.6007,-3.6012,-3.595,-3.5931,-3.5919,-3.5889,-3.585,-3.5816,-3.5794,-3.5674,-3.5551,-3.5379,-3.5303,-3.5249,-3.5243,-3.5254,-3.5244,-3.5192,-3.5187,-3.507,-3.499,-3.4942,-3.4914,-3.4864,-3.4887,-3.4887,-3.5024,-3.5205,-3.5162,-3.5292,-3.5254,-3.5223,-3.5176,-3.5143,-3.5073,-3.4946,-3.483,-3.4769,-3.4687,-3.4626,-3.4626,-3.4539,-3.4367,-3.416,-3.3917,-3.3625,-3.3232,-3.2993,-3.2898,-3.2705,-3.2557,-3.2473,-3.2301,-3.1839,-3.1449,-3.1083,-3.0502,-2.9837,-2.9515,-2.9259,-2.9183,-2.9137,-2.9075,-2.9075,-2.8873,-2.8463,-2.7715,-2.7144,-2.6886,-2.6336,-2.5578,-2.5244,-2.5005,-2.4948,-2.4948,-2.4778,-3.5914,-3.5898,-3.589,-3.5884,-3.5885,-3.588,-3.5872,-3.5833,-3.5858,-3.5904,-3.5909,-3.5962,-3.601,-3.5988,-3.5958,-3.5965,-3.5962,-3.5927,-3.5958,-3.5988,-3.5988,-3.5988,-3.5991,-3.601,-3.601,-3.601,-3.601,-3.601,-3.601,-3.601,-3.601,-3.601,-3.601,-3.601,-3.601,-3.601,-3.6013,-3.6016,-3.6016,-3.6013,-3.6001,-3.597,-3.5973,-3.5949,-3.5915,-3.5892,-3.5846,-3.5732,-3.555,-3.5378,-3.5114,-3.4905,-3.4775,-3.4737,-3.462,-3.4602,-3.4524,-3.4523,-3.4478,-3.4438,-3.4454,-3.4467,-3.4464,-3.4464,-3.4445,-3.4555,-3.4756,-3.4718,-3.4827,-3.5013,-3.4978,-3.498,-3.4944,-3.4964,-3.4792,-3.4728,-3.4666,-3.4583,-3.4602,-3.4602,-3.4454,-3.4274,-3.4018,-3.3787,-3.3429,-3.3006,-3.2787,-3.269,-3.259,-3.2507,-3.2457,-3.2267,-3.1965,-3.1562,-3.1162,-3.0543,-2.9837,-2.9515,-2.9305,-2.9183,-2.9091,-2.9091,-2.892,-2.8511,-2.7997,-2.7715,-2.7144,-2.6678,-2.6082,-2.5578,-2.5188,-2.5005,-2.5005,-2.4948,-2.4892,-3.5954,-3.5898,-3.5898,-3.5891,-3.5887,-3.5884,-3.588,-3.5877,-3.59,-3.5923,-3.5962,-3.5985,-3.601,-3.601,-3.601,-3.5991,-3.5968,-3.5939,-3.5942,-3.5991,-3.5965,-3.5965,-3.5988,-3.601,-3.601,-3.601,-3.601,-3.601,-3.601,-3.601,-3.601,-3.5991,-3.5991,-3.5991,-3.5991,-3.5991,-3.601,-3.601,-3.601,-3.601,-3.5985,-3.5962,-3.5929,-3.5885,-3.5799,-3.5752,-3.5698,-3.5607,-3.5534,-3.5383,-3.5136,-3.4717,-3.4433,-3.4255,-3.4125,-3.3987,-3.392,-3.3938,-3.3932,-3.3857,-3.3876,-3.4165,-3.4165,-3.4104,-3.4115,-3.4157,-3.4083,-3.3634,-3.3815,-3.4235,-3.431,-3.435,-3.4327,-3.4461,-3.4433,-3.4508,-3.4542,-3.452,-3.4539,-3.4476,-3.4431,-3.4179,-3.3884,-3.3643,-3.339,-3.3006,-3.2672,-3.2573,-3.2473,-3.2422,-3.2406,-3.2214,-3.2037,-3.16,-3.1162,-3.0625,-3.0054,-2.9633,-2.9305,-2.9183,-2.9091,-2.9091,-2.8873,-2.8511,-2.8511,-2.8415,-2.77,-2.6745,-2.6336,-2.5879,-2.5342,-2.5005,-2.5005,-2.5005,-2.4948]}]]